<?xml version="1.0" encoding="UTF-8" standalone="no" ?>
<gpx xmlns="http://www.topografix.com/GPX/1/1" xmlns:xsi="http://www.w3.org/2001/XMLSchema-instance" xsi:schemaLocation="http://www.topografix.com/GPX/1/1 http://www.topografix.com/GPX/1/1/gpx.xsd" version="1.1" creator="VisuGPX - https://www.visugpx.com">
  <metadata>
    <name>Boucle Roquebrune</name>
    <desc><![CDATA[Roquebrune, sentier botanique, les 25 ponts, La maurette , col de Valdingarde, Roquas des Louquiers, Vieux Revest,  retour col de valdingarde, aire de vaoudoun, la cavaliere et redecente Roquebrune]]></desc>
  </metadata>
  <trk>
    <name><![CDATA[2025-04-05 16:29:13]]></name>
    <extensions>
      <line xmlns="http://www.topografix.com/GPX/gpx_style/0/2">
        <color>0000FF</color>
        <width>4</width>
      </line>
    </extensions>
    <trkseg>
      <trkpt lat="43.44017" lon="6.63423">
        <ele>41.95</ele>
        <time>2025-04-05T07:05:23Z</time>
      </trkpt>
      <trkpt lat="43.44011" lon="6.63427">
        <ele>41.95</ele>
        <time>2025-04-05T07:05:49Z</time>
      </trkpt>
      <trkpt lat="43.44013" lon="6.63428">
        <ele>42.44</ele>
        <time>2025-04-05T07:06:08Z</time>
      </trkpt>
      <trkpt lat="43.44014" lon="6.63427">
        <ele>40.51</ele>
        <time>2025-04-05T07:06:11Z</time>
      </trkpt>
      <trkpt lat="43.44014" lon="6.63426">
        <ele>41.95</ele>
        <time>2025-04-05T07:06:21Z</time>
      </trkpt>
      <trkpt lat="43.44011" lon="6.63432">
        <ele>42.44</ele>
        <time>2025-04-05T07:06:28Z</time>
      </trkpt>
      <trkpt lat="43.44004" lon="6.63433">
        <ele>42.44</ele>
        <time>2025-04-05T07:06:43Z</time>
      </trkpt>
      <trkpt lat="43.43992" lon="6.63418">
        <ele>42.92</ele>
        <time>2025-04-05T07:06:57Z</time>
      </trkpt>
      <trkpt lat="43.43985" lon="6.6341">
        <ele>44.84</ele>
        <time>2025-04-05T07:07:11Z</time>
      </trkpt>
      <trkpt lat="43.43985" lon="6.6341">
        <ele>44.84</ele>
        <time>2025-04-05T07:07:21Z</time>
      </trkpt>
      <trkpt lat="43.43982" lon="6.63405">
        <ele>44.84</ele>
        <time>2025-04-05T07:07:38Z</time>
      </trkpt>
      <trkpt lat="43.43978" lon="6.63399">
        <ele>44.84</ele>
        <time>2025-04-05T07:07:44Z</time>
      </trkpt>
      <trkpt lat="43.43979" lon="6.63394">
        <ele>45.8</ele>
        <time>2025-04-05T07:07:49Z</time>
      </trkpt>
      <trkpt lat="43.43978" lon="6.63392">
        <ele>46.28</ele>
        <time>2025-04-05T07:07:56Z</time>
      </trkpt>
      <trkpt lat="43.43969" lon="6.63387">
        <ele>46.28</ele>
        <time>2025-04-05T07:08:10Z</time>
      </trkpt>
      <trkpt lat="43.43969" lon="6.63384">
        <ele>46.76</ele>
        <time>2025-04-05T07:08:27Z</time>
      </trkpt>
      <trkpt lat="43.43968" lon="6.63375">
        <ele>47.24</ele>
        <time>2025-04-05T07:08:43Z</time>
      </trkpt>
      <trkpt lat="43.43962" lon="6.63376">
        <ele>48.2</ele>
        <time>2025-04-05T07:08:56Z</time>
      </trkpt>
      <trkpt lat="43.43954" lon="6.63375">
        <ele>49.16</ele>
        <time>2025-04-05T07:09:12Z</time>
      </trkpt>
      <trkpt lat="43.43949" lon="6.6337">
        <ele>50.61</ele>
        <time>2025-04-05T07:09:23Z</time>
      </trkpt>
      <trkpt lat="43.43943" lon="6.63362">
        <ele>51.57</ele>
        <time>2025-04-05T07:09:36Z</time>
      </trkpt>
      <trkpt lat="43.4394" lon="6.63358">
        <ele>52.53</ele>
        <time>2025-04-05T07:09:41Z</time>
      </trkpt>
      <trkpt lat="43.43933" lon="6.6335">
        <ele>53.49</ele>
        <time>2025-04-05T07:09:54Z</time>
      </trkpt>
      <trkpt lat="43.43933" lon="6.63348">
        <ele>53.49</ele>
        <time>2025-04-05T07:10:08Z</time>
      </trkpt>
      <trkpt lat="43.4393" lon="6.63348">
        <ele>52.53</ele>
        <time>2025-04-05T07:10:29Z</time>
      </trkpt>
      <trkpt lat="43.43928" lon="6.63344">
        <ele>53.97</ele>
        <time>2025-04-05T07:10:33Z</time>
      </trkpt>
      <trkpt lat="43.43918" lon="6.63332">
        <ele>54.45</ele>
        <time>2025-04-05T07:10:45Z</time>
      </trkpt>
      <trkpt lat="43.43909" lon="6.63329">
        <ele>55.89</ele>
        <time>2025-04-05T07:10:58Z</time>
      </trkpt>
      <trkpt lat="43.43906" lon="6.63332">
        <ele>55.89</ele>
        <time>2025-04-05T07:11:02Z</time>
      </trkpt>
      <trkpt lat="43.43906" lon="6.63333">
        <ele>55.89</ele>
        <time>2025-04-05T07:11:03Z</time>
      </trkpt>
      <trkpt lat="43.43905" lon="6.63334">
        <ele>55.89</ele>
        <time>2025-04-05T07:11:04Z</time>
      </trkpt>
      <trkpt lat="43.43903" lon="6.63335">
        <ele>55.89</ele>
        <time>2025-04-05T07:11:06Z</time>
      </trkpt>
      <trkpt lat="43.43896" lon="6.63341">
        <ele>57.82</ele>
        <time>2025-04-05T07:11:16Z</time>
      </trkpt>
      <trkpt lat="43.43895" lon="6.63342">
        <ele>57.82</ele>
        <time>2025-04-05T07:11:18Z</time>
      </trkpt>
      <trkpt lat="43.43892" lon="6.63342">
        <ele>58.3</ele>
        <time>2025-04-05T07:11:21Z</time>
      </trkpt>
      <trkpt lat="43.43884" lon="6.6335">
        <ele>60.7</ele>
        <time>2025-04-05T07:11:34Z</time>
      </trkpt>
      <trkpt lat="43.43883" lon="6.6335">
        <ele>60.22</ele>
        <time>2025-04-05T07:11:35Z</time>
      </trkpt>
      <trkpt lat="43.43874" lon="6.63356">
        <ele>61.66</ele>
        <time>2025-04-05T07:11:47Z</time>
      </trkpt>
      <trkpt lat="43.43868" lon="6.63359">
        <ele>63.1</ele>
        <time>2025-04-05T07:11:54Z</time>
      </trkpt>
      <trkpt lat="43.4385" lon="6.63362">
        <ele>64.07</ele>
        <time>2025-04-05T07:12:09Z</time>
      </trkpt>
      <trkpt lat="43.43836" lon="6.63374">
        <ele>66.47</ele>
        <time>2025-04-05T07:12:24Z</time>
      </trkpt>
      <trkpt lat="43.43817" lon="6.63381">
        <ele>68.87</ele>
        <time>2025-04-05T07:12:40Z</time>
      </trkpt>
      <trkpt lat="43.43816" lon="6.63381">
        <ele>68.87</ele>
        <time>2025-04-05T07:12:41Z</time>
      </trkpt>
      <trkpt lat="43.4381" lon="6.63379">
        <ele>70.31</ele>
        <time>2025-04-05T07:12:49Z</time>
      </trkpt>
      <trkpt lat="43.43809" lon="6.63378">
        <ele>70.79</ele>
        <time>2025-04-05T07:12:50Z</time>
      </trkpt>
      <trkpt lat="43.43807" lon="6.63378">
        <ele>70.79</ele>
        <time>2025-04-05T07:12:52Z</time>
      </trkpt>
      <trkpt lat="43.43802" lon="6.63379">
        <ele>71.27</ele>
        <time>2025-04-05T07:12:57Z</time>
      </trkpt>
      <trkpt lat="43.43801" lon="6.63379">
        <ele>71.27</ele>
        <time>2025-04-05T07:12:58Z</time>
      </trkpt>
      <trkpt lat="43.438" lon="6.63381">
        <ele>71.27</ele>
        <time>2025-04-05T07:12:59Z</time>
      </trkpt>
      <trkpt lat="43.438" lon="6.63382">
        <ele>71.27</ele>
        <time>2025-04-05T07:13:00Z</time>
      </trkpt>
      <trkpt lat="43.43799" lon="6.63383">
        <ele>71.27</ele>
        <time>2025-04-05T07:13:01Z</time>
      </trkpt>
      <trkpt lat="43.43798" lon="6.63387">
        <ele>71.27</ele>
        <time>2025-04-05T07:13:04Z</time>
      </trkpt>
      <trkpt lat="43.43798" lon="6.6339">
        <ele>71.27</ele>
        <time>2025-04-05T07:13:06Z</time>
      </trkpt>
      <trkpt lat="43.438" lon="6.63402">
        <ele>72.72</ele>
        <time>2025-04-05T07:13:16Z</time>
      </trkpt>
      <trkpt lat="43.43801" lon="6.63424">
        <ele>74.16</ele>
        <time>2025-04-05T07:13:29Z</time>
      </trkpt>
      <trkpt lat="43.43797" lon="6.6345">
        <ele>74.16</ele>
        <time>2025-04-05T07:13:44Z</time>
      </trkpt>
      <trkpt lat="43.43797" lon="6.63466">
        <ele>75.6</ele>
        <time>2025-04-05T07:13:55Z</time>
      </trkpt>
      <trkpt lat="43.43796" lon="6.63482">
        <ele>77.04</ele>
        <time>2025-04-05T07:14:05Z</time>
      </trkpt>
      <trkpt lat="43.43796" lon="6.63483">
        <ele>77.52</ele>
        <time>2025-04-05T07:14:06Z</time>
      </trkpt>
      <trkpt lat="43.43796" lon="6.63485">
        <ele>77.52</ele>
        <time>2025-04-05T07:14:07Z</time>
      </trkpt>
      <trkpt lat="43.43789" lon="6.63504">
        <ele>78.48</ele>
        <time>2025-04-05T07:14:22Z</time>
      </trkpt>
      <trkpt lat="43.43787" lon="6.63506">
        <ele>78.48</ele>
        <time>2025-04-05T07:14:31Z</time>
      </trkpt>
      <trkpt lat="43.43787" lon="6.63507">
        <ele>78.48</ele>
        <time>2025-04-05T07:14:32Z</time>
      </trkpt>
      <trkpt lat="43.43786" lon="6.63509">
        <ele>78.97</ele>
        <time>2025-04-05T07:14:33Z</time>
      </trkpt>
      <trkpt lat="43.43785" lon="6.6351">
        <ele>78.97</ele>
        <time>2025-04-05T07:14:34Z</time>
      </trkpt>
      <trkpt lat="43.43784" lon="6.63511">
        <ele>78.97</ele>
        <time>2025-04-05T07:14:35Z</time>
      </trkpt>
      <trkpt lat="43.43783" lon="6.63513">
        <ele>78.97</ele>
        <time>2025-04-05T07:14:36Z</time>
      </trkpt>
      <trkpt lat="43.43769" lon="6.63535">
        <ele>79.93</ele>
        <time>2025-04-05T07:14:53Z</time>
      </trkpt>
      <trkpt lat="43.43763" lon="6.63541">
        <ele>80.41</ele>
        <time>2025-04-05T07:14:59Z</time>
      </trkpt>
      <trkpt lat="43.43762" lon="6.63541">
        <ele>80.41</ele>
        <time>2025-04-05T07:15:00Z</time>
      </trkpt>
      <trkpt lat="43.43761" lon="6.63541">
        <ele>80.89</ele>
        <time>2025-04-05T07:15:01Z</time>
      </trkpt>
      <trkpt lat="43.4374" lon="6.63545">
        <ele>80.89</ele>
        <time>2025-04-05T07:15:15Z</time>
      </trkpt>
      <trkpt lat="43.43738" lon="6.63547">
        <ele>80.89</ele>
        <time>2025-04-05T07:15:17Z</time>
      </trkpt>
      <trkpt lat="43.43738" lon="6.63549">
        <ele>80.89</ele>
        <time>2025-04-05T07:15:18Z</time>
      </trkpt>
      <trkpt lat="43.43737" lon="6.6355">
        <ele>80.89</ele>
        <time>2025-04-05T07:15:19Z</time>
      </trkpt>
      <trkpt lat="43.43736" lon="6.63552">
        <ele>80.89</ele>
        <time>2025-04-05T07:15:20Z</time>
      </trkpt>
      <trkpt lat="43.43735" lon="6.63553">
        <ele>80.89</ele>
        <time>2025-04-05T07:15:21Z</time>
      </trkpt>
      <trkpt lat="43.43735" lon="6.63554">
        <ele>80.89</ele>
        <time>2025-04-05T07:15:22Z</time>
      </trkpt>
      <trkpt lat="43.43734" lon="6.63556">
        <ele>80.89</ele>
        <time>2025-04-05T07:15:23Z</time>
      </trkpt>
      <trkpt lat="43.43734" lon="6.63557">
        <ele>80.89</ele>
        <time>2025-04-05T07:15:24Z</time>
      </trkpt>
      <trkpt lat="43.43734" lon="6.63558">
        <ele>80.89</ele>
        <time>2025-04-05T07:15:25Z</time>
      </trkpt>
      <trkpt lat="43.4373" lon="6.63579">
        <ele>81.85</ele>
        <time>2025-04-05T07:15:38Z</time>
      </trkpt>
      <trkpt lat="43.43724" lon="6.63593">
        <ele>82.33</ele>
        <time>2025-04-05T07:15:47Z</time>
      </trkpt>
      <trkpt lat="43.43712" lon="6.63612">
        <ele>82.33</ele>
        <time>2025-04-05T07:16:02Z</time>
      </trkpt>
      <trkpt lat="43.43697" lon="6.63631">
        <ele>82.33</ele>
        <time>2025-04-05T07:16:17Z</time>
      </trkpt>
      <trkpt lat="43.4368" lon="6.63647">
        <ele>82.81</ele>
        <time>2025-04-05T07:16:34Z</time>
      </trkpt>
      <trkpt lat="43.43672" lon="6.63648">
        <ele>84.25</ele>
        <time>2025-04-05T07:16:41Z</time>
      </trkpt>
      <trkpt lat="43.43671" lon="6.63649">
        <ele>84.25</ele>
        <time>2025-04-05T07:16:42Z</time>
      </trkpt>
      <trkpt lat="43.43649" lon="6.63647">
        <ele>84.25</ele>
        <time>2025-04-05T07:16:59Z</time>
      </trkpt>
      <trkpt lat="43.43634" lon="6.63638">
        <ele>84.73</ele>
        <time>2025-04-05T07:17:13Z</time>
      </trkpt>
      <trkpt lat="43.43633" lon="6.63633">
        <ele>84.73</ele>
        <time>2025-04-05T07:17:30Z</time>
      </trkpt>
      <trkpt lat="43.4363" lon="6.63631">
        <ele>84.25</ele>
        <time>2025-04-05T07:17:33Z</time>
      </trkpt>
      <trkpt lat="43.43629" lon="6.63631">
        <ele>84.25</ele>
        <time>2025-04-05T07:17:35Z</time>
      </trkpt>
      <trkpt lat="43.43628" lon="6.63631">
        <ele>84.25</ele>
        <time>2025-04-05T07:17:36Z</time>
      </trkpt>
      <trkpt lat="43.43626" lon="6.6363">
        <ele>84.25</ele>
        <time>2025-04-05T07:17:37Z</time>
      </trkpt>
      <trkpt lat="43.43613" lon="6.63629">
        <ele>83.77</ele>
        <time>2025-04-05T07:17:48Z</time>
      </trkpt>
      <trkpt lat="43.43612" lon="6.6363">
        <ele>85.21</ele>
        <time>2025-04-05T07:17:50Z</time>
      </trkpt>
      <trkpt lat="43.43611" lon="6.63631">
        <ele>85.21</ele>
        <time>2025-04-05T07:17:51Z</time>
      </trkpt>
      <trkpt lat="43.4361" lon="6.63632">
        <ele>85.21</ele>
        <time>2025-04-05T07:17:52Z</time>
      </trkpt>
      <trkpt lat="43.43597" lon="6.63643">
        <ele>85.21</ele>
        <time>2025-04-05T07:18:06Z</time>
      </trkpt>
      <trkpt lat="43.4358" lon="6.63637">
        <ele>86.18</ele>
        <time>2025-04-05T07:18:21Z</time>
      </trkpt>
      <trkpt lat="43.4358" lon="6.63635">
        <ele>86.18</ele>
        <time>2025-04-05T07:18:22Z</time>
      </trkpt>
      <trkpt lat="43.43566" lon="6.63627">
        <ele>86.18</ele>
        <time>2025-04-05T07:18:38Z</time>
      </trkpt>
      <trkpt lat="43.43558" lon="6.63625">
        <ele>87.14</ele>
        <time>2025-04-05T07:18:46Z</time>
      </trkpt>
      <trkpt lat="43.43555" lon="6.63621">
        <ele>87.62</ele>
        <time>2025-04-05T07:18:50Z</time>
      </trkpt>
      <trkpt lat="43.43554" lon="6.63619">
        <ele>87.62</ele>
        <time>2025-04-05T07:18:51Z</time>
      </trkpt>
      <trkpt lat="43.43553" lon="6.63618">
        <ele>87.62</ele>
        <time>2025-04-05T07:18:52Z</time>
      </trkpt>
      <trkpt lat="43.43538" lon="6.63594">
        <ele>87.62</ele>
        <time>2025-04-05T07:19:10Z</time>
      </trkpt>
      <trkpt lat="43.43524" lon="6.63567">
        <ele>87.62</ele>
        <time>2025-04-05T07:19:27Z</time>
      </trkpt>
      <trkpt lat="43.43516" lon="6.63556">
        <ele>86.66</ele>
        <time>2025-04-05T07:19:42Z</time>
      </trkpt>
      <trkpt lat="43.43516" lon="6.63557">
        <ele>87.62</ele>
        <time>2025-04-05T07:19:57Z</time>
      </trkpt>
      <trkpt lat="43.43517" lon="6.63556">
        <ele>87.62</ele>
        <time>2025-04-05T07:20:00Z</time>
      </trkpt>
      <trkpt lat="43.43518" lon="6.63555">
        <ele>87.62</ele>
        <time>2025-04-05T07:20:01Z</time>
      </trkpt>
      <trkpt lat="43.43518" lon="6.63553">
        <ele>87.62</ele>
        <time>2025-04-05T07:20:02Z</time>
      </trkpt>
      <trkpt lat="43.43519" lon="6.63541">
        <ele>87.62</ele>
        <time>2025-04-05T07:20:09Z</time>
      </trkpt>
      <trkpt lat="43.43502" lon="6.63534">
        <ele>88.1</ele>
        <time>2025-04-05T07:20:25Z</time>
      </trkpt>
      <trkpt lat="43.43491" lon="6.63517">
        <ele>88.58</ele>
        <time>2025-04-05T07:20:39Z</time>
      </trkpt>
      <trkpt lat="43.43479" lon="6.63496">
        <ele>89.06</ele>
        <time>2025-04-05T07:20:56Z</time>
      </trkpt>
      <trkpt lat="43.43469" lon="6.6349">
        <ele>90.02</ele>
        <time>2025-04-05T07:21:05Z</time>
      </trkpt>
      <trkpt lat="43.4346" lon="6.63475">
        <ele>90.02</ele>
        <time>2025-04-05T07:21:20Z</time>
      </trkpt>
      <trkpt lat="43.4346" lon="6.63469">
        <ele>90.02</ele>
        <time>2025-04-05T07:21:33Z</time>
      </trkpt>
      <trkpt lat="43.43451" lon="6.63457">
        <ele>87.14</ele>
        <time>2025-04-05T07:21:45Z</time>
      </trkpt>
      <trkpt lat="43.43444" lon="6.63449">
        <ele>87.14</ele>
        <time>2025-04-05T07:21:59Z</time>
      </trkpt>
      <trkpt lat="43.43436" lon="6.63441">
        <ele>86.18</ele>
        <time>2025-04-05T07:22:15Z</time>
      </trkpt>
      <trkpt lat="43.43436" lon="6.63442">
        <ele>86.18</ele>
        <time>2025-04-05T07:22:23Z</time>
      </trkpt>
      <trkpt lat="43.43435" lon="6.63443">
        <ele>86.18</ele>
        <time>2025-04-05T07:22:24Z</time>
      </trkpt>
      <trkpt lat="43.43434" lon="6.63444">
        <ele>86.18</ele>
        <time>2025-04-05T07:22:25Z</time>
      </trkpt>
      <trkpt lat="43.43432" lon="6.63447">
        <ele>86.18</ele>
        <time>2025-04-05T07:22:28Z</time>
      </trkpt>
      <trkpt lat="43.4343" lon="6.63448">
        <ele>86.18</ele>
        <time>2025-04-05T07:22:29Z</time>
      </trkpt>
      <trkpt lat="43.43429" lon="6.63448">
        <ele>86.18</ele>
        <time>2025-04-05T07:22:30Z</time>
      </trkpt>
      <trkpt lat="43.43428" lon="6.63448">
        <ele>86.18</ele>
        <time>2025-04-05T07:22:31Z</time>
      </trkpt>
      <trkpt lat="43.43427" lon="6.63448">
        <ele>86.18</ele>
        <time>2025-04-05T07:22:32Z</time>
      </trkpt>
      <trkpt lat="43.43426" lon="6.63447">
        <ele>86.18</ele>
        <time>2025-04-05T07:22:33Z</time>
      </trkpt>
      <trkpt lat="43.43422" lon="6.63446">
        <ele>86.18</ele>
        <time>2025-04-05T07:22:42Z</time>
      </trkpt>
      <trkpt lat="43.43421" lon="6.63446">
        <ele>86.18</ele>
        <time>2025-04-05T07:22:43Z</time>
      </trkpt>
      <trkpt lat="43.43419" lon="6.63446">
        <ele>86.18</ele>
        <time>2025-04-05T07:22:44Z</time>
      </trkpt>
      <trkpt lat="43.43414" lon="6.63447">
        <ele>87.14</ele>
        <time>2025-04-05T07:22:48Z</time>
      </trkpt>
      <trkpt lat="43.43397" lon="6.63455">
        <ele>87.14</ele>
        <time>2025-04-05T07:23:02Z</time>
      </trkpt>
      <trkpt lat="43.43387" lon="6.63462">
        <ele>86.66</ele>
        <time>2025-04-05T07:28:25Z</time>
      </trkpt>
      <trkpt lat="43.43416" lon="6.63449">
        <ele>85.69</ele>
        <time>2025-04-05T07:28:46Z</time>
      </trkpt>
      <trkpt lat="43.43428" lon="6.63448">
        <ele>85.21</ele>
        <time>2025-04-05T07:28:56Z</time>
      </trkpt>
      <trkpt lat="43.43432" lon="6.63429">
        <ele>84.73</ele>
        <time>2025-04-05T07:29:10Z</time>
      </trkpt>
      <trkpt lat="43.43423" lon="6.6341">
        <ele>84.73</ele>
        <time>2025-04-05T07:29:25Z</time>
      </trkpt>
      <trkpt lat="43.43414" lon="6.63398">
        <ele>87.14</ele>
        <time>2025-04-05T07:29:42Z</time>
      </trkpt>
      <trkpt lat="43.43408" lon="6.63399">
        <ele>87.14</ele>
        <time>2025-04-05T07:29:56Z</time>
      </trkpt>
      <trkpt lat="43.43403" lon="6.63399">
        <ele>87.14</ele>
        <time>2025-04-05T07:30:01Z</time>
      </trkpt>
      <trkpt lat="43.43389" lon="6.634">
        <ele>88.58</ele>
        <time>2025-04-05T07:30:16Z</time>
      </trkpt>
      <trkpt lat="43.4338" lon="6.63398">
        <ele>91.46</ele>
        <time>2025-04-05T07:30:30Z</time>
      </trkpt>
      <trkpt lat="43.43375" lon="6.63401">
        <ele>91.94</ele>
        <time>2025-04-05T07:30:41Z</time>
      </trkpt>
      <trkpt lat="43.43369" lon="6.63402">
        <ele>92.42</ele>
        <time>2025-04-05T07:30:54Z</time>
      </trkpt>
      <trkpt lat="43.43362" lon="6.63406">
        <ele>90.02</ele>
        <time>2025-04-05T07:31:09Z</time>
      </trkpt>
      <trkpt lat="43.43361" lon="6.63402">
        <ele>89.54</ele>
        <time>2025-04-05T07:31:23Z</time>
      </trkpt>
      <trkpt lat="43.43361" lon="6.63406">
        <ele>89.54</ele>
        <time>2025-04-05T07:31:45Z</time>
      </trkpt>
      <trkpt lat="43.43362" lon="6.63405">
        <ele>91.46</ele>
        <time>2025-04-05T07:31:47Z</time>
      </trkpt>
      <trkpt lat="43.43369" lon="6.63399">
        <ele>92.42</ele>
        <time>2025-04-05T07:32:02Z</time>
      </trkpt>
      <trkpt lat="43.43375" lon="6.63394">
        <ele>92.42</ele>
        <time>2025-04-05T07:32:09Z</time>
      </trkpt>
      <trkpt lat="43.43379" lon="6.63385">
        <ele>90.98</ele>
        <time>2025-04-05T07:32:16Z</time>
      </trkpt>
      <trkpt lat="43.43379" lon="6.63381">
        <ele>90.02</ele>
        <time>2025-04-05T07:32:19Z</time>
      </trkpt>
      <trkpt lat="43.43377" lon="6.6337">
        <ele>89.06</ele>
        <time>2025-04-05T07:33:10Z</time>
      </trkpt>
      <trkpt lat="43.43374" lon="6.63366">
        <ele>87.62</ele>
        <time>2025-04-05T07:33:15Z</time>
      </trkpt>
      <trkpt lat="43.43373" lon="6.63365">
        <ele>87.62</ele>
        <time>2025-04-05T07:33:16Z</time>
      </trkpt>
      <trkpt lat="43.43372" lon="6.63363">
        <ele>87.14</ele>
        <time>2025-04-05T07:33:17Z</time>
      </trkpt>
      <trkpt lat="43.43372" lon="6.63363">
        <ele>87.14</ele>
        <time>2025-04-05T07:33:18Z</time>
      </trkpt>
      <trkpt lat="43.43371" lon="6.6336">
        <ele>86.66</ele>
        <time>2025-04-05T07:33:19Z</time>
      </trkpt>
      <trkpt lat="43.43368" lon="6.63355">
        <ele>86.18</ele>
        <time>2025-04-05T07:33:24Z</time>
      </trkpt>
      <trkpt lat="43.43366" lon="6.63349">
        <ele>84.73</ele>
        <time>2025-04-05T07:33:28Z</time>
      </trkpt>
      <trkpt lat="43.43366" lon="6.63348">
        <ele>84.73</ele>
        <time>2025-04-05T07:33:29Z</time>
      </trkpt>
      <trkpt lat="43.43366" lon="6.63346">
        <ele>84.25</ele>
        <time>2025-04-05T07:33:30Z</time>
      </trkpt>
      <trkpt lat="43.43366" lon="6.63344">
        <ele>84.25</ele>
        <time>2025-04-05T07:33:31Z</time>
      </trkpt>
      <trkpt lat="43.43365" lon="6.63338">
        <ele>83.29</ele>
        <time>2025-04-05T07:33:35Z</time>
      </trkpt>
      <trkpt lat="43.43363" lon="6.63323">
        <ele>80.89</ele>
        <time>2025-04-05T07:33:47Z</time>
      </trkpt>
      <trkpt lat="43.43361" lon="6.63308">
        <ele>77.52</ele>
        <time>2025-04-05T07:33:58Z</time>
      </trkpt>
      <trkpt lat="43.43358" lon="6.63298">
        <ele>76.08</ele>
        <time>2025-04-05T07:34:13Z</time>
      </trkpt>
      <trkpt lat="43.43356" lon="6.63292">
        <ele>75.12</ele>
        <time>2025-04-05T07:34:17Z</time>
      </trkpt>
      <trkpt lat="43.43355" lon="6.63286">
        <ele>74.64</ele>
        <time>2025-04-05T07:34:31Z</time>
      </trkpt>
      <trkpt lat="43.43355" lon="6.63286">
        <ele>75.6</ele>
        <time>2025-04-05T07:34:42Z</time>
      </trkpt>
      <trkpt lat="43.43352" lon="6.63275">
        <ele>73.68</ele>
        <time>2025-04-05T07:34:53Z</time>
      </trkpt>
      <trkpt lat="43.4335" lon="6.6327">
        <ele>72.24</ele>
        <time>2025-04-05T07:34:58Z</time>
      </trkpt>
      <trkpt lat="43.43345" lon="6.63257">
        <ele>71.27</ele>
        <time>2025-04-05T07:35:08Z</time>
      </trkpt>
      <trkpt lat="43.43345" lon="6.63255">
        <ele>71.27</ele>
        <time>2025-04-05T07:35:09Z</time>
      </trkpt>
      <trkpt lat="43.43344" lon="6.63252">
        <ele>70.79</ele>
        <time>2025-04-05T07:35:11Z</time>
      </trkpt>
      <trkpt lat="43.43344" lon="6.63251">
        <ele>70.31</ele>
        <time>2025-04-05T07:35:12Z</time>
      </trkpt>
      <trkpt lat="43.43343" lon="6.6325">
        <ele>70.31</ele>
        <time>2025-04-05T07:35:13Z</time>
      </trkpt>
      <trkpt lat="43.43342" lon="6.63249">
        <ele>70.31</ele>
        <time>2025-04-05T07:35:14Z</time>
      </trkpt>
      <trkpt lat="43.4334" lon="6.63233">
        <ele>67.91</ele>
        <time>2025-04-05T07:35:26Z</time>
      </trkpt>
      <trkpt lat="43.4334" lon="6.63231">
        <ele>67.91</ele>
        <time>2025-04-05T07:35:27Z</time>
      </trkpt>
      <trkpt lat="43.43344" lon="6.63211">
        <ele>65.51</ele>
        <time>2025-04-05T07:35:41Z</time>
      </trkpt>
      <trkpt lat="43.43346" lon="6.63204">
        <ele>64.55</ele>
        <time>2025-04-05T07:35:47Z</time>
      </trkpt>
      <trkpt lat="43.43347" lon="6.63203">
        <ele>64.07</ele>
        <time>2025-04-05T07:35:48Z</time>
      </trkpt>
      <trkpt lat="43.43348" lon="6.63185">
        <ele>63.1</ele>
        <time>2025-04-05T07:35:59Z</time>
      </trkpt>
      <trkpt lat="43.43348" lon="6.6317">
        <ele>62.14</ele>
        <time>2025-04-05T07:36:07Z</time>
      </trkpt>
      <trkpt lat="43.43348" lon="6.63168">
        <ele>62.14</ele>
        <time>2025-04-05T07:36:08Z</time>
      </trkpt>
      <trkpt lat="43.43349" lon="6.63167">
        <ele>62.14</ele>
        <time>2025-04-05T07:36:09Z</time>
      </trkpt>
      <trkpt lat="43.43348" lon="6.63146">
        <ele>60.7</ele>
        <time>2025-04-05T07:36:22Z</time>
      </trkpt>
      <trkpt lat="43.43347" lon="6.6313">
        <ele>58.3</ele>
        <time>2025-04-05T07:36:38Z</time>
      </trkpt>
      <trkpt lat="43.43347" lon="6.63128">
        <ele>58.3</ele>
        <time>2025-04-05T07:37:02Z</time>
      </trkpt>
      <trkpt lat="43.43345" lon="6.63119">
        <ele>56.37</ele>
        <time>2025-04-05T07:37:14Z</time>
      </trkpt>
      <trkpt lat="43.43345" lon="6.63117">
        <ele>56.37</ele>
        <time>2025-04-05T07:37:15Z</time>
      </trkpt>
      <trkpt lat="43.43345" lon="6.63116">
        <ele>55.89</ele>
        <time>2025-04-05T07:37:16Z</time>
      </trkpt>
      <trkpt lat="43.43345" lon="6.63114">
        <ele>55.89</ele>
        <time>2025-04-05T07:37:17Z</time>
      </trkpt>
      <trkpt lat="43.43346" lon="6.63101">
        <ele>54.45</ele>
        <time>2025-04-05T07:37:30Z</time>
      </trkpt>
      <trkpt lat="43.43349" lon="6.63086">
        <ele>52.53</ele>
        <time>2025-04-05T07:37:42Z</time>
      </trkpt>
      <trkpt lat="43.43348" lon="6.63084">
        <ele>52.05</ele>
        <time>2025-04-05T07:37:43Z</time>
      </trkpt>
      <trkpt lat="43.43348" lon="6.63082">
        <ele>52.05</ele>
        <time>2025-04-05T07:37:44Z</time>
      </trkpt>
      <trkpt lat="43.43349" lon="6.63063">
        <ele>51.09</ele>
        <time>2025-04-05T07:37:57Z</time>
      </trkpt>
      <trkpt lat="43.43348" lon="6.63057">
        <ele>51.09</ele>
        <time>2025-04-05T07:38:01Z</time>
      </trkpt>
      <trkpt lat="43.43349" lon="6.63055">
        <ele>50.61</ele>
        <time>2025-04-05T07:38:02Z</time>
      </trkpt>
      <trkpt lat="43.43349" lon="6.63051">
        <ele>49.65</ele>
        <time>2025-04-05T07:38:05Z</time>
      </trkpt>
      <trkpt lat="43.43348" lon="6.6305">
        <ele>49.65</ele>
        <time>2025-04-05T07:38:06Z</time>
      </trkpt>
      <trkpt lat="43.43346" lon="6.63031">
        <ele>49.16</ele>
        <time>2025-04-05T07:38:19Z</time>
      </trkpt>
      <trkpt lat="43.43347" lon="6.63028">
        <ele>49.16</ele>
        <time>2025-04-05T07:38:21Z</time>
      </trkpt>
      <trkpt lat="43.43347" lon="6.63026">
        <ele>49.16</ele>
        <time>2025-04-05T07:38:22Z</time>
      </trkpt>
      <trkpt lat="43.43347" lon="6.63025">
        <ele>49.16</ele>
        <time>2025-04-05T07:38:23Z</time>
      </trkpt>
      <trkpt lat="43.43347" lon="6.63023">
        <ele>48.68</ele>
        <time>2025-04-05T07:38:24Z</time>
      </trkpt>
      <trkpt lat="43.43347" lon="6.63021">
        <ele>48.68</ele>
        <time>2025-04-05T07:38:25Z</time>
      </trkpt>
      <trkpt lat="43.43348" lon="6.6302">
        <ele>48.68</ele>
        <time>2025-04-05T07:38:26Z</time>
      </trkpt>
      <trkpt lat="43.43348" lon="6.63018">
        <ele>48.2</ele>
        <time>2025-04-05T07:38:27Z</time>
      </trkpt>
      <trkpt lat="43.43348" lon="6.63016">
        <ele>48.2</ele>
        <time>2025-04-05T07:38:28Z</time>
      </trkpt>
      <trkpt lat="43.43349" lon="6.63013">
        <ele>48.2</ele>
        <time>2025-04-05T07:38:30Z</time>
      </trkpt>
      <trkpt lat="43.43349" lon="6.63011">
        <ele>47.72</ele>
        <time>2025-04-05T07:38:31Z</time>
      </trkpt>
      <trkpt lat="43.43352" lon="6.62988">
        <ele>46.28</ele>
        <time>2025-04-05T07:38:46Z</time>
      </trkpt>
      <trkpt lat="43.43354" lon="6.62968">
        <ele>44.36</ele>
        <time>2025-04-05T07:38:59Z</time>
      </trkpt>
      <trkpt lat="43.43354" lon="6.62952">
        <ele>42.44</ele>
        <time>2025-04-05T07:39:10Z</time>
      </trkpt>
      <trkpt lat="43.43354" lon="6.62947">
        <ele>42.44</ele>
        <time>2025-04-05T07:39:14Z</time>
      </trkpt>
      <trkpt lat="43.43356" lon="6.62937">
        <ele>41.47</ele>
        <time>2025-04-05T07:39:20Z</time>
      </trkpt>
      <trkpt lat="43.43356" lon="6.62935">
        <ele>40.99</ele>
        <time>2025-04-05T07:39:21Z</time>
      </trkpt>
      <trkpt lat="43.43356" lon="6.62934">
        <ele>40.99</ele>
        <time>2025-04-05T07:39:22Z</time>
      </trkpt>
      <trkpt lat="43.43356" lon="6.62932">
        <ele>40.99</ele>
        <time>2025-04-05T07:39:23Z</time>
      </trkpt>
      <trkpt lat="43.43357" lon="6.62926">
        <ele>40.51</ele>
        <time>2025-04-05T07:39:28Z</time>
      </trkpt>
      <trkpt lat="43.43361" lon="6.62916">
        <ele>38.59</ele>
        <time>2025-04-05T07:39:41Z</time>
      </trkpt>
      <trkpt lat="43.43361" lon="6.62908">
        <ele>37.63</ele>
        <time>2025-04-05T07:39:47Z</time>
      </trkpt>
      <trkpt lat="43.43362" lon="6.62901">
        <ele>37.15</ele>
        <time>2025-04-05T07:40:01Z</time>
      </trkpt>
      <trkpt lat="43.43366" lon="6.62896">
        <ele>37.15</ele>
        <time>2025-04-05T07:40:14Z</time>
      </trkpt>
      <trkpt lat="43.43369" lon="6.62891">
        <ele>37.15</ele>
        <time>2025-04-05T07:40:19Z</time>
      </trkpt>
      <trkpt lat="43.43376" lon="6.62882">
        <ele>38.59</ele>
        <time>2025-04-05T07:40:28Z</time>
      </trkpt>
      <trkpt lat="43.4338" lon="6.62872">
        <ele>40.03</ele>
        <time>2025-04-05T07:40:41Z</time>
      </trkpt>
      <trkpt lat="43.43378" lon="6.62864">
        <ele>40.51</ele>
        <time>2025-04-05T07:40:56Z</time>
      </trkpt>
      <trkpt lat="43.43376" lon="6.62864">
        <ele>31.86</ele>
        <time>2025-04-05T07:41:02Z</time>
      </trkpt>
      <trkpt lat="43.43376" lon="6.62864">
        <ele>40.99</ele>
        <time>2025-04-05T07:41:03Z</time>
      </trkpt>
      <trkpt lat="43.43377" lon="6.62863">
        <ele>42.44</ele>
        <time>2025-04-05T07:41:17Z</time>
      </trkpt>
      <trkpt lat="43.43377" lon="6.62861">
        <ele>40.99</ele>
        <time>2025-04-05T07:41:19Z</time>
      </trkpt>
      <trkpt lat="43.43378" lon="6.6285">
        <ele>42.44</ele>
        <time>2025-04-05T07:41:30Z</time>
      </trkpt>
      <trkpt lat="43.43376" lon="6.62837">
        <ele>45.32</ele>
        <time>2025-04-05T07:41:45Z</time>
      </trkpt>
      <trkpt lat="43.43375" lon="6.62834">
        <ele>45.8</ele>
        <time>2025-04-05T07:41:47Z</time>
      </trkpt>
      <trkpt lat="43.43369" lon="6.62825">
        <ele>48.2</ele>
        <time>2025-04-05T07:42:00Z</time>
      </trkpt>
      <trkpt lat="43.43361" lon="6.62811">
        <ele>50.61</ele>
        <time>2025-04-05T07:42:15Z</time>
      </trkpt>
      <trkpt lat="43.43356" lon="6.62797">
        <ele>52.53</ele>
        <time>2025-04-05T07:42:29Z</time>
      </trkpt>
      <trkpt lat="43.43356" lon="6.62782">
        <ele>54.93</ele>
        <time>2025-04-05T07:42:43Z</time>
      </trkpt>
      <trkpt lat="43.43355" lon="6.6277">
        <ele>57.34</ele>
        <time>2025-04-05T07:42:57Z</time>
      </trkpt>
      <trkpt lat="43.43355" lon="6.62765">
        <ele>57.82</ele>
        <time>2025-04-05T07:43:01Z</time>
      </trkpt>
      <trkpt lat="43.43353" lon="6.62752">
        <ele>59.74</ele>
        <time>2025-04-05T07:43:15Z</time>
      </trkpt>
      <trkpt lat="43.4335" lon="6.62742">
        <ele>61.18</ele>
        <time>2025-04-05T07:43:25Z</time>
      </trkpt>
      <trkpt lat="43.43343" lon="6.62734">
        <ele>62.62</ele>
        <time>2025-04-05T07:43:38Z</time>
      </trkpt>
      <trkpt lat="43.43337" lon="6.62721">
        <ele>64.07</ele>
        <time>2025-04-05T07:43:51Z</time>
      </trkpt>
      <trkpt lat="43.43337" lon="6.62703">
        <ele>66.47</ele>
        <time>2025-04-05T07:44:05Z</time>
      </trkpt>
      <trkpt lat="43.43336" lon="6.62693">
        <ele>68.39</ele>
        <time>2025-04-05T07:44:14Z</time>
      </trkpt>
      <trkpt lat="43.43335" lon="6.62688">
        <ele>68.39</ele>
        <time>2025-04-05T07:44:21Z</time>
      </trkpt>
      <trkpt lat="43.43332" lon="6.6268">
        <ele>68.87</ele>
        <time>2025-04-05T07:44:29Z</time>
      </trkpt>
      <trkpt lat="43.4333" lon="6.62679">
        <ele>68.87</ele>
        <time>2025-04-05T07:44:30Z</time>
      </trkpt>
      <trkpt lat="43.43321" lon="6.62666">
        <ele>68.87</ele>
        <time>2025-04-05T07:44:42Z</time>
      </trkpt>
      <trkpt lat="43.43321" lon="6.62665">
        <ele>68.87</ele>
        <time>2025-04-05T07:44:43Z</time>
      </trkpt>
      <trkpt lat="43.4332" lon="6.62663">
        <ele>68.87</ele>
        <time>2025-04-05T07:44:44Z</time>
      </trkpt>
      <trkpt lat="43.43312" lon="6.62642">
        <ele>70.31</ele>
        <time>2025-04-05T07:45:01Z</time>
      </trkpt>
      <trkpt lat="43.43309" lon="6.62624">
        <ele>72.72</ele>
        <time>2025-04-05T07:45:15Z</time>
      </trkpt>
      <trkpt lat="43.43299" lon="6.62613">
        <ele>74.16</ele>
        <time>2025-04-05T07:45:29Z</time>
      </trkpt>
      <trkpt lat="43.43298" lon="6.62612">
        <ele>74.16</ele>
        <time>2025-04-05T07:45:30Z</time>
      </trkpt>
      <trkpt lat="43.43282" lon="6.62599">
        <ele>77.04</ele>
        <time>2025-04-05T07:45:50Z</time>
      </trkpt>
      <trkpt lat="43.43274" lon="6.626">
        <ele>78.97</ele>
        <time>2025-04-05T07:46:04Z</time>
      </trkpt>
      <trkpt lat="43.43264" lon="6.6261">
        <ele>81.85</ele>
        <time>2025-04-05T07:46:19Z</time>
      </trkpt>
      <trkpt lat="43.43262" lon="6.62612">
        <ele>82.33</ele>
        <time>2025-04-05T07:46:21Z</time>
      </trkpt>
      <trkpt lat="43.43255" lon="6.62624">
        <ele>83.77</ele>
        <time>2025-04-05T07:46:36Z</time>
      </trkpt>
      <trkpt lat="43.43252" lon="6.62627">
        <ele>84.73</ele>
        <time>2025-04-05T07:46:41Z</time>
      </trkpt>
      <trkpt lat="43.43243" lon="6.62625">
        <ele>85.69</ele>
        <time>2025-04-05T07:46:50Z</time>
      </trkpt>
      <trkpt lat="43.43237" lon="6.62618">
        <ele>88.1</ele>
        <time>2025-04-05T07:47:03Z</time>
      </trkpt>
      <trkpt lat="43.43235" lon="6.62616">
        <ele>88.1</ele>
        <time>2025-04-05T07:47:21Z</time>
      </trkpt>
      <trkpt lat="43.43232" lon="6.6261">
        <ele>88.1</ele>
        <time>2025-04-05T07:47:26Z</time>
      </trkpt>
      <trkpt lat="43.43231" lon="6.62609">
        <ele>88.1</ele>
        <time>2025-04-05T07:47:27Z</time>
      </trkpt>
      <trkpt lat="43.4323" lon="6.62608">
        <ele>88.1</ele>
        <time>2025-04-05T07:47:28Z</time>
      </trkpt>
      <trkpt lat="43.43229" lon="6.62606">
        <ele>88.1</ele>
        <time>2025-04-05T07:47:29Z</time>
      </trkpt>
      <trkpt lat="43.43228" lon="6.62605">
        <ele>88.1</ele>
        <time>2025-04-05T07:47:30Z</time>
      </trkpt>
      <trkpt lat="43.43219" lon="6.62582">
        <ele>89.06</ele>
        <time>2025-04-05T07:47:46Z</time>
      </trkpt>
      <trkpt lat="43.43212" lon="6.62556">
        <ele>90.5</ele>
        <time>2025-04-05T07:48:03Z</time>
      </trkpt>
      <trkpt lat="43.43213" lon="6.62544">
        <ele>90.98</ele>
        <time>2025-04-05T07:48:10Z</time>
      </trkpt>
      <trkpt lat="43.43214" lon="6.6254">
        <ele>91.46</ele>
        <time>2025-04-05T07:48:13Z</time>
      </trkpt>
      <trkpt lat="43.43219" lon="6.62513">
        <ele>92.42</ele>
        <time>2025-04-05T07:48:30Z</time>
      </trkpt>
      <trkpt lat="43.4322" lon="6.625">
        <ele>93.87</ele>
        <time>2025-04-05T07:48:39Z</time>
      </trkpt>
      <trkpt lat="43.4322" lon="6.62498">
        <ele>94.35</ele>
        <time>2025-04-05T07:48:40Z</time>
      </trkpt>
      <trkpt lat="43.43218" lon="6.62486">
        <ele>95.31</ele>
        <time>2025-04-05T07:48:53Z</time>
      </trkpt>
      <trkpt lat="43.43213" lon="6.62483">
        <ele>95.79</ele>
        <time>2025-04-05T07:49:04Z</time>
      </trkpt>
      <trkpt lat="43.43202" lon="6.62478">
        <ele>96.27</ele>
        <time>2025-04-05T07:49:15Z</time>
      </trkpt>
      <trkpt lat="43.43201" lon="6.62478">
        <ele>96.27</ele>
        <time>2025-04-05T07:49:16Z</time>
      </trkpt>
      <trkpt lat="43.43199" lon="6.62478">
        <ele>96.27</ele>
        <time>2025-04-05T07:49:17Z</time>
      </trkpt>
      <trkpt lat="43.43198" lon="6.62478">
        <ele>96.27</ele>
        <time>2025-04-05T07:49:18Z</time>
      </trkpt>
      <trkpt lat="43.43197" lon="6.62478">
        <ele>96.75</ele>
        <time>2025-04-05T07:49:19Z</time>
      </trkpt>
      <trkpt lat="43.43196" lon="6.62478">
        <ele>96.75</ele>
        <time>2025-04-05T07:49:20Z</time>
      </trkpt>
      <trkpt lat="43.43174" lon="6.62479">
        <ele>97.71</ele>
        <time>2025-04-05T07:49:38Z</time>
      </trkpt>
      <trkpt lat="43.43172" lon="6.62479">
        <ele>98.19</ele>
        <time>2025-04-05T07:49:39Z</time>
      </trkpt>
      <trkpt lat="43.43171" lon="6.62479">
        <ele>98.19</ele>
        <time>2025-04-05T07:49:40Z</time>
      </trkpt>
      <trkpt lat="43.4317" lon="6.62479">
        <ele>98.19</ele>
        <time>2025-04-05T07:49:41Z</time>
      </trkpt>
      <trkpt lat="43.43153" lon="6.62466">
        <ele>98.67</ele>
        <time>2025-04-05T07:49:56Z</time>
      </trkpt>
      <trkpt lat="43.43146" lon="6.62459">
        <ele>99.15</ele>
        <time>2025-04-05T07:50:14Z</time>
      </trkpt>
      <trkpt lat="43.43139" lon="6.62455">
        <ele>99.63</ele>
        <time>2025-04-05T07:50:42Z</time>
      </trkpt>
      <trkpt lat="43.43138" lon="6.62454">
        <ele>99.63</ele>
        <time>2025-04-05T07:50:43Z</time>
      </trkpt>
      <trkpt lat="43.43132" lon="6.62443">
        <ele>100.11</ele>
        <time>2025-04-05T07:50:52Z</time>
      </trkpt>
      <trkpt lat="43.4313" lon="6.62435">
        <ele>101.56</ele>
        <time>2025-04-05T07:50:58Z</time>
      </trkpt>
      <trkpt lat="43.43129" lon="6.62434">
        <ele>101.56</ele>
        <time>2025-04-05T07:50:59Z</time>
      </trkpt>
      <trkpt lat="43.43128" lon="6.62433">
        <ele>101.56</ele>
        <time>2025-04-05T07:51:00Z</time>
      </trkpt>
      <trkpt lat="43.43113" lon="6.62422">
        <ele>104.44</ele>
        <time>2025-04-05T07:51:16Z</time>
      </trkpt>
      <trkpt lat="43.43095" lon="6.62415">
        <ele>106.36</ele>
        <time>2025-04-05T07:51:33Z</time>
      </trkpt>
      <trkpt lat="43.43072" lon="6.6241">
        <ele>106.84</ele>
        <time>2025-04-05T07:51:52Z</time>
      </trkpt>
      <trkpt lat="43.43052" lon="6.62407">
        <ele>107.81</ele>
        <time>2025-04-05T07:52:09Z</time>
      </trkpt>
      <trkpt lat="43.43039" lon="6.62402">
        <ele>108.29</ele>
        <time>2025-04-05T07:52:20Z</time>
      </trkpt>
      <trkpt lat="43.43038" lon="6.62401">
        <ele>108.29</ele>
        <time>2025-04-05T07:52:21Z</time>
      </trkpt>
      <trkpt lat="43.43037" lon="6.62401">
        <ele>108.29</ele>
        <time>2025-04-05T07:52:22Z</time>
      </trkpt>
      <trkpt lat="43.43035" lon="6.62401">
        <ele>108.29</ele>
        <time>2025-04-05T07:52:23Z</time>
      </trkpt>
      <trkpt lat="43.43034" lon="6.624">
        <ele>108.29</ele>
        <time>2025-04-05T07:52:24Z</time>
      </trkpt>
      <trkpt lat="43.43033" lon="6.624">
        <ele>108.29</ele>
        <time>2025-04-05T07:52:25Z</time>
      </trkpt>
      <trkpt lat="43.43032" lon="6.62399">
        <ele>108.77</ele>
        <time>2025-04-05T07:52:26Z</time>
      </trkpt>
      <trkpt lat="43.43012" lon="6.62395">
        <ele>109.25</ele>
        <time>2025-04-05T07:52:43Z</time>
      </trkpt>
      <trkpt lat="43.42994" lon="6.62392">
        <ele>110.69</ele>
        <time>2025-04-05T07:52:58Z</time>
      </trkpt>
      <trkpt lat="43.42993" lon="6.62391">
        <ele>110.69</ele>
        <time>2025-04-05T07:52:59Z</time>
      </trkpt>
      <trkpt lat="43.42975" lon="6.62384">
        <ele>112.61</ele>
        <time>2025-04-05T07:53:16Z</time>
      </trkpt>
      <trkpt lat="43.42974" lon="6.62384">
        <ele>112.61</ele>
        <time>2025-04-05T07:53:17Z</time>
      </trkpt>
      <trkpt lat="43.42972" lon="6.62383">
        <ele>112.61</ele>
        <time>2025-04-05T07:53:18Z</time>
      </trkpt>
      <trkpt lat="43.42946" lon="6.62376">
        <ele>113.09</ele>
        <time>2025-04-05T07:53:40Z</time>
      </trkpt>
      <trkpt lat="43.42928" lon="6.62361">
        <ele>113.57</ele>
        <time>2025-04-05T07:53:57Z</time>
      </trkpt>
      <trkpt lat="43.42912" lon="6.62345">
        <ele>115.01</ele>
        <time>2025-04-05T07:54:14Z</time>
      </trkpt>
      <trkpt lat="43.42897" lon="6.62327">
        <ele>116.46</ele>
        <time>2025-04-05T07:54:31Z</time>
      </trkpt>
      <trkpt lat="43.42885" lon="6.62313">
        <ele>116.46</ele>
        <time>2025-04-05T07:54:45Z</time>
      </trkpt>
      <trkpt lat="43.42884" lon="6.62312">
        <ele>116.94</ele>
        <time>2025-04-05T07:54:46Z</time>
      </trkpt>
      <trkpt lat="43.42883" lon="6.62311">
        <ele>116.94</ele>
        <time>2025-04-05T07:54:47Z</time>
      </trkpt>
      <trkpt lat="43.42865" lon="6.62297">
        <ele>117.9</ele>
        <time>2025-04-05T07:55:05Z</time>
      </trkpt>
      <trkpt lat="43.42847" lon="6.62283">
        <ele>119.34</ele>
        <time>2025-04-05T07:55:23Z</time>
      </trkpt>
      <trkpt lat="43.42832" lon="6.6227">
        <ele>119.82</ele>
        <time>2025-04-05T07:55:38Z</time>
      </trkpt>
      <trkpt lat="43.42813" lon="6.62255">
        <ele>120.78</ele>
        <time>2025-04-05T07:55:56Z</time>
      </trkpt>
      <trkpt lat="43.42791" lon="6.62239">
        <ele>121.26</ele>
        <time>2025-04-05T07:56:16Z</time>
      </trkpt>
      <trkpt lat="43.4277" lon="6.62225">
        <ele>121.26</ele>
        <time>2025-04-05T07:56:34Z</time>
      </trkpt>
      <trkpt lat="43.4275" lon="6.62209">
        <ele>121.26</ele>
        <time>2025-04-05T07:56:52Z</time>
      </trkpt>
      <trkpt lat="43.42727" lon="6.62195">
        <ele>122.22</ele>
        <time>2025-04-05T07:57:11Z</time>
      </trkpt>
      <trkpt lat="43.42706" lon="6.62187">
        <ele>123.67</ele>
        <time>2025-04-05T07:57:29Z</time>
      </trkpt>
      <trkpt lat="43.42685" lon="6.62177">
        <ele>123.67</ele>
        <time>2025-04-05T07:57:48Z</time>
      </trkpt>
      <trkpt lat="43.4267" lon="6.62165">
        <ele>122.71</ele>
        <time>2025-04-05T07:58:03Z</time>
      </trkpt>
      <trkpt lat="43.42668" lon="6.62163">
        <ele>122.71</ele>
        <time>2025-04-05T07:58:05Z</time>
      </trkpt>
      <trkpt lat="43.42667" lon="6.62161">
        <ele>122.71</ele>
        <time>2025-04-05T07:58:06Z</time>
      </trkpt>
      <trkpt lat="43.42666" lon="6.6216">
        <ele>122.71</ele>
        <time>2025-04-05T07:58:07Z</time>
      </trkpt>
      <trkpt lat="43.42665" lon="6.62158">
        <ele>122.71</ele>
        <time>2025-04-05T07:58:08Z</time>
      </trkpt>
      <trkpt lat="43.42664" lon="6.62157">
        <ele>122.71</ele>
        <time>2025-04-05T07:58:09Z</time>
      </trkpt>
      <trkpt lat="43.4265" lon="6.62136">
        <ele>124.15</ele>
        <time>2025-04-05T07:58:26Z</time>
      </trkpt>
      <trkpt lat="43.42639" lon="6.62123">
        <ele>125.59</ele>
        <time>2025-04-05T07:58:41Z</time>
      </trkpt>
      <trkpt lat="43.42639" lon="6.62123">
        <ele>124.15</ele>
        <time>2025-04-05T07:58:43Z</time>
      </trkpt>
      <trkpt lat="43.4263" lon="6.62119">
        <ele>123.19</ele>
        <time>2025-04-05T07:59:01Z</time>
      </trkpt>
      <trkpt lat="43.42629" lon="6.62121">
        <ele>123.67</ele>
        <time>2025-04-05T07:59:28Z</time>
      </trkpt>
      <trkpt lat="43.42628" lon="6.6212">
        <ele>123.67</ele>
        <time>2025-04-05T07:59:48Z</time>
      </trkpt>
      <trkpt lat="43.42626" lon="6.6212">
        <ele>123.67</ele>
        <time>2025-04-05T08:00:21Z</time>
      </trkpt>
      <trkpt lat="43.42623" lon="6.62118">
        <ele>123.67</ele>
        <time>2025-04-05T08:00:27Z</time>
      </trkpt>
      <trkpt lat="43.42607" lon="6.62113">
        <ele>123.19</ele>
        <time>2025-04-05T08:00:41Z</time>
      </trkpt>
      <trkpt lat="43.42583" lon="6.62107">
        <ele>122.71</ele>
        <time>2025-04-05T08:00:59Z</time>
      </trkpt>
      <trkpt lat="43.42565" lon="6.62102">
        <ele>123.19</ele>
        <time>2025-04-05T08:01:14Z</time>
      </trkpt>
      <trkpt lat="43.42556" lon="6.62102">
        <ele>124.63</ele>
        <time>2025-04-05T08:01:21Z</time>
      </trkpt>
      <trkpt lat="43.4254" lon="6.62106">
        <ele>124.63</ele>
        <time>2025-04-05T08:01:36Z</time>
      </trkpt>
      <trkpt lat="43.42539" lon="6.62107">
        <ele>123.19</ele>
        <time>2025-04-05T08:01:38Z</time>
      </trkpt>
      <trkpt lat="43.42519" lon="6.62107">
        <ele>121.74</ele>
        <time>2025-04-05T08:01:53Z</time>
      </trkpt>
      <trkpt lat="43.42497" lon="6.62105">
        <ele>121.26</ele>
        <time>2025-04-05T08:02:10Z</time>
      </trkpt>
      <trkpt lat="43.42492" lon="6.62098">
        <ele>121.74</ele>
        <time>2025-04-05T08:04:30Z</time>
      </trkpt>
      <trkpt lat="43.42491" lon="6.62096">
        <ele>121.74</ele>
        <time>2025-04-05T08:04:31Z</time>
      </trkpt>
      <trkpt lat="43.4249" lon="6.62096">
        <ele>121.74</ele>
        <time>2025-04-05T08:04:32Z</time>
      </trkpt>
      <trkpt lat="43.42489" lon="6.62095">
        <ele>121.74</ele>
        <time>2025-04-05T08:04:33Z</time>
      </trkpt>
      <trkpt lat="43.42487" lon="6.62095">
        <ele>121.74</ele>
        <time>2025-04-05T08:04:34Z</time>
      </trkpt>
      <trkpt lat="43.42469" lon="6.62079">
        <ele>121.74</ele>
        <time>2025-04-05T08:04:51Z</time>
      </trkpt>
      <trkpt lat="43.42452" lon="6.62056">
        <ele>122.71</ele>
        <time>2025-04-05T08:05:10Z</time>
      </trkpt>
      <trkpt lat="43.4244" lon="6.62033">
        <ele>124.15</ele>
        <time>2025-04-05T08:05:28Z</time>
      </trkpt>
      <trkpt lat="43.42436" lon="6.6203">
        <ele>124.15</ele>
        <time>2025-04-05T08:05:42Z</time>
      </trkpt>
      <trkpt lat="43.42437" lon="6.62032">
        <ele>122.71</ele>
        <time>2025-04-05T08:05:50Z</time>
      </trkpt>
      <trkpt lat="43.42435" lon="6.62027">
        <ele>122.22</ele>
        <time>2025-04-05T08:06:09Z</time>
      </trkpt>
      <trkpt lat="43.42433" lon="6.62026">
        <ele>122.22</ele>
        <time>2025-04-05T08:06:11Z</time>
      </trkpt>
      <trkpt lat="43.42432" lon="6.62026">
        <ele>122.22</ele>
        <time>2025-04-05T08:06:12Z</time>
      </trkpt>
      <trkpt lat="43.42431" lon="6.62025">
        <ele>122.22</ele>
        <time>2025-04-05T08:06:13Z</time>
      </trkpt>
      <trkpt lat="43.42415" lon="6.62013">
        <ele>124.15</ele>
        <time>2025-04-05T08:06:29Z</time>
      </trkpt>
      <trkpt lat="43.424" lon="6.62004">
        <ele>125.11</ele>
        <time>2025-04-05T08:06:43Z</time>
      </trkpt>
      <trkpt lat="43.42395" lon="6.62002">
        <ele>125.11</ele>
        <time>2025-04-05T08:06:48Z</time>
      </trkpt>
      <trkpt lat="43.42394" lon="6.62002">
        <ele>125.11</ele>
        <time>2025-04-05T08:06:49Z</time>
      </trkpt>
      <trkpt lat="43.42393" lon="6.62002">
        <ele>125.11</ele>
        <time>2025-04-05T08:06:50Z</time>
      </trkpt>
      <trkpt lat="43.42389" lon="6.62002">
        <ele>126.07</ele>
        <time>2025-04-05T08:06:55Z</time>
      </trkpt>
      <trkpt lat="43.42385" lon="6.62005">
        <ele>126.07</ele>
        <time>2025-04-05T08:06:59Z</time>
      </trkpt>
      <trkpt lat="43.42384" lon="6.62005">
        <ele>126.07</ele>
        <time>2025-04-05T08:07:00Z</time>
      </trkpt>
      <trkpt lat="43.42368" lon="6.62013">
        <ele>127.51</ele>
        <time>2025-04-05T08:07:14Z</time>
      </trkpt>
      <trkpt lat="43.42367" lon="6.62013">
        <ele>127.51</ele>
        <time>2025-04-05T08:07:15Z</time>
      </trkpt>
      <trkpt lat="43.4235" lon="6.62025">
        <ele>127.99</ele>
        <time>2025-04-05T08:07:31Z</time>
      </trkpt>
      <trkpt lat="43.42333" lon="6.62035">
        <ele>128.47</ele>
        <time>2025-04-05T08:07:45Z</time>
      </trkpt>
      <trkpt lat="43.4231" lon="6.62044">
        <ele>129.43</ele>
        <time>2025-04-05T08:08:02Z</time>
      </trkpt>
      <trkpt lat="43.42293" lon="6.62047">
        <ele>129.43</ele>
        <time>2025-04-05T08:08:16Z</time>
      </trkpt>
      <trkpt lat="43.42292" lon="6.62048">
        <ele>129.43</ele>
        <time>2025-04-05T08:08:17Z</time>
      </trkpt>
      <trkpt lat="43.4229" lon="6.6205">
        <ele>129.43</ele>
        <time>2025-04-05T08:08:19Z</time>
      </trkpt>
      <trkpt lat="43.42289" lon="6.6205">
        <ele>129.43</ele>
        <time>2025-04-05T08:08:20Z</time>
      </trkpt>
      <trkpt lat="43.42287" lon="6.6205">
        <ele>129.43</ele>
        <time>2025-04-05T08:08:21Z</time>
      </trkpt>
      <trkpt lat="43.42286" lon="6.6205">
        <ele>129.43</ele>
        <time>2025-04-05T08:08:22Z</time>
      </trkpt>
      <trkpt lat="43.42285" lon="6.6205">
        <ele>129.43</ele>
        <time>2025-04-05T08:08:23Z</time>
      </trkpt>
      <trkpt lat="43.42284" lon="6.6205">
        <ele>129.43</ele>
        <time>2025-04-05T08:08:24Z</time>
      </trkpt>
      <trkpt lat="43.42282" lon="6.6205">
        <ele>129.92</ele>
        <time>2025-04-05T08:08:25Z</time>
      </trkpt>
      <trkpt lat="43.42281" lon="6.62051">
        <ele>129.92</ele>
        <time>2025-04-05T08:08:26Z</time>
      </trkpt>
      <trkpt lat="43.42279" lon="6.6205">
        <ele>129.92</ele>
        <time>2025-04-05T08:08:27Z</time>
      </trkpt>
      <trkpt lat="43.4226" lon="6.62051">
        <ele>129.92</ele>
        <time>2025-04-05T08:08:42Z</time>
      </trkpt>
      <trkpt lat="43.42242" lon="6.62046">
        <ele>130.4</ele>
        <time>2025-04-05T08:08:57Z</time>
      </trkpt>
      <trkpt lat="43.42224" lon="6.62038">
        <ele>132.32</ele>
        <time>2025-04-05T08:09:12Z</time>
      </trkpt>
      <trkpt lat="43.4222" lon="6.62035">
        <ele>132.8</ele>
        <time>2025-04-05T08:09:16Z</time>
      </trkpt>
      <trkpt lat="43.42219" lon="6.62035">
        <ele>132.8</ele>
        <time>2025-04-05T08:09:17Z</time>
      </trkpt>
      <trkpt lat="43.42218" lon="6.62034">
        <ele>132.8</ele>
        <time>2025-04-05T08:09:18Z</time>
      </trkpt>
      <trkpt lat="43.42215" lon="6.62032">
        <ele>133.28</ele>
        <time>2025-04-05T08:09:21Z</time>
      </trkpt>
      <trkpt lat="43.42212" lon="6.6203">
        <ele>133.76</ele>
        <time>2025-04-05T08:09:24Z</time>
      </trkpt>
      <trkpt lat="43.42211" lon="6.6203">
        <ele>134.24</ele>
        <time>2025-04-05T08:09:25Z</time>
      </trkpt>
      <trkpt lat="43.42208" lon="6.62028">
        <ele>134.24</ele>
        <time>2025-04-05T08:09:28Z</time>
      </trkpt>
      <trkpt lat="43.42207" lon="6.62027">
        <ele>134.24</ele>
        <time>2025-04-05T08:09:29Z</time>
      </trkpt>
      <trkpt lat="43.42206" lon="6.62027">
        <ele>134.72</ele>
        <time>2025-04-05T08:09:30Z</time>
      </trkpt>
      <trkpt lat="43.42204" lon="6.62026">
        <ele>134.72</ele>
        <time>2025-04-05T08:09:31Z</time>
      </trkpt>
      <trkpt lat="43.42203" lon="6.62026">
        <ele>135.2</ele>
        <time>2025-04-05T08:09:32Z</time>
      </trkpt>
      <trkpt lat="43.42202" lon="6.62025">
        <ele>135.2</ele>
        <time>2025-04-05T08:09:33Z</time>
      </trkpt>
      <trkpt lat="43.42201" lon="6.62024">
        <ele>135.2</ele>
        <time>2025-04-05T08:09:34Z</time>
      </trkpt>
      <trkpt lat="43.42192" lon="6.62021">
        <ele>136.64</ele>
        <time>2025-04-05T08:09:43Z</time>
      </trkpt>
      <trkpt lat="43.4219" lon="6.62021">
        <ele>136.64</ele>
        <time>2025-04-05T08:09:45Z</time>
      </trkpt>
      <trkpt lat="43.42187" lon="6.6202">
        <ele>136.64</ele>
        <time>2025-04-05T08:09:48Z</time>
      </trkpt>
      <trkpt lat="43.42172" lon="6.62014">
        <ele>138.57</ele>
        <time>2025-04-05T08:10:03Z</time>
      </trkpt>
      <trkpt lat="43.42154" lon="6.62012">
        <ele>140.49</ele>
        <time>2025-04-05T08:10:19Z</time>
      </trkpt>
      <trkpt lat="43.42132" lon="6.6201">
        <ele>140.49</ele>
        <time>2025-04-05T08:10:36Z</time>
      </trkpt>
      <trkpt lat="43.42106" lon="6.62">
        <ele>140.49</ele>
        <time>2025-04-05T08:10:56Z</time>
      </trkpt>
      <trkpt lat="43.42088" lon="6.61998">
        <ele>140.49</ele>
        <time>2025-04-05T08:11:09Z</time>
      </trkpt>
      <trkpt lat="43.42087" lon="6.61998">
        <ele>140.49</ele>
        <time>2025-04-05T08:11:10Z</time>
      </trkpt>
      <trkpt lat="43.42085" lon="6.61998">
        <ele>140.49</ele>
        <time>2025-04-05T08:11:11Z</time>
      </trkpt>
      <trkpt lat="43.42084" lon="6.61998">
        <ele>140.49</ele>
        <time>2025-04-05T08:11:12Z</time>
      </trkpt>
      <trkpt lat="43.42082" lon="6.61997">
        <ele>140.49</ele>
        <time>2025-04-05T08:11:13Z</time>
      </trkpt>
      <trkpt lat="43.42054" lon="6.61994">
        <ele>140.49</ele>
        <time>2025-04-05T08:11:32Z</time>
      </trkpt>
      <trkpt lat="43.42032" lon="6.6199">
        <ele>141.45</ele>
        <time>2025-04-05T08:11:50Z</time>
      </trkpt>
      <trkpt lat="43.42007" lon="6.61992">
        <ele>142.89</ele>
        <time>2025-04-05T08:12:10Z</time>
      </trkpt>
      <trkpt lat="43.41996" lon="6.61987">
        <ele>143.37</ele>
        <time>2025-04-05T08:12:25Z</time>
      </trkpt>
      <trkpt lat="43.41994" lon="6.6199">
        <ele>143.85</ele>
        <time>2025-04-05T08:12:29Z</time>
      </trkpt>
      <trkpt lat="43.41983" lon="6.62003">
        <ele>144.82</ele>
        <time>2025-04-05T08:12:42Z</time>
      </trkpt>
      <trkpt lat="43.41967" lon="6.62015">
        <ele>145.78</ele>
        <time>2025-04-05T08:12:56Z</time>
      </trkpt>
      <trkpt lat="43.41952" lon="6.62024">
        <ele>147.22</ele>
        <time>2025-04-05T08:13:11Z</time>
      </trkpt>
      <trkpt lat="43.41945" lon="6.62028">
        <ele>148.18</ele>
        <time>2025-04-05T08:13:17Z</time>
      </trkpt>
      <trkpt lat="43.41942" lon="6.6203">
        <ele>148.66</ele>
        <time>2025-04-05T08:13:21Z</time>
      </trkpt>
      <trkpt lat="43.41929" lon="6.62036">
        <ele>149.14</ele>
        <time>2025-04-05T08:13:33Z</time>
      </trkpt>
      <trkpt lat="43.41914" lon="6.62046">
        <ele>150.1</ele>
        <time>2025-04-05T08:13:47Z</time>
      </trkpt>
      <trkpt lat="43.41895" lon="6.62062">
        <ele>151.06</ele>
        <time>2025-04-05T08:14:04Z</time>
      </trkpt>
      <trkpt lat="43.41877" lon="6.62066">
        <ele>151.54</ele>
        <time>2025-04-05T08:14:18Z</time>
      </trkpt>
      <trkpt lat="43.41857" lon="6.62069">
        <ele>152.03</ele>
        <time>2025-04-05T08:14:35Z</time>
      </trkpt>
      <trkpt lat="43.41839" lon="6.62074">
        <ele>152.99</ele>
        <time>2025-04-05T08:14:50Z</time>
      </trkpt>
      <trkpt lat="43.41822" lon="6.6208">
        <ele>153.47</ele>
        <time>2025-04-05T08:15:05Z</time>
      </trkpt>
      <trkpt lat="43.41803" lon="6.62085">
        <ele>153.47</ele>
        <time>2025-04-05T08:15:20Z</time>
      </trkpt>
      <trkpt lat="43.41787" lon="6.62082">
        <ele>154.43</ele>
        <time>2025-04-05T08:15:34Z</time>
      </trkpt>
      <trkpt lat="43.41773" lon="6.62082">
        <ele>154.91</ele>
        <time>2025-04-05T08:15:44Z</time>
      </trkpt>
      <trkpt lat="43.41772" lon="6.62082">
        <ele>154.91</ele>
        <time>2025-04-05T08:15:45Z</time>
      </trkpt>
      <trkpt lat="43.41771" lon="6.62082">
        <ele>155.39</ele>
        <time>2025-04-05T08:15:46Z</time>
      </trkpt>
      <trkpt lat="43.4177" lon="6.62081">
        <ele>155.39</ele>
        <time>2025-04-05T08:15:47Z</time>
      </trkpt>
      <trkpt lat="43.41769" lon="6.62081">
        <ele>155.39</ele>
        <time>2025-04-05T08:15:48Z</time>
      </trkpt>
      <trkpt lat="43.41762" lon="6.62081">
        <ele>155.39</ele>
        <time>2025-04-05T08:15:54Z</time>
      </trkpt>
      <trkpt lat="43.41755" lon="6.62078">
        <ele>155.87</ele>
        <time>2025-04-05T08:16:01Z</time>
      </trkpt>
      <trkpt lat="43.41753" lon="6.62077">
        <ele>156.35</ele>
        <time>2025-04-05T08:16:03Z</time>
      </trkpt>
      <trkpt lat="43.41752" lon="6.62076">
        <ele>156.35</ele>
        <time>2025-04-05T08:16:04Z</time>
      </trkpt>
      <trkpt lat="43.41751" lon="6.62076">
        <ele>156.35</ele>
        <time>2025-04-05T08:16:05Z</time>
      </trkpt>
      <trkpt lat="43.41737" lon="6.62072">
        <ele>157.79</ele>
        <time>2025-04-05T08:16:20Z</time>
      </trkpt>
      <trkpt lat="43.41726" lon="6.6207">
        <ele>159.24</ele>
        <time>2025-04-05T08:16:31Z</time>
      </trkpt>
      <trkpt lat="43.41711" lon="6.62069">
        <ele>160.2</ele>
        <time>2025-04-05T08:16:45Z</time>
      </trkpt>
      <trkpt lat="43.41697" lon="6.62065">
        <ele>162.12</ele>
        <time>2025-04-05T08:17:00Z</time>
      </trkpt>
      <trkpt lat="43.41685" lon="6.62063">
        <ele>163.08</ele>
        <time>2025-04-05T08:17:12Z</time>
      </trkpt>
      <trkpt lat="43.4167" lon="6.6206">
        <ele>164.04</ele>
        <time>2025-04-05T08:17:27Z</time>
      </trkpt>
      <trkpt lat="43.41657" lon="6.62058">
        <ele>164.52</ele>
        <time>2025-04-05T08:17:41Z</time>
      </trkpt>
      <trkpt lat="43.41647" lon="6.62054">
        <ele>165.48</ele>
        <time>2025-04-05T08:17:51Z</time>
      </trkpt>
      <trkpt lat="43.41646" lon="6.62053">
        <ele>165.48</ele>
        <time>2025-04-05T08:17:52Z</time>
      </trkpt>
      <trkpt lat="43.41645" lon="6.62052">
        <ele>165.48</ele>
        <time>2025-04-05T08:17:53Z</time>
      </trkpt>
      <trkpt lat="43.41641" lon="6.62051">
        <ele>165.48</ele>
        <time>2025-04-05T08:17:57Z</time>
      </trkpt>
      <trkpt lat="43.41636" lon="6.62049">
        <ele>165.96</ele>
        <time>2025-04-05T08:18:02Z</time>
      </trkpt>
      <trkpt lat="43.41635" lon="6.62049">
        <ele>166.45</ele>
        <time>2025-04-05T08:18:03Z</time>
      </trkpt>
      <trkpt lat="43.41618" lon="6.62044">
        <ele>166.93</ele>
        <time>2025-04-05T08:18:18Z</time>
      </trkpt>
      <trkpt lat="43.41604" lon="6.6204">
        <ele>169.33</ele>
        <time>2025-04-05T08:18:32Z</time>
      </trkpt>
      <trkpt lat="43.41591" lon="6.62042">
        <ele>170.77</ele>
        <time>2025-04-05T08:18:45Z</time>
      </trkpt>
      <trkpt lat="43.41583" lon="6.62042">
        <ele>171.73</ele>
        <time>2025-04-05T08:18:54Z</time>
      </trkpt>
      <trkpt lat="43.41581" lon="6.62042">
        <ele>171.73</ele>
        <time>2025-04-05T08:18:56Z</time>
      </trkpt>
      <trkpt lat="43.41565" lon="6.62046">
        <ele>172.69</ele>
        <time>2025-04-05T08:19:12Z</time>
      </trkpt>
      <trkpt lat="43.41562" lon="6.62046">
        <ele>173.66</ele>
        <time>2025-04-05T08:19:15Z</time>
      </trkpt>
      <trkpt lat="43.41549" lon="6.62046">
        <ele>175.58</ele>
        <time>2025-04-05T08:19:30Z</time>
      </trkpt>
      <trkpt lat="43.41549" lon="6.62046">
        <ele>175.58</ele>
        <time>2025-04-05T08:19:31Z</time>
      </trkpt>
      <trkpt lat="43.41547" lon="6.62047">
        <ele>174.62</ele>
        <time>2025-04-05T08:19:52Z</time>
      </trkpt>
      <trkpt lat="43.41544" lon="6.62051">
        <ele>174.14</ele>
        <time>2025-04-05T08:20:17Z</time>
      </trkpt>
      <trkpt lat="43.41543" lon="6.62054">
        <ele>173.66</ele>
        <time>2025-04-05T08:20:36Z</time>
      </trkpt>
      <trkpt lat="43.41539" lon="6.62054">
        <ele>173.17</ele>
        <time>2025-04-05T08:20:55Z</time>
      </trkpt>
      <trkpt lat="43.41527" lon="6.62054">
        <ele>171.73</ele>
        <time>2025-04-05T08:21:10Z</time>
      </trkpt>
      <trkpt lat="43.41523" lon="6.62055">
        <ele>171.25</ele>
        <time>2025-04-05T08:21:14Z</time>
      </trkpt>
      <trkpt lat="43.4152" lon="6.62054">
        <ele>171.25</ele>
        <time>2025-04-05T08:21:17Z</time>
      </trkpt>
      <trkpt lat="43.4151" lon="6.62058">
        <ele>170.29</ele>
        <time>2025-04-05T08:21:31Z</time>
      </trkpt>
      <trkpt lat="43.41508" lon="6.62055">
        <ele>170.29</ele>
        <time>2025-04-05T08:21:45Z</time>
      </trkpt>
      <trkpt lat="43.41508" lon="6.62057">
        <ele>171.25</ele>
        <time>2025-04-05T08:21:53Z</time>
      </trkpt>
      <trkpt lat="43.41497" lon="6.62054">
        <ele>171.73</ele>
        <time>2025-04-05T08:22:09Z</time>
      </trkpt>
      <trkpt lat="43.41484" lon="6.62049">
        <ele>174.62</ele>
        <time>2025-04-05T08:22:25Z</time>
      </trkpt>
      <trkpt lat="43.41473" lon="6.62045">
        <ele>177.02</ele>
        <time>2025-04-05T08:22:44Z</time>
      </trkpt>
      <trkpt lat="43.41463" lon="6.62042">
        <ele>179.42</ele>
        <time>2025-04-05T08:23:00Z</time>
      </trkpt>
      <trkpt lat="43.4145" lon="6.62048">
        <ele>181.35</ele>
        <time>2025-04-05T08:23:19Z</time>
      </trkpt>
      <trkpt lat="43.4144" lon="6.62058">
        <ele>183.27</ele>
        <time>2025-04-05T08:23:36Z</time>
      </trkpt>
      <trkpt lat="43.41435" lon="6.62062">
        <ele>183.75</ele>
        <time>2025-04-05T08:23:41Z</time>
      </trkpt>
      <trkpt lat="43.41434" lon="6.62063">
        <ele>183.75</ele>
        <time>2025-04-05T08:23:42Z</time>
      </trkpt>
      <trkpt lat="43.4142" lon="6.62069">
        <ele>186.15</ele>
        <time>2025-04-05T08:23:57Z</time>
      </trkpt>
      <trkpt lat="43.41415" lon="6.62068">
        <ele>186.63</ele>
        <time>2025-04-05T08:24:13Z</time>
      </trkpt>
      <trkpt lat="43.41408" lon="6.62066">
        <ele>186.63</ele>
        <time>2025-04-05T08:24:22Z</time>
      </trkpt>
      <trkpt lat="43.41403" lon="6.62066">
        <ele>185.19</ele>
        <time>2025-04-05T08:24:27Z</time>
      </trkpt>
      <trkpt lat="43.41382" lon="6.6206">
        <ele>185.67</ele>
        <time>2025-04-05T08:24:46Z</time>
      </trkpt>
      <trkpt lat="43.41379" lon="6.62058">
        <ele>186.63</ele>
        <time>2025-04-05T08:24:49Z</time>
      </trkpt>
      <trkpt lat="43.41375" lon="6.62057">
        <ele>187.11</ele>
        <time>2025-04-05T08:25:02Z</time>
      </trkpt>
      <trkpt lat="43.41378" lon="6.6206">
        <ele>187.59</ele>
        <time>2025-04-05T08:25:38Z</time>
      </trkpt>
      <trkpt lat="43.41373" lon="6.6206">
        <ele>187.59</ele>
        <time>2025-04-05T08:26:02Z</time>
      </trkpt>
      <trkpt lat="43.41364" lon="6.62058">
        <ele>188.08</ele>
        <time>2025-04-05T08:26:24Z</time>
      </trkpt>
      <trkpt lat="43.41352" lon="6.62056">
        <ele>188.56</ele>
        <time>2025-04-05T08:26:41Z</time>
      </trkpt>
      <trkpt lat="43.41344" lon="6.62057">
        <ele>189.04</ele>
        <time>2025-04-05T08:27:02Z</time>
      </trkpt>
      <trkpt lat="43.41337" lon="6.62062">
        <ele>190.96</ele>
        <time>2025-04-05T08:27:20Z</time>
      </trkpt>
      <trkpt lat="43.41325" lon="6.62063">
        <ele>194.32</ele>
        <time>2025-04-05T08:27:36Z</time>
      </trkpt>
      <trkpt lat="43.41312" lon="6.62068">
        <ele>197.21</ele>
        <time>2025-04-05T08:27:52Z</time>
      </trkpt>
      <trkpt lat="43.41297" lon="6.62074">
        <ele>199.61</ele>
        <time>2025-04-05T08:28:11Z</time>
      </trkpt>
      <trkpt lat="43.41281" lon="6.62081">
        <ele>200.57</ele>
        <time>2025-04-05T08:28:29Z</time>
      </trkpt>
      <trkpt lat="43.41263" lon="6.62072">
        <ele>203.46</ele>
        <time>2025-04-05T08:28:48Z</time>
      </trkpt>
      <trkpt lat="43.41256" lon="6.62082">
        <ele>205.86</ele>
        <time>2025-04-05T08:29:06Z</time>
      </trkpt>
      <trkpt lat="43.41247" lon="6.62098">
        <ele>209.22</ele>
        <time>2025-04-05T08:29:24Z</time>
      </trkpt>
      <trkpt lat="43.41235" lon="6.62109">
        <ele>211.63</ele>
        <time>2025-04-05T08:29:42Z</time>
      </trkpt>
      <trkpt lat="43.4123" lon="6.62114">
        <ele>212.59</ele>
        <time>2025-04-05T08:30:08Z</time>
      </trkpt>
      <trkpt lat="43.41226" lon="6.6212">
        <ele>214.51</ele>
        <time>2025-04-05T08:30:15Z</time>
      </trkpt>
      <trkpt lat="43.41213" lon="6.6213">
        <ele>216.91</ele>
        <time>2025-04-05T08:30:31Z</time>
      </trkpt>
      <trkpt lat="43.41196" lon="6.62138">
        <ele>219.8</ele>
        <time>2025-04-05T08:30:52Z</time>
      </trkpt>
      <trkpt lat="43.41188" lon="6.62138">
        <ele>220.76</ele>
        <time>2025-04-05T08:31:00Z</time>
      </trkpt>
      <trkpt lat="43.41171" lon="6.62139">
        <ele>223.16</ele>
        <time>2025-04-05T08:31:19Z</time>
      </trkpt>
      <trkpt lat="43.41155" lon="6.62139">
        <ele>224.61</ele>
        <time>2025-04-05T08:31:36Z</time>
      </trkpt>
      <trkpt lat="43.4114" lon="6.62149">
        <ele>227.97</ele>
        <time>2025-04-05T08:31:54Z</time>
      </trkpt>
      <trkpt lat="43.41139" lon="6.62149">
        <ele>227.97</ele>
        <time>2025-04-05T08:31:55Z</time>
      </trkpt>
      <trkpt lat="43.4112" lon="6.62143">
        <ele>228.93</ele>
        <time>2025-04-05T08:32:12Z</time>
      </trkpt>
      <trkpt lat="43.41104" lon="6.62138">
        <ele>229.41</ele>
        <time>2025-04-05T08:32:30Z</time>
      </trkpt>
      <trkpt lat="43.41096" lon="6.62138">
        <ele>229.41</ele>
        <time>2025-04-05T08:32:48Z</time>
      </trkpt>
      <trkpt lat="43.41092" lon="6.62139">
        <ele>227.97</ele>
        <time>2025-04-05T08:32:54Z</time>
      </trkpt>
      <trkpt lat="43.41087" lon="6.62133">
        <ele>229.41</ele>
        <time>2025-04-05T08:33:00Z</time>
      </trkpt>
      <trkpt lat="43.41082" lon="6.62125">
        <ele>229.89</ele>
        <time>2025-04-05T08:33:15Z</time>
      </trkpt>
      <trkpt lat="43.41072" lon="6.62111">
        <ele>230.85</ele>
        <time>2025-04-05T08:33:31Z</time>
      </trkpt>
      <trkpt lat="43.41057" lon="6.62096">
        <ele>231.81</ele>
        <time>2025-04-05T08:33:48Z</time>
      </trkpt>
      <trkpt lat="43.41045" lon="6.62084">
        <ele>232.78</ele>
        <time>2025-04-05T08:34:00Z</time>
      </trkpt>
      <trkpt lat="43.41043" lon="6.62081">
        <ele>232.78</ele>
        <time>2025-04-05T08:34:03Z</time>
      </trkpt>
      <trkpt lat="43.41027" lon="6.62075">
        <ele>234.22</ele>
        <time>2025-04-05T08:34:21Z</time>
      </trkpt>
      <trkpt lat="43.41012" lon="6.62082">
        <ele>237.1</ele>
        <time>2025-04-05T08:34:37Z</time>
      </trkpt>
      <trkpt lat="43.41005" lon="6.62087">
        <ele>239.02</ele>
        <time>2025-04-05T08:34:51Z</time>
      </trkpt>
      <trkpt lat="43.41003" lon="6.62092">
        <ele>240.95</ele>
        <time>2025-04-05T08:35:06Z</time>
      </trkpt>
      <trkpt lat="43.40986" lon="6.62098">
        <ele>243.35</ele>
        <time>2025-04-05T08:35:23Z</time>
      </trkpt>
      <trkpt lat="43.40971" lon="6.6209">
        <ele>245.75</ele>
        <time>2025-04-05T08:35:39Z</time>
      </trkpt>
      <trkpt lat="43.40964" lon="6.62073">
        <ele>246.72</ele>
        <time>2025-04-05T08:35:52Z</time>
      </trkpt>
      <trkpt lat="43.40955" lon="6.62054">
        <ele>247.68</ele>
        <time>2025-04-05T08:36:09Z</time>
      </trkpt>
      <trkpt lat="43.40942" lon="6.62045">
        <ele>248.64</ele>
        <time>2025-04-05T08:36:26Z</time>
      </trkpt>
      <trkpt lat="43.40929" lon="6.62035">
        <ele>249.6</ele>
        <time>2025-04-05T08:36:41Z</time>
      </trkpt>
      <trkpt lat="43.40919" lon="6.6203">
        <ele>250.56</ele>
        <time>2025-04-05T08:36:54Z</time>
      </trkpt>
      <trkpt lat="43.40914" lon="6.62022">
        <ele>251.04</ele>
        <time>2025-04-05T08:37:07Z</time>
      </trkpt>
      <trkpt lat="43.409" lon="6.62015">
        <ele>253.93</ele>
        <time>2025-04-05T08:37:22Z</time>
      </trkpt>
      <trkpt lat="43.4089" lon="6.62019">
        <ele>256.33</ele>
        <time>2025-04-05T08:37:39Z</time>
      </trkpt>
      <trkpt lat="43.4088" lon="6.62019">
        <ele>258.25</ele>
        <time>2025-04-05T08:37:54Z</time>
      </trkpt>
      <trkpt lat="43.40871" lon="6.62024">
        <ele>261.62</ele>
        <time>2025-04-05T08:38:11Z</time>
      </trkpt>
      <trkpt lat="43.40861" lon="6.6203">
        <ele>263.54</ele>
        <time>2025-04-05T08:38:26Z</time>
      </trkpt>
      <trkpt lat="43.40854" lon="6.62038">
        <ele>265.46</ele>
        <time>2025-04-05T08:38:40Z</time>
      </trkpt>
      <trkpt lat="43.40843" lon="6.62049">
        <ele>267.38</ele>
        <time>2025-04-05T08:38:56Z</time>
      </trkpt>
      <trkpt lat="43.40836" lon="6.62055">
        <ele>268.35</ele>
        <time>2025-04-05T08:39:09Z</time>
      </trkpt>
      <trkpt lat="43.40827" lon="6.62054">
        <ele>269.79</ele>
        <time>2025-04-05T08:39:22Z</time>
      </trkpt>
      <trkpt lat="43.40819" lon="6.62058">
        <ele>271.71</ele>
        <time>2025-04-05T08:39:37Z</time>
      </trkpt>
      <trkpt lat="43.40813" lon="6.62062">
        <ele>274.11</ele>
        <time>2025-04-05T08:39:51Z</time>
      </trkpt>
      <trkpt lat="43.40806" lon="6.62069">
        <ele>276.04</ele>
        <time>2025-04-05T08:40:05Z</time>
      </trkpt>
      <trkpt lat="43.408" lon="6.62076">
        <ele>277.96</ele>
        <time>2025-04-05T08:40:20Z</time>
      </trkpt>
      <trkpt lat="43.40792" lon="6.62081">
        <ele>279.4</ele>
        <time>2025-04-05T08:40:32Z</time>
      </trkpt>
      <trkpt lat="43.4078" lon="6.62088">
        <ele>281.8</ele>
        <time>2025-04-05T08:40:49Z</time>
      </trkpt>
      <trkpt lat="43.40773" lon="6.62088">
        <ele>282.77</ele>
        <time>2025-04-05T08:41:01Z</time>
      </trkpt>
      <trkpt lat="43.40766" lon="6.62092">
        <ele>284.21</ele>
        <time>2025-04-05T08:41:13Z</time>
      </trkpt>
      <trkpt lat="43.40759" lon="6.62096">
        <ele>285.65</ele>
        <time>2025-04-05T08:41:27Z</time>
      </trkpt>
      <trkpt lat="43.4075" lon="6.62099">
        <ele>288.05</ele>
        <time>2025-04-05T08:41:42Z</time>
      </trkpt>
      <trkpt lat="43.40739" lon="6.62094">
        <ele>288.53</ele>
        <time>2025-04-05T08:41:54Z</time>
      </trkpt>
      <trkpt lat="43.40735" lon="6.62091">
        <ele>289.97</ele>
        <time>2025-04-05T08:42:11Z</time>
      </trkpt>
      <trkpt lat="43.40735" lon="6.62092">
        <ele>288.53</ele>
        <time>2025-04-05T08:42:22Z</time>
      </trkpt>
      <trkpt lat="43.40718" lon="6.62087">
        <ele>290.94</ele>
        <time>2025-04-05T08:42:41Z</time>
      </trkpt>
      <trkpt lat="43.40705" lon="6.6209">
        <ele>293.82</ele>
        <time>2025-04-05T08:42:59Z</time>
      </trkpt>
      <trkpt lat="43.40693" lon="6.62092">
        <ele>295.74</ele>
        <time>2025-04-05T08:43:16Z</time>
      </trkpt>
      <trkpt lat="43.40682" lon="6.62091">
        <ele>296.22</ele>
        <time>2025-04-05T08:43:30Z</time>
      </trkpt>
      <trkpt lat="43.4067" lon="6.6209">
        <ele>297.67</ele>
        <time>2025-04-05T08:43:46Z</time>
      </trkpt>
      <trkpt lat="43.40659" lon="6.62089">
        <ele>300.07</ele>
        <time>2025-04-05T08:44:07Z</time>
      </trkpt>
      <trkpt lat="43.40651" lon="6.62095">
        <ele>302.47</ele>
        <time>2025-04-05T08:44:27Z</time>
      </trkpt>
      <trkpt lat="43.40647" lon="6.621">
        <ele>305.36</ele>
        <time>2025-04-05T08:44:45Z</time>
      </trkpt>
      <trkpt lat="43.40645" lon="6.62099">
        <ele>304.88</ele>
        <time>2025-04-05T08:44:53Z</time>
      </trkpt>
      <trkpt lat="43.40644" lon="6.62101">
        <ele>304.88</ele>
        <time>2025-04-05T08:45:12Z</time>
      </trkpt>
      <trkpt lat="43.40636" lon="6.62107">
        <ele>307.28</ele>
        <time>2025-04-05T08:45:28Z</time>
      </trkpt>
      <trkpt lat="43.4063" lon="6.62112">
        <ele>309.68</ele>
        <time>2025-04-05T08:45:44Z</time>
      </trkpt>
      <trkpt lat="43.40623" lon="6.62116">
        <ele>311.6</ele>
        <time>2025-04-05T08:45:58Z</time>
      </trkpt>
      <trkpt lat="43.40619" lon="6.62119">
        <ele>313.53</ele>
        <time>2025-04-05T08:46:12Z</time>
      </trkpt>
      <trkpt lat="43.40614" lon="6.62124">
        <ele>315.93</ele>
        <time>2025-04-05T08:46:27Z</time>
      </trkpt>
      <trkpt lat="43.40612" lon="6.62129">
        <ele>317.85</ele>
        <time>2025-04-05T08:46:41Z</time>
      </trkpt>
      <trkpt lat="43.40608" lon="6.62133">
        <ele>319.78</ele>
        <time>2025-04-05T08:46:55Z</time>
      </trkpt>
      <trkpt lat="43.40604" lon="6.62137">
        <ele>321.7</ele>
        <time>2025-04-05T08:47:08Z</time>
      </trkpt>
      <trkpt lat="43.40597" lon="6.62139">
        <ele>324.58</ele>
        <time>2025-04-05T08:47:22Z</time>
      </trkpt>
      <trkpt lat="43.40597" lon="6.62142">
        <ele>321.7</ele>
        <time>2025-04-05T08:47:39Z</time>
      </trkpt>
      <trkpt lat="43.40597" lon="6.62141">
        <ele>326.02</ele>
        <time>2025-04-05T08:47:41Z</time>
      </trkpt>
      <trkpt lat="43.40597" lon="6.62141">
        <ele>325.06</ele>
        <time>2025-04-05T08:47:42Z</time>
      </trkpt>
      <trkpt lat="43.40597" lon="6.62138">
        <ele>325.06</ele>
        <time>2025-04-05T08:48:01Z</time>
      </trkpt>
      <trkpt lat="43.40597" lon="6.62139">
        <ele>326.02</ele>
        <time>2025-04-05T08:48:03Z</time>
      </trkpt>
      <trkpt lat="43.4059" lon="6.62145">
        <ele>327.95</ele>
        <time>2025-04-05T08:48:19Z</time>
      </trkpt>
      <trkpt lat="43.4058" lon="6.62147">
        <ele>331.31</ele>
        <time>2025-04-05T08:48:36Z</time>
      </trkpt>
      <trkpt lat="43.40574" lon="6.62148">
        <ele>333.23</ele>
        <time>2025-04-05T08:48:52Z</time>
      </trkpt>
      <trkpt lat="43.40564" lon="6.62147">
        <ele>335.64</ele>
        <time>2025-04-05T08:49:08Z</time>
      </trkpt>
      <trkpt lat="43.40556" lon="6.62146">
        <ele>337.08</ele>
        <time>2025-04-05T08:49:22Z</time>
      </trkpt>
      <trkpt lat="43.40548" lon="6.62149">
        <ele>339.48</ele>
        <time>2025-04-05T08:49:40Z</time>
      </trkpt>
      <trkpt lat="43.4054" lon="6.62149">
        <ele>341.41</ele>
        <time>2025-04-05T08:49:56Z</time>
      </trkpt>
      <trkpt lat="43.40534" lon="6.62153">
        <ele>343.33</ele>
        <time>2025-04-05T08:50:11Z</time>
      </trkpt>
      <trkpt lat="43.4053" lon="6.62157">
        <ele>345.25</ele>
        <time>2025-04-05T08:50:28Z</time>
      </trkpt>
      <trkpt lat="43.40526" lon="6.62161">
        <ele>347.65</ele>
        <time>2025-04-05T08:50:40Z</time>
      </trkpt>
      <trkpt lat="43.4052" lon="6.62163">
        <ele>349.1</ele>
        <time>2025-04-05T08:50:55Z</time>
      </trkpt>
      <trkpt lat="43.40515" lon="6.62168">
        <ele>351.02</ele>
        <time>2025-04-05T08:51:12Z</time>
      </trkpt>
      <trkpt lat="43.40513" lon="6.62171">
        <ele>352.94</ele>
        <time>2025-04-05T08:51:26Z</time>
      </trkpt>
      <trkpt lat="43.40509" lon="6.62173">
        <ele>354.86</ele>
        <time>2025-04-05T08:51:42Z</time>
      </trkpt>
      <trkpt lat="43.40501" lon="6.62176">
        <ele>357.75</ele>
        <time>2025-04-05T08:52:02Z</time>
      </trkpt>
      <trkpt lat="43.40495" lon="6.62179">
        <ele>360.15</ele>
        <time>2025-04-05T08:52:19Z</time>
      </trkpt>
      <trkpt lat="43.40491" lon="6.62181">
        <ele>362.07</ele>
        <time>2025-04-05T08:52:36Z</time>
      </trkpt>
      <trkpt lat="43.40487" lon="6.62183">
        <ele>364</ele>
        <time>2025-04-05T08:52:51Z</time>
      </trkpt>
      <trkpt lat="43.40482" lon="6.62186">
        <ele>365.44</ele>
        <time>2025-04-05T08:53:05Z</time>
      </trkpt>
      <trkpt lat="43.40478" lon="6.6219">
        <ele>367.84</ele>
        <time>2025-04-05T08:53:19Z</time>
      </trkpt>
      <trkpt lat="43.40474" lon="6.62192">
        <ele>369.76</ele>
        <time>2025-04-05T08:53:33Z</time>
      </trkpt>
      <trkpt lat="43.40473" lon="6.62193">
        <ele>373.13</ele>
        <time>2025-04-05T08:55:03Z</time>
      </trkpt>
      <trkpt lat="43.40473" lon="6.62197">
        <ele>375.05</ele>
        <time>2025-04-05T08:55:13Z</time>
      </trkpt>
      <trkpt lat="43.40475" lon="6.62206">
        <ele>377.45</ele>
        <time>2025-04-05T08:55:28Z</time>
      </trkpt>
      <trkpt lat="43.40467" lon="6.62208">
        <ele>379.38</ele>
        <time>2025-04-05T08:55:44Z</time>
      </trkpt>
      <trkpt lat="43.4046" lon="6.62205">
        <ele>381.3</ele>
        <time>2025-04-05T08:56:00Z</time>
      </trkpt>
      <trkpt lat="43.40446" lon="6.62202">
        <ele>384.18</ele>
        <time>2025-04-05T08:56:17Z</time>
      </trkpt>
      <trkpt lat="43.40432" lon="6.62198">
        <ele>386.11</ele>
        <time>2025-04-05T08:56:35Z</time>
      </trkpt>
      <trkpt lat="43.40423" lon="6.62188">
        <ele>388.03</ele>
        <time>2025-04-05T08:56:51Z</time>
      </trkpt>
      <trkpt lat="43.40413" lon="6.62186">
        <ele>389.95</ele>
        <time>2025-04-05T08:57:07Z</time>
      </trkpt>
      <trkpt lat="43.40408" lon="6.62186">
        <ele>390.91</ele>
        <time>2025-04-05T08:57:15Z</time>
      </trkpt>
      <trkpt lat="43.40403" lon="6.62185">
        <ele>391.39</ele>
        <time>2025-04-05T08:57:20Z</time>
      </trkpt>
      <trkpt lat="43.40388" lon="6.62186">
        <ele>391.39</ele>
        <time>2025-04-05T08:57:37Z</time>
      </trkpt>
      <trkpt lat="43.40388" lon="6.62186">
        <ele>391.39</ele>
        <time>2025-04-05T08:57:38Z</time>
      </trkpt>
      <trkpt lat="43.40383" lon="6.62177">
        <ele>390.91</ele>
        <time>2025-04-05T08:57:51Z</time>
      </trkpt>
      <trkpt lat="43.40383" lon="6.62176">
        <ele>390.91</ele>
        <time>2025-04-05T08:57:52Z</time>
      </trkpt>
      <trkpt lat="43.40384" lon="6.62171">
        <ele>393.32</ele>
        <time>2025-04-05T09:03:12Z</time>
      </trkpt>
      <trkpt lat="43.40381" lon="6.62158">
        <ele>394.76</ele>
        <time>2025-04-05T09:03:36Z</time>
      </trkpt>
      <trkpt lat="43.4038" lon="6.62149">
        <ele>394.76</ele>
        <time>2025-04-05T09:04:02Z</time>
      </trkpt>
      <trkpt lat="43.4038" lon="6.62139">
        <ele>396.68</ele>
        <time>2025-04-05T09:04:14Z</time>
      </trkpt>
      <trkpt lat="43.40382" lon="6.62127">
        <ele>399.57</ele>
        <time>2025-04-05T09:04:28Z</time>
      </trkpt>
      <trkpt lat="43.4038" lon="6.62125">
        <ele>400.53</ele>
        <time>2025-04-05T09:04:44Z</time>
      </trkpt>
      <trkpt lat="43.40377" lon="6.62125">
        <ele>400.53</ele>
        <time>2025-04-05T09:05:14Z</time>
      </trkpt>
      <trkpt lat="43.40377" lon="6.62117">
        <ele>402.45</ele>
        <time>2025-04-05T09:05:28Z</time>
      </trkpt>
      <trkpt lat="43.40377" lon="6.62106">
        <ele>405.81</ele>
        <time>2025-04-05T09:05:42Z</time>
      </trkpt>
      <trkpt lat="43.40377" lon="6.62098">
        <ele>407.74</ele>
        <time>2025-04-05T09:05:56Z</time>
      </trkpt>
      <trkpt lat="43.40377" lon="6.62089">
        <ele>409.66</ele>
        <time>2025-04-05T09:06:10Z</time>
      </trkpt>
      <trkpt lat="43.40376" lon="6.62082">
        <ele>412.54</ele>
        <time>2025-04-05T09:06:23Z</time>
      </trkpt>
      <trkpt lat="43.40374" lon="6.62078">
        <ele>413.02</ele>
        <time>2025-04-05T09:06:34Z</time>
      </trkpt>
      <trkpt lat="43.40371" lon="6.62074">
        <ele>415.43</ele>
        <time>2025-04-05T09:06:50Z</time>
      </trkpt>
      <trkpt lat="43.40371" lon="6.62068">
        <ele>416.87</ele>
        <time>2025-04-05T09:07:03Z</time>
      </trkpt>
      <trkpt lat="43.40368" lon="6.62063">
        <ele>418.79</ele>
        <time>2025-04-05T09:07:18Z</time>
      </trkpt>
      <trkpt lat="43.40366" lon="6.62058">
        <ele>420.23</ele>
        <time>2025-04-05T09:07:33Z</time>
      </trkpt>
      <trkpt lat="43.40364" lon="6.62051">
        <ele>422.16</ele>
        <time>2025-04-05T09:07:49Z</time>
      </trkpt>
      <trkpt lat="43.40362" lon="6.62045">
        <ele>424.56</ele>
        <time>2025-04-05T09:08:05Z</time>
      </trkpt>
      <trkpt lat="43.4036" lon="6.6204">
        <ele>425.04</ele>
        <time>2025-04-05T09:08:19Z</time>
      </trkpt>
      <trkpt lat="43.40357" lon="6.62033">
        <ele>427.44</ele>
        <time>2025-04-05T09:08:33Z</time>
      </trkpt>
      <trkpt lat="43.40354" lon="6.62026">
        <ele>428.4</ele>
        <time>2025-04-05T09:08:46Z</time>
      </trkpt>
      <trkpt lat="43.40351" lon="6.62026">
        <ele>430.33</ele>
        <time>2025-04-05T09:09:00Z</time>
      </trkpt>
      <trkpt lat="43.40346" lon="6.6202">
        <ele>432.25</ele>
        <time>2025-04-05T09:09:15Z</time>
      </trkpt>
      <trkpt lat="43.40343" lon="6.62011">
        <ele>434.17</ele>
        <time>2025-04-05T09:09:31Z</time>
      </trkpt>
      <trkpt lat="43.40341" lon="6.62003">
        <ele>436.58</ele>
        <time>2025-04-05T09:09:46Z</time>
      </trkpt>
      <trkpt lat="43.40341" lon="6.61997">
        <ele>437.06</ele>
        <time>2025-04-05T09:09:58Z</time>
      </trkpt>
      <trkpt lat="43.4034" lon="6.61993">
        <ele>438.98</ele>
        <time>2025-04-05T09:10:11Z</time>
      </trkpt>
      <trkpt lat="43.40339" lon="6.6199">
        <ele>440.9</ele>
        <time>2025-04-05T09:10:28Z</time>
      </trkpt>
      <trkpt lat="43.40338" lon="6.61988">
        <ele>441.38</ele>
        <time>2025-04-05T09:10:47Z</time>
      </trkpt>
      <trkpt lat="43.40334" lon="6.61983">
        <ele>441.86</ele>
        <time>2025-04-05T09:11:05Z</time>
      </trkpt>
      <trkpt lat="43.40333" lon="6.6198">
        <ele>443.31</ele>
        <time>2025-04-05T09:11:17Z</time>
      </trkpt>
      <trkpt lat="43.40328" lon="6.61977">
        <ele>444.75</ele>
        <time>2025-04-05T09:11:31Z</time>
      </trkpt>
      <trkpt lat="43.40325" lon="6.6197">
        <ele>446.67</ele>
        <time>2025-04-05T09:11:47Z</time>
      </trkpt>
      <trkpt lat="43.40321" lon="6.61964">
        <ele>449.07</ele>
        <time>2025-04-05T09:12:02Z</time>
      </trkpt>
      <trkpt lat="43.4032" lon="6.6196">
        <ele>450.03</ele>
        <time>2025-04-05T09:12:16Z</time>
      </trkpt>
      <trkpt lat="43.40318" lon="6.61952">
        <ele>452.44</ele>
        <time>2025-04-05T09:12:32Z</time>
      </trkpt>
      <trkpt lat="43.40316" lon="6.61945">
        <ele>453.88</ele>
        <time>2025-04-05T09:12:46Z</time>
      </trkpt>
      <trkpt lat="43.40311" lon="6.61942">
        <ele>456.28</ele>
        <time>2025-04-05T09:13:00Z</time>
      </trkpt>
      <trkpt lat="43.40308" lon="6.61933">
        <ele>457.72</ele>
        <time>2025-04-05T09:13:17Z</time>
      </trkpt>
      <trkpt lat="43.40304" lon="6.61926">
        <ele>460.13</ele>
        <time>2025-04-05T09:13:35Z</time>
      </trkpt>
      <trkpt lat="43.40302" lon="6.61919">
        <ele>461.57</ele>
        <time>2025-04-05T09:13:50Z</time>
      </trkpt>
      <trkpt lat="43.40299" lon="6.61911">
        <ele>464.93</ele>
        <time>2025-04-05T09:14:08Z</time>
      </trkpt>
      <trkpt lat="43.40297" lon="6.61906">
        <ele>466.86</ele>
        <time>2025-04-05T09:14:21Z</time>
      </trkpt>
      <trkpt lat="43.40294" lon="6.61903">
        <ele>468.3</ele>
        <time>2025-04-05T09:14:40Z</time>
      </trkpt>
      <trkpt lat="43.4029" lon="6.61896">
        <ele>470.22</ele>
        <time>2025-04-05T09:14:57Z</time>
      </trkpt>
      <trkpt lat="43.40288" lon="6.61887">
        <ele>472.14</ele>
        <time>2025-04-05T09:15:12Z</time>
      </trkpt>
      <trkpt lat="43.40286" lon="6.61881">
        <ele>473.59</ele>
        <time>2025-04-05T09:15:28Z</time>
      </trkpt>
      <trkpt lat="43.40286" lon="6.61872">
        <ele>475.99</ele>
        <time>2025-04-05T09:15:43Z</time>
      </trkpt>
      <trkpt lat="43.40283" lon="6.61867">
        <ele>478.39</ele>
        <time>2025-04-05T09:16:00Z</time>
      </trkpt>
      <trkpt lat="43.40283" lon="6.61853">
        <ele>480.32</ele>
        <time>2025-04-05T09:16:19Z</time>
      </trkpt>
      <trkpt lat="43.40286" lon="6.61841">
        <ele>482.24</ele>
        <time>2025-04-05T09:16:35Z</time>
      </trkpt>
      <trkpt lat="43.40287" lon="6.61832">
        <ele>485.12</ele>
        <time>2025-04-05T09:16:50Z</time>
      </trkpt>
      <trkpt lat="43.40288" lon="6.61827">
        <ele>487.05</ele>
        <time>2025-04-05T09:17:07Z</time>
      </trkpt>
      <trkpt lat="43.40285" lon="6.61825">
        <ele>483.68</ele>
        <time>2025-04-05T09:17:19Z</time>
      </trkpt>
      <trkpt lat="43.40285" lon="6.61825">
        <ele>492.33</ele>
        <time>2025-04-05T09:17:20Z</time>
      </trkpt>
      <trkpt lat="43.40285" lon="6.61825">
        <ele>488.97</ele>
        <time>2025-04-05T09:17:21Z</time>
      </trkpt>
      <trkpt lat="43.40285" lon="6.61824">
        <ele>488.01</ele>
        <time>2025-04-05T09:17:23Z</time>
      </trkpt>
      <trkpt lat="43.40285" lon="6.61824">
        <ele>489.45</ele>
        <time>2025-04-05T09:17:27Z</time>
      </trkpt>
      <trkpt lat="43.40285" lon="6.61819">
        <ele>487.05</ele>
        <time>2025-04-05T09:17:44Z</time>
      </trkpt>
      <trkpt lat="43.40286" lon="6.61813">
        <ele>488.97</ele>
        <time>2025-04-05T09:17:59Z</time>
      </trkpt>
      <trkpt lat="43.4028" lon="6.61808">
        <ele>491.85</ele>
        <time>2025-04-05T09:18:16Z</time>
      </trkpt>
      <trkpt lat="43.40275" lon="6.61796">
        <ele>494.26</ele>
        <time>2025-04-05T09:18:32Z</time>
      </trkpt>
      <trkpt lat="43.40273" lon="6.61787">
        <ele>496.18</ele>
        <time>2025-04-05T09:18:47Z</time>
      </trkpt>
      <trkpt lat="43.40268" lon="6.61775">
        <ele>497.62</ele>
        <time>2025-04-05T09:19:03Z</time>
      </trkpt>
      <trkpt lat="43.40262" lon="6.61759">
        <ele>500.5</ele>
        <time>2025-04-05T09:19:20Z</time>
      </trkpt>
      <trkpt lat="43.40258" lon="6.61745">
        <ele>503.87</ele>
        <time>2025-04-05T09:19:38Z</time>
      </trkpt>
      <trkpt lat="43.40254" lon="6.61732">
        <ele>505.79</ele>
        <time>2025-04-05T09:19:53Z</time>
      </trkpt>
      <trkpt lat="43.40249" lon="6.61713">
        <ele>506.75</ele>
        <time>2025-04-05T09:20:07Z</time>
      </trkpt>
      <trkpt lat="43.40244" lon="6.617">
        <ele>506.75</ele>
        <time>2025-04-05T09:20:22Z</time>
      </trkpt>
      <trkpt lat="43.4024" lon="6.61699">
        <ele>506.75</ele>
        <time>2025-04-05T09:20:55Z</time>
      </trkpt>
      <trkpt lat="43.40239" lon="6.61697">
        <ele>505.79</ele>
        <time>2025-04-05T09:21:04Z</time>
      </trkpt>
      <trkpt lat="43.40238" lon="6.61696">
        <ele>505.79</ele>
        <time>2025-04-05T09:21:06Z</time>
      </trkpt>
      <trkpt lat="43.40226" lon="6.61678">
        <ele>507.23</ele>
        <time>2025-04-05T09:21:24Z</time>
      </trkpt>
      <trkpt lat="43.40225" lon="6.61677">
        <ele>507.23</ele>
        <time>2025-04-05T09:21:25Z</time>
      </trkpt>
      <trkpt lat="43.4021" lon="6.61658">
        <ele>509.16</ele>
        <time>2025-04-05T09:21:44Z</time>
      </trkpt>
      <trkpt lat="43.40197" lon="6.61644">
        <ele>511.08</ele>
        <time>2025-04-05T09:22:00Z</time>
      </trkpt>
      <trkpt lat="43.40184" lon="6.61627">
        <ele>513.96</ele>
        <time>2025-04-05T09:22:19Z</time>
      </trkpt>
      <trkpt lat="43.40182" lon="6.61619">
        <ele>514.92</ele>
        <time>2025-04-05T09:22:35Z</time>
      </trkpt>
      <trkpt lat="43.40176" lon="6.61611">
        <ele>515.4</ele>
        <time>2025-04-05T09:22:51Z</time>
      </trkpt>
      <trkpt lat="43.40158" lon="6.61593">
        <ele>516.37</ele>
        <time>2025-04-05T09:23:11Z</time>
      </trkpt>
      <trkpt lat="43.40143" lon="6.61574">
        <ele>517.33</ele>
        <time>2025-04-05T09:23:27Z</time>
      </trkpt>
      <trkpt lat="43.40142" lon="6.61554">
        <ele>515.4</ele>
        <time>2025-04-05T09:23:41Z</time>
      </trkpt>
      <trkpt lat="43.40142" lon="6.61534">
        <ele>513</ele>
        <time>2025-04-05T09:23:55Z</time>
      </trkpt>
      <trkpt lat="43.40137" lon="6.61515">
        <ele>509.64</ele>
        <time>2025-04-05T09:24:08Z</time>
      </trkpt>
      <trkpt lat="43.4013" lon="6.61495">
        <ele>507.23</ele>
        <time>2025-04-05T09:24:22Z</time>
      </trkpt>
      <trkpt lat="43.40129" lon="6.61468">
        <ele>505.79</ele>
        <time>2025-04-05T09:24:39Z</time>
      </trkpt>
      <trkpt lat="43.40129" lon="6.61465">
        <ele>505.79</ele>
        <time>2025-04-05T09:24:56Z</time>
      </trkpt>
      <trkpt lat="43.40127" lon="6.61463">
        <ele>505.79</ele>
        <time>2025-04-05T09:25:17Z</time>
      </trkpt>
      <trkpt lat="43.40122" lon="6.61444">
        <ele>505.31</ele>
        <time>2025-04-05T09:25:33Z</time>
      </trkpt>
      <trkpt lat="43.40122" lon="6.61442">
        <ele>505.31</ele>
        <time>2025-04-05T09:25:34Z</time>
      </trkpt>
      <trkpt lat="43.40117" lon="6.61424">
        <ele>502.91</ele>
        <time>2025-04-05T09:25:48Z</time>
      </trkpt>
      <trkpt lat="43.40114" lon="6.61419">
        <ele>501.46</ele>
        <time>2025-04-05T09:25:52Z</time>
      </trkpt>
      <trkpt lat="43.40107" lon="6.61392">
        <ele>499.54</ele>
        <time>2025-04-05T09:26:10Z</time>
      </trkpt>
      <trkpt lat="43.40109" lon="6.61366">
        <ele>499.54</ele>
        <time>2025-04-05T09:26:25Z</time>
      </trkpt>
      <trkpt lat="43.40109" lon="6.61359">
        <ele>499.54</ele>
        <time>2025-04-05T09:26:29Z</time>
      </trkpt>
      <trkpt lat="43.40108" lon="6.61325">
        <ele>500.98</ele>
        <time>2025-04-05T09:26:49Z</time>
      </trkpt>
      <trkpt lat="43.40108" lon="6.61308">
        <ele>504.35</ele>
        <time>2025-04-05T09:27:04Z</time>
      </trkpt>
      <trkpt lat="43.4011" lon="6.61288">
        <ele>507.23</ele>
        <time>2025-04-05T09:27:23Z</time>
      </trkpt>
      <trkpt lat="43.40111" lon="6.61287">
        <ele>508.19</ele>
        <time>2025-04-05T09:27:39Z</time>
      </trkpt>
      <trkpt lat="43.40115" lon="6.61273">
        <ele>508.67</ele>
        <time>2025-04-05T09:27:54Z</time>
      </trkpt>
      <trkpt lat="43.40112" lon="6.61259">
        <ele>510.6</ele>
        <time>2025-04-05T09:28:05Z</time>
      </trkpt>
      <trkpt lat="43.40102" lon="6.61243">
        <ele>512.04</ele>
        <time>2025-04-05T09:28:20Z</time>
      </trkpt>
      <trkpt lat="43.40097" lon="6.61226">
        <ele>513.48</ele>
        <time>2025-04-05T09:28:35Z</time>
      </trkpt>
      <trkpt lat="43.40097" lon="6.61211">
        <ele>513.96</ele>
        <time>2025-04-05T09:28:45Z</time>
      </trkpt>
      <trkpt lat="43.40096" lon="6.61204">
        <ele>513.96</ele>
        <time>2025-04-05T09:28:49Z</time>
      </trkpt>
      <trkpt lat="43.40096" lon="6.61187">
        <ele>512.52</ele>
        <time>2025-04-05T09:29:01Z</time>
      </trkpt>
      <trkpt lat="43.40095" lon="6.61186">
        <ele>512.52</ele>
        <time>2025-04-05T09:29:02Z</time>
      </trkpt>
      <trkpt lat="43.40092" lon="6.61181">
        <ele>512.04</ele>
        <time>2025-04-05T09:29:08Z</time>
      </trkpt>
      <trkpt lat="43.40089" lon="6.61173">
        <ele>511.08</ele>
        <time>2025-04-05T09:29:14Z</time>
      </trkpt>
      <trkpt lat="43.40079" lon="6.61154">
        <ele>507.23</ele>
        <time>2025-04-05T09:29:31Z</time>
      </trkpt>
      <trkpt lat="43.4007" lon="6.6113">
        <ele>504.83</ele>
        <time>2025-04-05T09:29:48Z</time>
      </trkpt>
      <trkpt lat="43.40069" lon="6.61118">
        <ele>503.39</ele>
        <time>2025-04-05T09:29:55Z</time>
      </trkpt>
      <trkpt lat="43.40071" lon="6.61086">
        <ele>500.02</ele>
        <time>2025-04-05T09:30:14Z</time>
      </trkpt>
      <trkpt lat="43.4007" lon="6.61068">
        <ele>496.66</ele>
        <time>2025-04-05T09:30:28Z</time>
      </trkpt>
      <trkpt lat="43.40069" lon="6.61065">
        <ele>496.18</ele>
        <time>2025-04-05T09:30:32Z</time>
      </trkpt>
      <trkpt lat="43.40068" lon="6.61052">
        <ele>493.77</ele>
        <time>2025-04-05T09:30:44Z</time>
      </trkpt>
      <trkpt lat="43.40066" lon="6.61045">
        <ele>492.81</ele>
        <time>2025-04-05T09:30:50Z</time>
      </trkpt>
      <trkpt lat="43.40065" lon="6.61028">
        <ele>488.97</ele>
        <time>2025-04-05T09:31:03Z</time>
      </trkpt>
      <trkpt lat="43.40065" lon="6.61025">
        <ele>488.01</ele>
        <time>2025-04-05T09:31:05Z</time>
      </trkpt>
      <trkpt lat="43.40065" lon="6.61018">
        <ele>487.05</ele>
        <time>2025-04-05T09:31:16Z</time>
      </trkpt>
      <trkpt lat="43.40066" lon="6.61008">
        <ele>484.64</ele>
        <time>2025-04-05T09:31:38Z</time>
      </trkpt>
      <trkpt lat="43.40066" lon="6.61003">
        <ele>483.68</ele>
        <time>2025-04-05T09:31:43Z</time>
      </trkpt>
      <trkpt lat="43.40066" lon="6.61001">
        <ele>482.72</ele>
        <time>2025-04-05T09:31:45Z</time>
      </trkpt>
      <trkpt lat="43.40066" lon="6.60989">
        <ele>479.35</ele>
        <time>2025-04-05T09:32:00Z</time>
      </trkpt>
      <trkpt lat="43.40064" lon="6.60977">
        <ele>475.99</ele>
        <time>2025-04-05T09:32:12Z</time>
      </trkpt>
      <trkpt lat="43.40059" lon="6.60947">
        <ele>473.59</ele>
        <time>2025-04-05T09:32:30Z</time>
      </trkpt>
      <trkpt lat="43.40054" lon="6.60917">
        <ele>472.14</ele>
        <time>2025-04-05T09:32:50Z</time>
      </trkpt>
      <trkpt lat="43.40052" lon="6.60903">
        <ele>471.66</ele>
        <time>2025-04-05T09:33:04Z</time>
      </trkpt>
      <trkpt lat="43.40049" lon="6.60893">
        <ele>470.7</ele>
        <time>2025-04-05T09:33:19Z</time>
      </trkpt>
      <trkpt lat="43.40049" lon="6.60884">
        <ele>471.66</ele>
        <time>2025-04-05T09:33:45Z</time>
      </trkpt>
      <trkpt lat="43.40049" lon="6.60861">
        <ele>473.11</ele>
        <time>2025-04-05T09:34:02Z</time>
      </trkpt>
      <trkpt lat="43.40048" lon="6.60841">
        <ele>475.03</ele>
        <time>2025-04-05T09:34:18Z</time>
      </trkpt>
      <trkpt lat="43.40043" lon="6.60841">
        <ele>475.51</ele>
        <time>2025-04-05T09:34:40Z</time>
      </trkpt>
      <trkpt lat="43.40041" lon="6.60831">
        <ele>476.47</ele>
        <time>2025-04-05T09:34:59Z</time>
      </trkpt>
      <trkpt lat="43.40042" lon="6.60807">
        <ele>477.43</ele>
        <time>2025-04-05T09:35:16Z</time>
      </trkpt>
      <trkpt lat="43.4004" lon="6.60801">
        <ele>478.39</ele>
        <time>2025-04-05T09:35:29Z</time>
      </trkpt>
      <trkpt lat="43.40042" lon="6.60795">
        <ele>478.39</ele>
        <time>2025-04-05T09:35:45Z</time>
      </trkpt>
      <trkpt lat="43.40042" lon="6.60787">
        <ele>479.35</ele>
        <time>2025-04-05T09:35:58Z</time>
      </trkpt>
      <trkpt lat="43.40046" lon="6.60777">
        <ele>479.35</ele>
        <time>2025-04-05T09:36:08Z</time>
      </trkpt>
      <trkpt lat="43.40059" lon="6.60761">
        <ele>476.95</ele>
        <time>2025-04-05T09:36:25Z</time>
      </trkpt>
      <trkpt lat="43.40056" lon="6.60744">
        <ele>478.39</ele>
        <time>2025-04-05T09:36:36Z</time>
      </trkpt>
      <trkpt lat="43.40047" lon="6.6071">
        <ele>479.35</ele>
        <time>2025-04-05T09:36:56Z</time>
      </trkpt>
      <trkpt lat="43.40043" lon="6.60699">
        <ele>479.35</ele>
        <time>2025-04-05T09:37:03Z</time>
      </trkpt>
      <trkpt lat="43.40035" lon="6.60673">
        <ele>479.35</ele>
        <time>2025-04-05T09:37:19Z</time>
      </trkpt>
      <trkpt lat="43.40038" lon="6.60645">
        <ele>481.28</ele>
        <time>2025-04-05T09:37:36Z</time>
      </trkpt>
      <trkpt lat="43.40039" lon="6.6064">
        <ele>481.28</ele>
        <time>2025-04-05T09:37:40Z</time>
      </trkpt>
      <trkpt lat="43.40037" lon="6.60612">
        <ele>481.76</ele>
        <time>2025-04-05T09:37:58Z</time>
      </trkpt>
      <trkpt lat="43.40037" lon="6.60603">
        <ele>481.76</ele>
        <time>2025-04-05T09:38:15Z</time>
      </trkpt>
      <trkpt lat="43.40039" lon="6.60606">
        <ele>481.76</ele>
        <time>2025-04-05T09:38:53Z</time>
      </trkpt>
      <trkpt lat="43.40037" lon="6.60596">
        <ele>481.76</ele>
        <time>2025-04-05T09:39:17Z</time>
      </trkpt>
      <trkpt lat="43.40032" lon="6.60567">
        <ele>481.76</ele>
        <time>2025-04-05T09:39:35Z</time>
      </trkpt>
      <trkpt lat="43.4003" lon="6.60551">
        <ele>480.8</ele>
        <time>2025-04-05T09:39:44Z</time>
      </trkpt>
      <trkpt lat="43.40027" lon="6.6052">
        <ele>478.87</ele>
        <time>2025-04-05T09:40:00Z</time>
      </trkpt>
      <trkpt lat="43.40023" lon="6.60494">
        <ele>477.91</ele>
        <time>2025-04-05T09:40:17Z</time>
      </trkpt>
      <trkpt lat="43.40022" lon="6.60488">
        <ele>477.43</ele>
        <time>2025-04-05T09:40:22Z</time>
      </trkpt>
      <trkpt lat="43.40024" lon="6.60465">
        <ele>475.99</ele>
        <time>2025-04-05T09:40:36Z</time>
      </trkpt>
      <trkpt lat="43.40026" lon="6.60457">
        <ele>475.99</ele>
        <time>2025-04-05T09:40:42Z</time>
      </trkpt>
      <trkpt lat="43.40027" lon="6.60434">
        <ele>475.51</ele>
        <time>2025-04-05T09:40:57Z</time>
      </trkpt>
      <trkpt lat="43.40028" lon="6.60428">
        <ele>475.51</ele>
        <time>2025-04-05T09:41:01Z</time>
      </trkpt>
      <trkpt lat="43.40031" lon="6.60403">
        <ele>475.03</ele>
        <time>2025-04-05T09:41:16Z</time>
      </trkpt>
      <trkpt lat="43.40032" lon="6.60396">
        <ele>475.03</ele>
        <time>2025-04-05T09:41:20Z</time>
      </trkpt>
      <trkpt lat="43.40045" lon="6.60386">
        <ele>475.03</ele>
        <time>2025-04-05T09:41:36Z</time>
      </trkpt>
      <trkpt lat="43.40045" lon="6.60376">
        <ele>475.99</ele>
        <time>2025-04-05T09:41:51Z</time>
      </trkpt>
      <trkpt lat="43.40041" lon="6.60367">
        <ele>478.87</ele>
        <time>2025-04-05T09:42:07Z</time>
      </trkpt>
      <trkpt lat="43.40042" lon="6.60362">
        <ele>479.84</ele>
        <time>2025-04-05T09:42:22Z</time>
      </trkpt>
      <trkpt lat="43.40038" lon="6.60358">
        <ele>480.32</ele>
        <time>2025-04-05T09:42:38Z</time>
      </trkpt>
      <trkpt lat="43.40037" lon="6.60355">
        <ele>480.32</ele>
        <time>2025-04-05T09:42:50Z</time>
      </trkpt>
      <trkpt lat="43.40032" lon="6.60348">
        <ele>479.84</ele>
        <time>2025-04-05T09:43:03Z</time>
      </trkpt>
      <trkpt lat="43.40031" lon="6.60341">
        <ele>479.84</ele>
        <time>2025-04-05T09:43:16Z</time>
      </trkpt>
      <trkpt lat="43.40032" lon="6.60336">
        <ele>481.28</ele>
        <time>2025-04-05T09:43:22Z</time>
      </trkpt>
      <trkpt lat="43.40032" lon="6.60326">
        <ele>483.2</ele>
        <time>2025-04-05T09:43:35Z</time>
      </trkpt>
      <trkpt lat="43.40032" lon="6.60315">
        <ele>486.08</ele>
        <time>2025-04-05T09:43:49Z</time>
      </trkpt>
      <trkpt lat="43.4003" lon="6.60306">
        <ele>487.05</ele>
        <time>2025-04-05T09:43:59Z</time>
      </trkpt>
      <trkpt lat="43.40032" lon="6.60295">
        <ele>488.97</ele>
        <time>2025-04-05T09:44:15Z</time>
      </trkpt>
      <trkpt lat="43.40035" lon="6.60288">
        <ele>491.85</ele>
        <time>2025-04-05T09:44:23Z</time>
      </trkpt>
      <trkpt lat="43.40035" lon="6.60286">
        <ele>490.89</ele>
        <time>2025-04-05T09:44:25Z</time>
      </trkpt>
      <trkpt lat="43.40034" lon="6.60282">
        <ele>490.41</ele>
        <time>2025-04-05T09:44:35Z</time>
      </trkpt>
      <trkpt lat="43.40035" lon="6.60278">
        <ele>491.85</ele>
        <time>2025-04-05T09:44:39Z</time>
      </trkpt>
      <trkpt lat="43.40036" lon="6.60269">
        <ele>493.29</ele>
        <time>2025-04-05T09:44:54Z</time>
      </trkpt>
      <trkpt lat="43.40035" lon="6.60258">
        <ele>494.74</ele>
        <time>2025-04-05T09:45:07Z</time>
      </trkpt>
      <trkpt lat="43.40037" lon="6.60247">
        <ele>497.14</ele>
        <time>2025-04-05T09:45:22Z</time>
      </trkpt>
      <trkpt lat="43.40038" lon="6.60229">
        <ele>499.06</ele>
        <time>2025-04-05T09:45:40Z</time>
      </trkpt>
      <trkpt lat="43.40038" lon="6.60228">
        <ele>500.5</ele>
        <time>2025-04-05T09:45:44Z</time>
      </trkpt>
      <trkpt lat="43.40039" lon="6.60223">
        <ele>500.5</ele>
        <time>2025-04-05T09:45:52Z</time>
      </trkpt>
      <trkpt lat="43.40042" lon="6.60212">
        <ele>502.91</ele>
        <time>2025-04-05T09:46:07Z</time>
      </trkpt>
      <trkpt lat="43.40044" lon="6.60203">
        <ele>505.31</ele>
        <time>2025-04-05T09:46:22Z</time>
      </trkpt>
      <trkpt lat="43.40043" lon="6.60194">
        <ele>506.75</ele>
        <time>2025-04-05T09:46:36Z</time>
      </trkpt>
      <trkpt lat="43.40044" lon="6.60183">
        <ele>508.67</ele>
        <time>2025-04-05T09:46:54Z</time>
      </trkpt>
      <trkpt lat="43.40048" lon="6.60169">
        <ele>510.6</ele>
        <time>2025-04-05T09:47:10Z</time>
      </trkpt>
      <trkpt lat="43.40057" lon="6.60166">
        <ele>512.04</ele>
        <time>2025-04-05T09:47:26Z</time>
      </trkpt>
      <trkpt lat="43.40067" lon="6.60165">
        <ele>512.52</ele>
        <time>2025-04-05T09:47:39Z</time>
      </trkpt>
      <trkpt lat="43.40075" lon="6.60168">
        <ele>513</ele>
        <time>2025-04-05T09:47:49Z</time>
      </trkpt>
      <trkpt lat="43.40082" lon="6.60172">
        <ele>512.52</ele>
        <time>2025-04-05T09:47:58Z</time>
      </trkpt>
      <trkpt lat="43.40093" lon="6.60171">
        <ele>512.52</ele>
        <time>2025-04-05T09:48:12Z</time>
      </trkpt>
      <trkpt lat="43.4011" lon="6.60172">
        <ele>512.52</ele>
        <time>2025-04-05T09:48:27Z</time>
      </trkpt>
      <trkpt lat="43.40117" lon="6.60171">
        <ele>512.52</ele>
        <time>2025-04-05T09:48:32Z</time>
      </trkpt>
      <trkpt lat="43.40133" lon="6.6017">
        <ele>512.04</ele>
        <time>2025-04-05T09:48:48Z</time>
      </trkpt>
      <trkpt lat="43.40139" lon="6.60167">
        <ele>511.56</ele>
        <time>2025-04-05T09:48:54Z</time>
      </trkpt>
      <trkpt lat="43.40143" lon="6.60163">
        <ele>511.08</ele>
        <time>2025-04-05T09:48:58Z</time>
      </trkpt>
      <trkpt lat="43.40146" lon="6.6016">
        <ele>510.6</ele>
        <time>2025-04-05T09:49:04Z</time>
      </trkpt>
      <trkpt lat="43.40157" lon="6.60151">
        <ele>510.12</ele>
        <time>2025-04-05T09:49:17Z</time>
      </trkpt>
      <trkpt lat="43.40166" lon="6.60146">
        <ele>510.6</ele>
        <time>2025-04-05T09:49:28Z</time>
      </trkpt>
      <trkpt lat="43.40168" lon="6.60145">
        <ele>510.6</ele>
        <time>2025-04-05T09:49:31Z</time>
      </trkpt>
      <trkpt lat="43.40171" lon="6.60144">
        <ele>511.56</ele>
        <time>2025-04-05T09:49:33Z</time>
      </trkpt>
      <trkpt lat="43.40172" lon="6.60143">
        <ele>511.56</ele>
        <time>2025-04-05T09:49:34Z</time>
      </trkpt>
      <trkpt lat="43.40181" lon="6.60132">
        <ele>511.56</ele>
        <time>2025-04-05T09:49:48Z</time>
      </trkpt>
      <trkpt lat="43.40188" lon="6.60119">
        <ele>512.04</ele>
        <time>2025-04-05T09:50:02Z</time>
      </trkpt>
      <trkpt lat="43.40195" lon="6.6011">
        <ele>514.44</ele>
        <time>2025-04-05T09:50:16Z</time>
      </trkpt>
      <trkpt lat="43.40202" lon="6.60101">
        <ele>516.85</ele>
        <time>2025-04-05T09:50:32Z</time>
      </trkpt>
      <trkpt lat="43.40206" lon="6.60095">
        <ele>518.29</ele>
        <time>2025-04-05T09:50:45Z</time>
      </trkpt>
      <trkpt lat="43.40207" lon="6.60088">
        <ele>520.21</ele>
        <time>2025-04-05T09:50:58Z</time>
      </trkpt>
      <trkpt lat="43.40213" lon="6.60083">
        <ele>521.65</ele>
        <time>2025-04-05T09:51:15Z</time>
      </trkpt>
      <trkpt lat="43.40213" lon="6.60077">
        <ele>523.58</ele>
        <time>2025-04-05T09:51:30Z</time>
      </trkpt>
      <trkpt lat="43.40211" lon="6.60073">
        <ele>523.09</ele>
        <time>2025-04-05T09:51:43Z</time>
      </trkpt>
      <trkpt lat="43.4021" lon="6.60072">
        <ele>525.5</ele>
        <time>2025-04-05T09:51:56Z</time>
      </trkpt>
      <trkpt lat="43.40209" lon="6.60071">
        <ele>524.54</ele>
        <time>2025-04-05T09:52:02Z</time>
      </trkpt>
      <trkpt lat="43.40213" lon="6.60073">
        <ele>525.02</ele>
        <time>2025-04-05T09:52:19Z</time>
      </trkpt>
      <trkpt lat="43.40213" lon="6.60074">
        <ele>523.58</ele>
        <time>2025-04-05T09:52:37Z</time>
      </trkpt>
      <trkpt lat="43.40214" lon="6.60074">
        <ele>524.54</ele>
        <time>2025-04-05T09:52:44Z</time>
      </trkpt>
      <trkpt lat="43.40216" lon="6.60078">
        <ele>521.65</ele>
        <time>2025-04-05T09:52:57Z</time>
      </trkpt>
      <trkpt lat="43.40217" lon="6.60079">
        <ele>523.58</ele>
        <time>2025-04-05T09:53:09Z</time>
      </trkpt>
      <trkpt lat="43.40217" lon="6.60081">
        <ele>523.58</ele>
        <time>2025-04-05T09:53:21Z</time>
      </trkpt>
      <trkpt lat="43.40215" lon="6.60077">
        <ele>524.06</ele>
        <time>2025-04-05T09:53:35Z</time>
      </trkpt>
      <trkpt lat="43.40211" lon="6.60074">
        <ele>524.06</ele>
        <time>2025-04-05T09:53:49Z</time>
      </trkpt>
      <trkpt lat="43.40216" lon="6.60078">
        <ele>524.06</ele>
        <time>2025-04-05T09:54:04Z</time>
      </trkpt>
      <trkpt lat="43.4022" lon="6.60086">
        <ele>522.13</ele>
        <time>2025-04-05T09:54:17Z</time>
      </trkpt>
      <trkpt lat="43.40227" lon="6.60087">
        <ele>520.69</ele>
        <time>2025-04-05T09:54:29Z</time>
      </trkpt>
      <trkpt lat="43.40233" lon="6.60085">
        <ele>518.77</ele>
        <time>2025-04-05T09:54:45Z</time>
      </trkpt>
      <trkpt lat="43.40241" lon="6.60083">
        <ele>516.37</ele>
        <time>2025-04-05T09:54:59Z</time>
      </trkpt>
      <trkpt lat="43.40245" lon="6.60083">
        <ele>514.92</ele>
        <time>2025-04-05T09:55:03Z</time>
      </trkpt>
      <trkpt lat="43.40252" lon="6.60085">
        <ele>513</ele>
        <time>2025-04-05T09:55:11Z</time>
      </trkpt>
      <trkpt lat="43.40257" lon="6.60092">
        <ele>512.52</ele>
        <time>2025-04-05T09:55:26Z</time>
      </trkpt>
      <trkpt lat="43.40263" lon="6.6009">
        <ele>511.56</ele>
        <time>2025-04-05T09:55:35Z</time>
      </trkpt>
      <trkpt lat="43.40267" lon="6.60088">
        <ele>511.08</ele>
        <time>2025-04-05T09:55:40Z</time>
      </trkpt>
      <trkpt lat="43.40271" lon="6.60097">
        <ele>510.12</ele>
        <time>2025-04-05T09:55:52Z</time>
      </trkpt>
      <trkpt lat="43.40274" lon="6.60104">
        <ele>508.19</ele>
        <time>2025-04-05T09:56:06Z</time>
      </trkpt>
      <trkpt lat="43.40276" lon="6.6011">
        <ele>506.27</ele>
        <time>2025-04-05T09:56:20Z</time>
      </trkpt>
      <trkpt lat="43.40278" lon="6.60115">
        <ele>504.83</ele>
        <time>2025-04-05T09:56:31Z</time>
      </trkpt>
      <trkpt lat="43.40279" lon="6.60116">
        <ele>505.31</ele>
        <time>2025-04-05T09:56:38Z</time>
      </trkpt>
      <trkpt lat="43.40279" lon="6.60116">
        <ele>503.87</ele>
        <time>2025-04-05T09:56:40Z</time>
      </trkpt>
      <trkpt lat="43.4028" lon="6.60119">
        <ele>502.43</ele>
        <time>2025-04-05T09:56:53Z</time>
      </trkpt>
      <trkpt lat="43.40286" lon="6.60125">
        <ele>499.54</ele>
        <time>2025-04-05T09:57:05Z</time>
      </trkpt>
      <trkpt lat="43.40286" lon="6.60128">
        <ele>499.06</ele>
        <time>2025-04-05T09:57:07Z</time>
      </trkpt>
      <trkpt lat="43.40261" lon="6.60134">
        <ele>497.62</ele>
        <time>2025-04-05T09:57:27Z</time>
      </trkpt>
      <trkpt lat="43.40253" lon="6.60135">
        <ele>496.66</ele>
        <time>2025-04-05T09:57:34Z</time>
      </trkpt>
      <trkpt lat="43.40236" lon="6.60147">
        <ele>493.77</ele>
        <time>2025-04-05T09:57:51Z</time>
      </trkpt>
      <trkpt lat="43.40227" lon="6.60157">
        <ele>493.29</ele>
        <time>2025-04-05T09:58:01Z</time>
      </trkpt>
      <trkpt lat="43.40213" lon="6.60175">
        <ele>491.85</ele>
        <time>2025-04-05T09:58:18Z</time>
      </trkpt>
      <trkpt lat="43.40205" lon="6.60187">
        <ele>491.37</ele>
        <time>2025-04-05T09:58:29Z</time>
      </trkpt>
      <trkpt lat="43.40188" lon="6.60213">
        <ele>489.93</ele>
        <time>2025-04-05T09:58:50Z</time>
      </trkpt>
      <trkpt lat="43.40176" lon="6.60236">
        <ele>489.45</ele>
        <time>2025-04-05T09:59:07Z</time>
      </trkpt>
      <trkpt lat="43.40169" lon="6.60254">
        <ele>488.49</ele>
        <time>2025-04-05T09:59:20Z</time>
      </trkpt>
      <trkpt lat="43.40161" lon="6.60278">
        <ele>486.08</ele>
        <time>2025-04-05T09:59:36Z</time>
      </trkpt>
      <trkpt lat="43.40148" lon="6.60298">
        <ele>483.68</ele>
        <time>2025-04-05T09:59:53Z</time>
      </trkpt>
      <trkpt lat="43.40148" lon="6.60299">
        <ele>483.2</ele>
        <time>2025-04-05T09:59:54Z</time>
      </trkpt>
      <trkpt lat="43.40132" lon="6.60321">
        <ele>482.24</ele>
        <time>2025-04-05T10:00:12Z</time>
      </trkpt>
      <trkpt lat="43.40129" lon="6.60327">
        <ele>481.76</ele>
        <time>2025-04-05T10:00:17Z</time>
      </trkpt>
      <trkpt lat="43.40114" lon="6.60345">
        <ele>480.32</ele>
        <time>2025-04-05T10:00:33Z</time>
      </trkpt>
      <trkpt lat="43.40096" lon="6.60365">
        <ele>477.91</ele>
        <time>2025-04-05T10:00:52Z</time>
      </trkpt>
      <trkpt lat="43.40091" lon="6.60369">
        <ele>477.43</ele>
        <time>2025-04-05T10:00:57Z</time>
      </trkpt>
      <trkpt lat="43.40087" lon="6.60372">
        <ele>477.43</ele>
        <time>2025-04-05T10:01:01Z</time>
      </trkpt>
      <trkpt lat="43.40077" lon="6.60376">
        <ele>477.43</ele>
        <time>2025-04-05T10:01:10Z</time>
      </trkpt>
      <trkpt lat="43.40062" lon="6.60384">
        <ele>476.47</ele>
        <time>2025-04-05T10:01:25Z</time>
      </trkpt>
      <trkpt lat="43.4006" lon="6.60384">
        <ele>476.47</ele>
        <time>2025-04-05T10:01:26Z</time>
      </trkpt>
      <trkpt lat="43.40042" lon="6.60387">
        <ele>476.47</ele>
        <time>2025-04-05T10:01:43Z</time>
      </trkpt>
      <trkpt lat="43.40026" lon="6.60392">
        <ele>475.99</ele>
        <time>2025-04-05T10:01:58Z</time>
      </trkpt>
      <trkpt lat="43.40026" lon="6.60395">
        <ele>475.51</ele>
        <time>2025-04-05T10:02:14Z</time>
      </trkpt>
      <trkpt lat="43.40026" lon="6.60393">
        <ele>475.51</ele>
        <time>2025-04-05T10:02:35Z</time>
      </trkpt>
      <trkpt lat="43.40026" lon="6.60398">
        <ele>475.99</ele>
        <time>2025-04-05T10:02:55Z</time>
      </trkpt>
      <trkpt lat="43.40024" lon="6.60395">
        <ele>475.99</ele>
        <time>2025-04-05T10:03:17Z</time>
      </trkpt>
      <trkpt lat="43.4002" lon="6.60401">
        <ele>477.43</ele>
        <time>2025-04-05T10:03:38Z</time>
      </trkpt>
      <trkpt lat="43.40019" lon="6.60401">
        <ele>477.43</ele>
        <time>2025-04-05T10:03:39Z</time>
      </trkpt>
      <trkpt lat="43.4" lon="6.60403">
        <ele>475.99</ele>
        <time>2025-04-05T10:03:55Z</time>
      </trkpt>
      <trkpt lat="43.39978" lon="6.60403">
        <ele>475.03</ele>
        <time>2025-04-05T10:04:14Z</time>
      </trkpt>
      <trkpt lat="43.39974" lon="6.60402">
        <ele>474.55</ele>
        <time>2025-04-05T10:04:30Z</time>
      </trkpt>
      <trkpt lat="43.39965" lon="6.60403">
        <ele>474.55</ele>
        <time>2025-04-05T10:04:50Z</time>
      </trkpt>
      <trkpt lat="43.39939" lon="6.60407">
        <ele>473.11</ele>
        <time>2025-04-05T10:05:09Z</time>
      </trkpt>
      <trkpt lat="43.39922" lon="6.60412">
        <ele>473.11</ele>
        <time>2025-04-05T10:05:25Z</time>
      </trkpt>
      <trkpt lat="43.39901" lon="6.60418">
        <ele>473.11</ele>
        <time>2025-04-05T10:05:41Z</time>
      </trkpt>
      <trkpt lat="43.39877" lon="6.60426">
        <ele>473.11</ele>
        <time>2025-04-05T10:06:02Z</time>
      </trkpt>
      <trkpt lat="43.39858" lon="6.6043">
        <ele>473.11</ele>
        <time>2025-04-05T10:06:18Z</time>
      </trkpt>
      <trkpt lat="43.39849" lon="6.60433">
        <ele>473.11</ele>
        <time>2025-04-05T10:06:27Z</time>
      </trkpt>
      <trkpt lat="43.39831" lon="6.60445">
        <ele>472.63</ele>
        <time>2025-04-05T10:06:45Z</time>
      </trkpt>
      <trkpt lat="43.39817" lon="6.60459">
        <ele>470.22</ele>
        <time>2025-04-05T10:07:02Z</time>
      </trkpt>
      <trkpt lat="43.39805" lon="6.6047">
        <ele>468.78</ele>
        <time>2025-04-05T10:07:15Z</time>
      </trkpt>
      <trkpt lat="43.39796" lon="6.60478">
        <ele>467.34</ele>
        <time>2025-04-05T10:07:24Z</time>
      </trkpt>
      <trkpt lat="43.39793" lon="6.60481">
        <ele>466.86</ele>
        <time>2025-04-05T10:07:27Z</time>
      </trkpt>
      <trkpt lat="43.39773" lon="6.6049">
        <ele>466.86</ele>
        <time>2025-04-05T10:07:45Z</time>
      </trkpt>
      <trkpt lat="43.39755" lon="6.60496">
        <ele>463.97</ele>
        <time>2025-04-05T10:08:01Z</time>
      </trkpt>
      <trkpt lat="43.39737" lon="6.60502">
        <ele>461.57</ele>
        <time>2025-04-05T10:08:17Z</time>
      </trkpt>
      <trkpt lat="43.39732" lon="6.60502">
        <ele>463.01</ele>
        <time>2025-04-05T10:08:21Z</time>
      </trkpt>
      <trkpt lat="43.39731" lon="6.60502">
        <ele>461.57</ele>
        <time>2025-04-05T10:08:22Z</time>
      </trkpt>
      <trkpt lat="43.39724" lon="6.60505">
        <ele>461.09</ele>
        <time>2025-04-05T10:08:29Z</time>
      </trkpt>
      <trkpt lat="43.39721" lon="6.60507">
        <ele>460.61</ele>
        <time>2025-04-05T10:08:32Z</time>
      </trkpt>
      <trkpt lat="43.39704" lon="6.60516">
        <ele>458.21</ele>
        <time>2025-04-05T10:08:49Z</time>
      </trkpt>
      <trkpt lat="43.39692" lon="6.6052">
        <ele>456.28</ele>
        <time>2025-04-05T10:09:02Z</time>
      </trkpt>
      <trkpt lat="43.39677" lon="6.60528">
        <ele>453.88</ele>
        <time>2025-04-05T10:09:18Z</time>
      </trkpt>
      <trkpt lat="43.39674" lon="6.60531">
        <ele>452.92</ele>
        <time>2025-04-05T10:09:21Z</time>
      </trkpt>
      <trkpt lat="43.39664" lon="6.60536">
        <ele>451.96</ele>
        <time>2025-04-05T10:09:30Z</time>
      </trkpt>
      <trkpt lat="43.39659" lon="6.60537">
        <ele>450.03</ele>
        <time>2025-04-05T10:09:35Z</time>
      </trkpt>
      <trkpt lat="43.39644" lon="6.60546">
        <ele>446.67</ele>
        <time>2025-04-05T10:09:51Z</time>
      </trkpt>
      <trkpt lat="43.39634" lon="6.60548">
        <ele>445.23</ele>
        <time>2025-04-05T10:10:00Z</time>
      </trkpt>
      <trkpt lat="43.39622" lon="6.60551">
        <ele>443.79</ele>
        <time>2025-04-05T10:10:13Z</time>
      </trkpt>
      <trkpt lat="43.39607" lon="6.60556">
        <ele>442.82</ele>
        <time>2025-04-05T10:10:30Z</time>
      </trkpt>
      <trkpt lat="43.39587" lon="6.6056">
        <ele>439.94</ele>
        <time>2025-04-05T10:10:44Z</time>
      </trkpt>
      <trkpt lat="43.39573" lon="6.60561">
        <ele>437.54</ele>
        <time>2025-04-05T10:10:55Z</time>
      </trkpt>
      <trkpt lat="43.39549" lon="6.60559">
        <ele>435.61</ele>
        <time>2025-04-05T10:11:10Z</time>
      </trkpt>
      <trkpt lat="43.3953" lon="6.60561">
        <ele>433.21</ele>
        <time>2025-04-05T10:11:26Z</time>
      </trkpt>
      <trkpt lat="43.39527" lon="6.60561">
        <ele>433.21</ele>
        <time>2025-04-05T10:11:41Z</time>
      </trkpt>
      <trkpt lat="43.39515" lon="6.6055">
        <ele>432.73</ele>
        <time>2025-04-05T10:11:51Z</time>
      </trkpt>
      <trkpt lat="43.39505" lon="6.60535">
        <ele>431.29</ele>
        <time>2025-04-05T10:12:03Z</time>
      </trkpt>
      <trkpt lat="43.39483" lon="6.60528">
        <ele>430.81</ele>
        <time>2025-04-05T10:12:21Z</time>
      </trkpt>
      <trkpt lat="43.39461" lon="6.60525">
        <ele>430.81</ele>
        <time>2025-04-05T10:12:38Z</time>
      </trkpt>
      <trkpt lat="43.3944" lon="6.60519">
        <ele>430.33</ele>
        <time>2025-04-05T10:12:54Z</time>
      </trkpt>
      <trkpt lat="43.39419" lon="6.60507">
        <ele>429.37</ele>
        <time>2025-04-05T10:13:10Z</time>
      </trkpt>
      <trkpt lat="43.39394" lon="6.60496">
        <ele>430.33</ele>
        <time>2025-04-05T10:13:30Z</time>
      </trkpt>
      <trkpt lat="43.39368" lon="6.6049">
        <ele>431.77</ele>
        <time>2025-04-05T10:13:50Z</time>
      </trkpt>
      <trkpt lat="43.3934" lon="6.60487">
        <ele>430.33</ele>
        <time>2025-04-05T10:14:12Z</time>
      </trkpt>
      <trkpt lat="43.39315" lon="6.60496">
        <ele>429.37</ele>
        <time>2025-04-05T10:14:32Z</time>
      </trkpt>
      <trkpt lat="43.39305" lon="6.60516">
        <ele>426.96</ele>
        <time>2025-04-05T10:14:47Z</time>
      </trkpt>
      <trkpt lat="43.39292" lon="6.60541">
        <ele>424.56</ele>
        <time>2025-04-05T10:15:05Z</time>
      </trkpt>
      <trkpt lat="43.39275" lon="6.60564">
        <ele>423.12</ele>
        <time>2025-04-05T10:15:23Z</time>
      </trkpt>
      <trkpt lat="43.39264" lon="6.6058">
        <ele>422.64</ele>
        <time>2025-04-05T10:15:40Z</time>
      </trkpt>
      <trkpt lat="43.39264" lon="6.6058">
        <ele>424.56</ele>
        <time>2025-04-05T10:15:42Z</time>
      </trkpt>
      <trkpt lat="43.39262" lon="6.60584">
        <ele>424.08</ele>
        <time>2025-04-05T10:15:46Z</time>
      </trkpt>
      <trkpt lat="43.39253" lon="6.60609">
        <ele>424.08</ele>
        <time>2025-04-05T10:16:03Z</time>
      </trkpt>
      <trkpt lat="43.39246" lon="6.60623">
        <ele>426</ele>
        <time>2025-04-05T10:16:17Z</time>
      </trkpt>
      <trkpt lat="43.39242" lon="6.60623">
        <ele>426.96</ele>
        <time>2025-04-05T10:16:30Z</time>
      </trkpt>
      <trkpt lat="43.39239" lon="6.60624">
        <ele>427.44</ele>
        <time>2025-04-05T10:16:50Z</time>
      </trkpt>
      <trkpt lat="43.39239" lon="6.60625">
        <ele>427.44</ele>
        <time>2025-04-05T10:16:51Z</time>
      </trkpt>
      <trkpt lat="43.39228" lon="6.60634">
        <ele>429.85</ele>
        <time>2025-04-05T10:17:07Z</time>
      </trkpt>
      <trkpt lat="43.39222" lon="6.60646">
        <ele>432.25</ele>
        <time>2025-04-05T10:17:20Z</time>
      </trkpt>
      <trkpt lat="43.39217" lon="6.60652">
        <ele>433.21</ele>
        <time>2025-04-05T10:17:33Z</time>
      </trkpt>
      <trkpt lat="43.39214" lon="6.60656">
        <ele>434.17</ele>
        <time>2025-04-05T10:17:52Z</time>
      </trkpt>
      <trkpt lat="43.39206" lon="6.60667">
        <ele>435.13</ele>
        <time>2025-04-05T10:18:09Z</time>
      </trkpt>
      <trkpt lat="43.39196" lon="6.60677">
        <ele>437.54</ele>
        <time>2025-04-05T10:18:24Z</time>
      </trkpt>
      <trkpt lat="43.39187" lon="6.60685">
        <ele>439.46</ele>
        <time>2025-04-05T10:18:39Z</time>
      </trkpt>
      <trkpt lat="43.39182" lon="6.60693">
        <ele>441.38</ele>
        <time>2025-04-05T10:18:53Z</time>
      </trkpt>
      <trkpt lat="43.39179" lon="6.60699">
        <ele>442.82</ele>
        <time>2025-04-05T10:19:06Z</time>
      </trkpt>
      <trkpt lat="43.39176" lon="6.60703">
        <ele>444.27</ele>
        <time>2025-04-05T10:19:19Z</time>
      </trkpt>
      <trkpt lat="43.39172" lon="6.60707">
        <ele>446.19</ele>
        <time>2025-04-05T10:19:32Z</time>
      </trkpt>
      <trkpt lat="43.39168" lon="6.60712">
        <ele>448.11</ele>
        <time>2025-04-05T10:19:47Z</time>
      </trkpt>
      <trkpt lat="43.39164" lon="6.60718">
        <ele>450.52</ele>
        <time>2025-04-05T10:20:02Z</time>
      </trkpt>
      <trkpt lat="43.3916" lon="6.60721">
        <ele>451.96</ele>
        <time>2025-04-05T10:20:15Z</time>
      </trkpt>
      <trkpt lat="43.39156" lon="6.60724">
        <ele>453.4</ele>
        <time>2025-04-05T10:20:29Z</time>
      </trkpt>
      <trkpt lat="43.39153" lon="6.60727">
        <ele>454.84</ele>
        <time>2025-04-05T10:20:42Z</time>
      </trkpt>
      <trkpt lat="43.3915" lon="6.60731">
        <ele>456.76</ele>
        <time>2025-04-05T10:20:55Z</time>
      </trkpt>
      <trkpt lat="43.39146" lon="6.60737">
        <ele>458.21</ele>
        <time>2025-04-05T10:21:10Z</time>
      </trkpt>
      <trkpt lat="43.39141" lon="6.60739">
        <ele>460.13</ele>
        <time>2025-04-05T10:21:25Z</time>
      </trkpt>
      <trkpt lat="43.39136" lon="6.60745">
        <ele>461.57</ele>
        <time>2025-04-05T10:21:39Z</time>
      </trkpt>
      <trkpt lat="43.3913" lon="6.60749">
        <ele>463.49</ele>
        <time>2025-04-05T10:21:53Z</time>
      </trkpt>
      <trkpt lat="43.39125" lon="6.60757">
        <ele>465.9</ele>
        <time>2025-04-05T10:22:09Z</time>
      </trkpt>
      <trkpt lat="43.39118" lon="6.60765">
        <ele>467.34</ele>
        <time>2025-04-05T10:22:24Z</time>
      </trkpt>
      <trkpt lat="43.39112" lon="6.60769">
        <ele>469.26</ele>
        <time>2025-04-05T10:22:40Z</time>
      </trkpt>
      <trkpt lat="43.39103" lon="6.60771">
        <ele>470.7</ele>
        <time>2025-04-05T10:22:55Z</time>
      </trkpt>
      <trkpt lat="43.39092" lon="6.60774">
        <ele>471.66</ele>
        <time>2025-04-05T10:23:07Z</time>
      </trkpt>
      <trkpt lat="43.39091" lon="6.60774">
        <ele>471.66</ele>
        <time>2025-04-05T10:23:08Z</time>
      </trkpt>
      <trkpt lat="43.39076" lon="6.60775">
        <ele>472.63</ele>
        <time>2025-04-05T10:23:24Z</time>
      </trkpt>
      <trkpt lat="43.39064" lon="6.60772">
        <ele>474.55</ele>
        <time>2025-04-05T10:23:40Z</time>
      </trkpt>
      <trkpt lat="43.3905" lon="6.60772">
        <ele>476.47</ele>
        <time>2025-04-05T10:23:56Z</time>
      </trkpt>
      <trkpt lat="43.39047" lon="6.60771">
        <ele>476.47</ele>
        <time>2025-04-05T10:24:13Z</time>
      </trkpt>
      <trkpt lat="43.39046" lon="6.60771">
        <ele>476.47</ele>
        <time>2025-04-05T10:24:41Z</time>
      </trkpt>
      <trkpt lat="43.39035" lon="6.60773">
        <ele>476.47</ele>
        <time>2025-04-05T10:25:06Z</time>
      </trkpt>
      <trkpt lat="43.39031" lon="6.60772">
        <ele>475.03</ele>
        <time>2025-04-05T10:25:09Z</time>
      </trkpt>
      <trkpt lat="43.39011" lon="6.60759">
        <ele>474.07</ele>
        <time>2025-04-05T10:25:29Z</time>
      </trkpt>
      <trkpt lat="43.39011" lon="6.60759">
        <ele>475.51</ele>
        <time>2025-04-05T10:25:31Z</time>
      </trkpt>
      <trkpt lat="43.39002" lon="6.60753">
        <ele>477.91</ele>
        <time>2025-04-05T10:25:46Z</time>
      </trkpt>
      <trkpt lat="43.38997" lon="6.60749">
        <ele>477.43</ele>
        <time>2025-04-05T10:25:58Z</time>
      </trkpt>
      <trkpt lat="43.38997" lon="6.60745">
        <ele>477.43</ele>
        <time>2025-04-05T10:26:14Z</time>
      </trkpt>
      <trkpt lat="43.38995" lon="6.60749">
        <ele>477.43</ele>
        <time>2025-04-05T10:26:29Z</time>
      </trkpt>
      <trkpt lat="43.38992" lon="6.60749">
        <ele>477.43</ele>
        <time>2025-04-05T10:26:43Z</time>
      </trkpt>
      <trkpt lat="43.38992" lon="6.60745">
        <ele>477.91</ele>
        <time>2025-04-05T10:27:00Z</time>
      </trkpt>
      <trkpt lat="43.38996" lon="6.6074">
        <ele>477.91</ele>
        <time>2025-04-05T10:27:10Z</time>
      </trkpt>
      <trkpt lat="43.38996" lon="6.60739">
        <ele>476.47</ele>
        <time>2025-04-05T10:27:17Z</time>
      </trkpt>
      <trkpt lat="43.38991" lon="6.60734">
        <ele>475.51</ele>
        <time>2025-04-05T10:27:28Z</time>
      </trkpt>
      <trkpt lat="43.38987" lon="6.60732">
        <ele>474.55</ele>
        <time>2025-04-05T10:27:39Z</time>
      </trkpt>
      <trkpt lat="43.38986" lon="6.60731">
        <ele>474.55</ele>
        <time>2025-04-05T10:27:41Z</time>
      </trkpt>
      <trkpt lat="43.3898" lon="6.60729">
        <ele>472.63</ele>
        <time>2025-04-05T10:27:53Z</time>
      </trkpt>
      <trkpt lat="43.38975" lon="6.6073">
        <ele>471.18</ele>
        <time>2025-04-05T10:28:12Z</time>
      </trkpt>
      <trkpt lat="43.38965" lon="6.60731">
        <ele>468.3</ele>
        <time>2025-04-05T10:28:27Z</time>
      </trkpt>
      <trkpt lat="43.3896" lon="6.60734">
        <ele>466.38</ele>
        <time>2025-04-05T10:28:40Z</time>
      </trkpt>
      <trkpt lat="43.38954" lon="6.60736">
        <ele>465.42</ele>
        <time>2025-04-05T10:28:54Z</time>
      </trkpt>
      <trkpt lat="43.38951" lon="6.60737">
        <ele>464.45</ele>
        <time>2025-04-05T10:29:04Z</time>
      </trkpt>
      <trkpt lat="43.38941" lon="6.60743">
        <ele>462.05</ele>
        <time>2025-04-05T10:29:19Z</time>
      </trkpt>
      <trkpt lat="43.38938" lon="6.60748">
        <ele>462.05</ele>
        <time>2025-04-05T10:29:34Z</time>
      </trkpt>
      <trkpt lat="43.38936" lon="6.60754">
        <ele>461.57</ele>
        <time>2025-04-05T10:29:49Z</time>
      </trkpt>
      <trkpt lat="43.38935" lon="6.60757">
        <ele>461.09</ele>
        <time>2025-04-05T10:30:08Z</time>
      </trkpt>
      <trkpt lat="43.38936" lon="6.60764">
        <ele>462.05</ele>
        <time>2025-04-05T10:30:23Z</time>
      </trkpt>
      <trkpt lat="43.38933" lon="6.60761">
        <ele>462.05</ele>
        <time>2025-04-05T10:30:38Z</time>
      </trkpt>
      <trkpt lat="43.38934" lon="6.60757">
        <ele>462.05</ele>
        <time>2025-04-05T10:30:55Z</time>
      </trkpt>
      <trkpt lat="43.38932" lon="6.6075">
        <ele>461.09</ele>
        <time>2025-04-05T10:31:05Z</time>
      </trkpt>
      <trkpt lat="43.38929" lon="6.6075">
        <ele>458.69</ele>
        <time>2025-04-05T10:31:23Z</time>
      </trkpt>
      <trkpt lat="43.38924" lon="6.60754">
        <ele>458.21</ele>
        <time>2025-04-05T10:31:31Z</time>
      </trkpt>
      <trkpt lat="43.38916" lon="6.60754">
        <ele>456.76</ele>
        <time>2025-04-05T10:31:44Z</time>
      </trkpt>
      <trkpt lat="43.38912" lon="6.60753">
        <ele>455.32</ele>
        <time>2025-04-05T10:31:59Z</time>
      </trkpt>
      <trkpt lat="43.38909" lon="6.60754">
        <ele>454.84</ele>
        <time>2025-04-05T10:32:16Z</time>
      </trkpt>
      <trkpt lat="43.38897" lon="6.60754">
        <ele>453.4</ele>
        <time>2025-04-05T10:32:30Z</time>
      </trkpt>
      <trkpt lat="43.38896" lon="6.60755">
        <ele>453.4</ele>
        <time>2025-04-05T10:32:31Z</time>
      </trkpt>
      <trkpt lat="43.38894" lon="6.60755">
        <ele>453.4</ele>
        <time>2025-04-05T10:32:32Z</time>
      </trkpt>
      <trkpt lat="43.38893" lon="6.60755">
        <ele>453.4</ele>
        <time>2025-04-05T10:32:33Z</time>
      </trkpt>
      <trkpt lat="43.38892" lon="6.60755">
        <ele>453.4</ele>
        <time>2025-04-05T10:32:34Z</time>
      </trkpt>
      <trkpt lat="43.38891" lon="6.60755">
        <ele>453.4</ele>
        <time>2025-04-05T10:32:35Z</time>
      </trkpt>
      <trkpt lat="43.38882" lon="6.60753">
        <ele>450.52</ele>
        <time>2025-04-05T10:32:44Z</time>
      </trkpt>
      <trkpt lat="43.3888" lon="6.60753">
        <ele>452.92</ele>
        <time>2025-04-05T10:32:46Z</time>
      </trkpt>
      <trkpt lat="43.38878" lon="6.60751">
        <ele>451</ele>
        <time>2025-04-05T10:32:50Z</time>
      </trkpt>
      <trkpt lat="43.38877" lon="6.6075">
        <ele>451</ele>
        <time>2025-04-05T10:32:51Z</time>
      </trkpt>
      <trkpt lat="43.38873" lon="6.60749">
        <ele>450.52</ele>
        <time>2025-04-05T10:33:02Z</time>
      </trkpt>
      <trkpt lat="43.38863" lon="6.60743">
        <ele>449.55</ele>
        <time>2025-04-05T10:33:11Z</time>
      </trkpt>
      <trkpt lat="43.38862" lon="6.60743">
        <ele>449.55</ele>
        <time>2025-04-05T10:33:12Z</time>
      </trkpt>
      <trkpt lat="43.38859" lon="6.60742">
        <ele>449.07</ele>
        <time>2025-04-05T10:33:15Z</time>
      </trkpt>
      <trkpt lat="43.38856" lon="6.60739">
        <ele>447.63</ele>
        <time>2025-04-05T10:33:19Z</time>
      </trkpt>
      <trkpt lat="43.38846" lon="6.60739">
        <ele>447.63</ele>
        <time>2025-04-05T10:33:31Z</time>
      </trkpt>
      <trkpt lat="43.38821" lon="6.60743">
        <ele>447.63</ele>
        <time>2025-04-05T10:33:52Z</time>
      </trkpt>
      <trkpt lat="43.38816" lon="6.60744">
        <ele>449.07</ele>
        <time>2025-04-05T10:33:56Z</time>
      </trkpt>
      <trkpt lat="43.38798" lon="6.60756">
        <ele>450.52</ele>
        <time>2025-04-05T10:34:15Z</time>
      </trkpt>
      <trkpt lat="43.38791" lon="6.60761">
        <ele>449.07</ele>
        <time>2025-04-05T10:34:26Z</time>
      </trkpt>
      <trkpt lat="43.38791" lon="6.60762">
        <ele>449.07</ele>
        <time>2025-04-05T10:34:27Z</time>
      </trkpt>
      <trkpt lat="43.3879" lon="6.60764">
        <ele>448.59</ele>
        <time>2025-04-05T10:34:28Z</time>
      </trkpt>
      <trkpt lat="43.3879" lon="6.60765">
        <ele>448.59</ele>
        <time>2025-04-05T10:34:29Z</time>
      </trkpt>
      <trkpt lat="43.38789" lon="6.6077">
        <ele>446.67</ele>
        <time>2025-04-05T10:34:41Z</time>
      </trkpt>
      <trkpt lat="43.3879" lon="6.6077">
        <ele>447.15</ele>
        <time>2025-04-05T10:34:55Z</time>
      </trkpt>
      <trkpt lat="43.38796" lon="6.60779">
        <ele>447.15</ele>
        <time>2025-04-05T10:35:24Z</time>
      </trkpt>
      <trkpt lat="43.38805" lon="6.60793">
        <ele>446.19</ele>
        <time>2025-04-05T10:35:40Z</time>
      </trkpt>
      <trkpt lat="43.38808" lon="6.608">
        <ele>445.23</ele>
        <time>2025-04-05T10:35:46Z</time>
      </trkpt>
      <trkpt lat="43.38815" lon="6.60822">
        <ele>442.82</ele>
        <time>2025-04-05T10:36:00Z</time>
      </trkpt>
      <trkpt lat="43.38815" lon="6.60824">
        <ele>442.82</ele>
        <time>2025-04-05T10:36:01Z</time>
      </trkpt>
      <trkpt lat="43.38816" lon="6.60826">
        <ele>442.82</ele>
        <time>2025-04-05T10:36:02Z</time>
      </trkpt>
      <trkpt lat="43.38816" lon="6.60828">
        <ele>442.82</ele>
        <time>2025-04-05T10:36:03Z</time>
      </trkpt>
      <trkpt lat="43.38817" lon="6.60829">
        <ele>442.82</ele>
        <time>2025-04-05T10:36:04Z</time>
      </trkpt>
      <trkpt lat="43.38817" lon="6.60831">
        <ele>442.34</ele>
        <time>2025-04-05T10:36:05Z</time>
      </trkpt>
      <trkpt lat="43.38823" lon="6.60857">
        <ele>440.42</ele>
        <time>2025-04-05T10:36:21Z</time>
      </trkpt>
      <trkpt lat="43.38823" lon="6.60866">
        <ele>439.46</ele>
        <time>2025-04-05T10:36:28Z</time>
      </trkpt>
      <trkpt lat="43.38823" lon="6.60868">
        <ele>439.46</ele>
        <time>2025-04-05T10:36:29Z</time>
      </trkpt>
      <trkpt lat="43.38822" lon="6.60896">
        <ele>436.58</ele>
        <time>2025-04-05T10:36:44Z</time>
      </trkpt>
      <trkpt lat="43.38817" lon="6.60904">
        <ele>435.13</ele>
        <time>2025-04-05T10:36:49Z</time>
      </trkpt>
      <trkpt lat="43.38816" lon="6.60904">
        <ele>435.13</ele>
        <time>2025-04-05T10:36:50Z</time>
      </trkpt>
      <trkpt lat="43.38815" lon="6.60904">
        <ele>435.13</ele>
        <time>2025-04-05T10:36:51Z</time>
      </trkpt>
      <trkpt lat="43.38814" lon="6.60903">
        <ele>435.13</ele>
        <time>2025-04-05T10:36:52Z</time>
      </trkpt>
      <trkpt lat="43.38813" lon="6.60903">
        <ele>435.13</ele>
        <time>2025-04-05T10:36:53Z</time>
      </trkpt>
      <trkpt lat="43.38812" lon="6.60902">
        <ele>434.65</ele>
        <time>2025-04-05T10:36:54Z</time>
      </trkpt>
      <trkpt lat="43.3881" lon="6.60901">
        <ele>434.65</ele>
        <time>2025-04-05T10:36:55Z</time>
      </trkpt>
      <trkpt lat="43.3881" lon="6.609">
        <ele>434.65</ele>
        <time>2025-04-05T10:36:56Z</time>
      </trkpt>
      <trkpt lat="43.38798" lon="6.60886">
        <ele>433.21</ele>
        <time>2025-04-05T10:37:09Z</time>
      </trkpt>
      <trkpt lat="43.38792" lon="6.60861">
        <ele>431.77</ele>
        <time>2025-04-05T10:37:22Z</time>
      </trkpt>
      <trkpt lat="43.38776" lon="6.60836">
        <ele>429.37</ele>
        <time>2025-04-05T10:37:36Z</time>
      </trkpt>
      <trkpt lat="43.38764" lon="6.60832">
        <ele>427.44</ele>
        <time>2025-04-05T10:37:49Z</time>
      </trkpt>
      <trkpt lat="43.38745" lon="6.60837">
        <ele>425.52</ele>
        <time>2025-04-05T10:38:03Z</time>
      </trkpt>
      <trkpt lat="43.38728" lon="6.6083">
        <ele>424.56</ele>
        <time>2025-04-05T10:38:17Z</time>
      </trkpt>
      <trkpt lat="43.38707" lon="6.60827">
        <ele>424.56</ele>
        <time>2025-04-05T10:38:33Z</time>
      </trkpt>
      <trkpt lat="43.38686" lon="6.60829">
        <ele>423.6</ele>
        <time>2025-04-05T10:38:49Z</time>
      </trkpt>
      <trkpt lat="43.38668" lon="6.60826">
        <ele>421.19</ele>
        <time>2025-04-05T10:39:04Z</time>
      </trkpt>
      <trkpt lat="43.38664" lon="6.60823">
        <ele>420.23</ele>
        <time>2025-04-05T10:39:07Z</time>
      </trkpt>
      <trkpt lat="43.38659" lon="6.60822">
        <ele>420.71</ele>
        <time>2025-04-05T10:39:11Z</time>
      </trkpt>
      <trkpt lat="43.38658" lon="6.6082">
        <ele>420.71</ele>
        <time>2025-04-05T10:39:12Z</time>
      </trkpt>
      <trkpt lat="43.38656" lon="6.60819">
        <ele>420.23</ele>
        <time>2025-04-05T10:39:13Z</time>
      </trkpt>
      <trkpt lat="43.38655" lon="6.60819">
        <ele>420.23</ele>
        <time>2025-04-05T10:39:14Z</time>
      </trkpt>
      <trkpt lat="43.38654" lon="6.60819">
        <ele>420.23</ele>
        <time>2025-04-05T10:39:15Z</time>
      </trkpt>
      <trkpt lat="43.38635" lon="6.60816">
        <ele>419.27</ele>
        <time>2025-04-05T10:39:30Z</time>
      </trkpt>
      <trkpt lat="43.38613" lon="6.60817">
        <ele>416.39</ele>
        <time>2025-04-05T10:39:46Z</time>
      </trkpt>
      <trkpt lat="43.3861" lon="6.60818">
        <ele>415.43</ele>
        <time>2025-04-05T10:39:50Z</time>
      </trkpt>
      <trkpt lat="43.38598" lon="6.6082">
        <ele>413.5</ele>
        <time>2025-04-05T10:40:03Z</time>
      </trkpt>
      <trkpt lat="43.38597" lon="6.6082">
        <ele>413.5</ele>
        <time>2025-04-05T10:40:19Z</time>
      </trkpt>
      <trkpt lat="43.38596" lon="6.60823">
        <ele>413.5</ele>
        <time>2025-04-05T10:40:38Z</time>
      </trkpt>
      <trkpt lat="43.38581" lon="6.6082">
        <ele>412.54</ele>
        <time>2025-04-05T10:40:55Z</time>
      </trkpt>
      <trkpt lat="43.38559" lon="6.60817">
        <ele>412.54</ele>
        <time>2025-04-05T10:41:11Z</time>
      </trkpt>
      <trkpt lat="43.3855" lon="6.60819">
        <ele>412.54</ele>
        <time>2025-04-05T10:41:19Z</time>
      </trkpt>
      <trkpt lat="43.38549" lon="6.60819">
        <ele>412.54</ele>
        <time>2025-04-05T10:41:20Z</time>
      </trkpt>
      <trkpt lat="43.38548" lon="6.6082">
        <ele>412.54</ele>
        <time>2025-04-05T10:41:21Z</time>
      </trkpt>
      <trkpt lat="43.38529" lon="6.60834">
        <ele>414.47</ele>
        <time>2025-04-05T10:41:39Z</time>
      </trkpt>
      <trkpt lat="43.38522" lon="6.60836">
        <ele>414.47</ele>
        <time>2025-04-05T10:41:46Z</time>
      </trkpt>
      <trkpt lat="43.3852" lon="6.60837">
        <ele>414.47</ele>
        <time>2025-04-05T10:41:47Z</time>
      </trkpt>
      <trkpt lat="43.38505" lon="6.60847">
        <ele>415.43</ele>
        <time>2025-04-05T10:42:02Z</time>
      </trkpt>
      <trkpt lat="43.38486" lon="6.60856">
        <ele>413.98</ele>
        <time>2025-04-05T10:42:17Z</time>
      </trkpt>
      <trkpt lat="43.38485" lon="6.60856">
        <ele>413.98</ele>
        <time>2025-04-05T10:42:18Z</time>
      </trkpt>
      <trkpt lat="43.3848" lon="6.60858">
        <ele>413.98</ele>
        <time>2025-04-05T10:42:25Z</time>
      </trkpt>
      <trkpt lat="43.38475" lon="6.60856">
        <ele>415.91</ele>
        <time>2025-04-05T10:42:28Z</time>
      </trkpt>
      <trkpt lat="43.38457" lon="6.60849">
        <ele>414.47</ele>
        <time>2025-04-05T10:42:41Z</time>
      </trkpt>
      <trkpt lat="43.38454" lon="6.60853">
        <ele>413.02</ele>
        <time>2025-04-05T10:42:47Z</time>
      </trkpt>
      <trkpt lat="43.38463" lon="6.60863">
        <ele>412.54</ele>
        <time>2025-04-05T10:42:59Z</time>
      </trkpt>
      <trkpt lat="43.38475" lon="6.60873">
        <ele>411.58</ele>
        <time>2025-04-05T10:43:13Z</time>
      </trkpt>
      <trkpt lat="43.38481" lon="6.60876">
        <ele>410.62</ele>
        <time>2025-04-05T10:43:19Z</time>
      </trkpt>
      <trkpt lat="43.38483" lon="6.60877">
        <ele>410.62</ele>
        <time>2025-04-05T10:43:20Z</time>
      </trkpt>
      <trkpt lat="43.38491" lon="6.60878">
        <ele>408.7</ele>
        <time>2025-04-05T10:43:33Z</time>
      </trkpt>
      <trkpt lat="43.38502" lon="6.6088">
        <ele>407.26</ele>
        <time>2025-04-05T10:43:47Z</time>
      </trkpt>
      <trkpt lat="43.38505" lon="6.60895">
        <ele>405.81</ele>
        <time>2025-04-05T10:43:57Z</time>
      </trkpt>
      <trkpt lat="43.38495" lon="6.60908">
        <ele>404.37</ele>
        <time>2025-04-05T10:44:08Z</time>
      </trkpt>
      <trkpt lat="43.38478" lon="6.6092">
        <ele>402.45</ele>
        <time>2025-04-05T10:44:19Z</time>
      </trkpt>
      <trkpt lat="43.38464" lon="6.60929">
        <ele>400.53</ele>
        <time>2025-04-05T10:44:29Z</time>
      </trkpt>
      <trkpt lat="43.38445" lon="6.60925">
        <ele>397.64</ele>
        <time>2025-04-05T10:44:42Z</time>
      </trkpt>
      <trkpt lat="43.38446" lon="6.60937">
        <ele>395.72</ele>
        <time>2025-04-05T10:44:50Z</time>
      </trkpt>
      <trkpt lat="43.38456" lon="6.60948">
        <ele>393.8</ele>
        <time>2025-04-05T10:45:06Z</time>
      </trkpt>
      <trkpt lat="43.38468" lon="6.60955">
        <ele>391.39</ele>
        <time>2025-04-05T10:45:20Z</time>
      </trkpt>
      <trkpt lat="43.3847" lon="6.60957">
        <ele>391.39</ele>
        <time>2025-04-05T10:45:22Z</time>
      </trkpt>
      <trkpt lat="43.38493" lon="6.60976">
        <ele>388.51</ele>
        <time>2025-04-05T10:45:36Z</time>
      </trkpt>
      <trkpt lat="43.38499" lon="6.60976">
        <ele>387.55</ele>
        <time>2025-04-05T10:45:42Z</time>
      </trkpt>
      <trkpt lat="43.38512" lon="6.6098">
        <ele>386.11</ele>
        <time>2025-04-05T10:45:54Z</time>
      </trkpt>
      <trkpt lat="43.38525" lon="6.60981">
        <ele>385.15</ele>
        <time>2025-04-05T10:46:03Z</time>
      </trkpt>
      <trkpt lat="43.38538" lon="6.60977">
        <ele>382.74</ele>
        <time>2025-04-05T10:46:15Z</time>
      </trkpt>
      <trkpt lat="43.38548" lon="6.60971">
        <ele>381.3</ele>
        <time>2025-04-05T10:46:28Z</time>
      </trkpt>
      <trkpt lat="43.38562" lon="6.60968">
        <ele>379.38</ele>
        <time>2025-04-05T10:46:40Z</time>
      </trkpt>
      <trkpt lat="43.38565" lon="6.60968">
        <ele>379.38</ele>
        <time>2025-04-05T10:46:43Z</time>
      </trkpt>
      <trkpt lat="43.38569" lon="6.60971">
        <ele>378.42</ele>
        <time>2025-04-05T10:46:46Z</time>
      </trkpt>
      <trkpt lat="43.38574" lon="6.61">
        <ele>377.94</ele>
        <time>2025-04-05T10:47:03Z</time>
      </trkpt>
      <trkpt lat="43.38574" lon="6.61003">
        <ele>377.94</ele>
        <time>2025-04-05T10:47:05Z</time>
      </trkpt>
      <trkpt lat="43.3857" lon="6.61026">
        <ele>376.49</ele>
        <time>2025-04-05T10:47:19Z</time>
      </trkpt>
      <trkpt lat="43.38569" lon="6.61034">
        <ele>375.53</ele>
        <time>2025-04-05T10:47:24Z</time>
      </trkpt>
      <trkpt lat="43.38568" lon="6.61061">
        <ele>373.13</ele>
        <time>2025-04-05T10:47:40Z</time>
      </trkpt>
      <trkpt lat="43.3857" lon="6.61091">
        <ele>371.21</ele>
        <time>2025-04-05T10:47:57Z</time>
      </trkpt>
      <trkpt lat="43.38575" lon="6.61121">
        <ele>371.21</ele>
        <time>2025-04-05T10:48:14Z</time>
      </trkpt>
      <trkpt lat="43.38566" lon="6.6115">
        <ele>370.24</ele>
        <time>2025-04-05T10:48:31Z</time>
      </trkpt>
      <trkpt lat="43.38558" lon="6.6117">
        <ele>370.24</ele>
        <time>2025-04-05T10:48:46Z</time>
      </trkpt>
      <trkpt lat="43.38554" lon="6.6118">
        <ele>370.24</ele>
        <time>2025-04-05T10:48:53Z</time>
      </trkpt>
      <trkpt lat="43.38554" lon="6.61194">
        <ele>366.88</ele>
        <time>2025-04-05T10:49:07Z</time>
      </trkpt>
      <trkpt lat="43.3855" lon="6.61219">
        <ele>365.92</ele>
        <time>2025-04-05T10:49:22Z</time>
      </trkpt>
      <trkpt lat="43.38548" lon="6.6123">
        <ele>365.92</ele>
        <time>2025-04-05T10:49:28Z</time>
      </trkpt>
      <trkpt lat="43.38548" lon="6.61254">
        <ele>364.48</ele>
        <time>2025-04-05T10:49:43Z</time>
      </trkpt>
      <trkpt lat="43.38545" lon="6.61278">
        <ele>362.55</ele>
        <time>2025-04-05T10:49:58Z</time>
      </trkpt>
      <trkpt lat="43.38541" lon="6.61305">
        <ele>359.67</ele>
        <time>2025-04-05T10:50:14Z</time>
      </trkpt>
      <trkpt lat="43.3854" lon="6.61308">
        <ele>359.67</ele>
        <time>2025-04-05T10:50:16Z</time>
      </trkpt>
      <trkpt lat="43.38544" lon="6.61335">
        <ele>358.71</ele>
        <time>2025-04-05T10:50:34Z</time>
      </trkpt>
      <trkpt lat="43.38552" lon="6.61358">
        <ele>358.71</ele>
        <time>2025-04-05T10:50:50Z</time>
      </trkpt>
      <trkpt lat="43.38561" lon="6.61376">
        <ele>358.71</ele>
        <time>2025-04-05T10:51:02Z</time>
      </trkpt>
      <trkpt lat="43.3857" lon="6.61397">
        <ele>357.27</ele>
        <time>2025-04-05T10:51:19Z</time>
      </trkpt>
      <trkpt lat="43.38574" lon="6.61404">
        <ele>356.31</ele>
        <time>2025-04-05T10:51:25Z</time>
      </trkpt>
      <trkpt lat="43.3858" lon="6.61411">
        <ele>355.34</ele>
        <time>2025-04-05T10:51:33Z</time>
      </trkpt>
      <trkpt lat="43.38591" lon="6.61435">
        <ele>352.94</ele>
        <time>2025-04-05T10:51:49Z</time>
      </trkpt>
      <trkpt lat="43.38593" lon="6.61449">
        <ele>350.54</ele>
        <time>2025-04-05T10:52:02Z</time>
      </trkpt>
      <trkpt lat="43.38594" lon="6.61452">
        <ele>350.54</ele>
        <time>2025-04-05T10:52:05Z</time>
      </trkpt>
      <trkpt lat="43.38596" lon="6.61461">
        <ele>349.1</ele>
        <time>2025-04-05T10:52:13Z</time>
      </trkpt>
      <trkpt lat="43.38611" lon="6.61478">
        <ele>347.17</ele>
        <time>2025-04-05T10:52:29Z</time>
      </trkpt>
      <trkpt lat="43.38633" lon="6.61496">
        <ele>347.17</ele>
        <time>2025-04-05T10:52:48Z</time>
      </trkpt>
      <trkpt lat="43.3865" lon="6.61506">
        <ele>348.62</ele>
        <time>2025-04-05T10:53:03Z</time>
      </trkpt>
      <trkpt lat="43.38656" lon="6.61509">
        <ele>349.58</ele>
        <time>2025-04-05T10:53:19Z</time>
      </trkpt>
      <trkpt lat="43.38659" lon="6.61508">
        <ele>348.62</ele>
        <time>2025-04-05T10:53:32Z</time>
      </trkpt>
      <trkpt lat="43.38677" lon="6.6151">
        <ele>350.54</ele>
        <time>2025-04-05T10:53:48Z</time>
      </trkpt>
      <trkpt lat="43.3868" lon="6.6151">
        <ele>350.54</ele>
        <time>2025-04-05T10:53:50Z</time>
      </trkpt>
      <trkpt lat="43.38682" lon="6.61509">
        <ele>349.1</ele>
        <time>2025-04-05T10:53:52Z</time>
      </trkpt>
      <trkpt lat="43.38695" lon="6.61507">
        <ele>349.1</ele>
        <time>2025-04-05T10:54:05Z</time>
      </trkpt>
      <trkpt lat="43.38715" lon="6.61497">
        <ele>349.1</ele>
        <time>2025-04-05T10:54:22Z</time>
      </trkpt>
      <trkpt lat="43.38723" lon="6.61489">
        <ele>349.1</ele>
        <time>2025-04-05T10:54:39Z</time>
      </trkpt>
      <trkpt lat="43.38733" lon="6.61486">
        <ele>349.1</ele>
        <time>2025-04-05T10:54:47Z</time>
      </trkpt>
      <trkpt lat="43.38737" lon="6.61485">
        <ele>349.1</ele>
        <time>2025-04-05T10:54:49Z</time>
      </trkpt>
      <trkpt lat="43.38766" lon="6.61478">
        <ele>350.06</ele>
        <time>2025-04-05T10:55:02Z</time>
      </trkpt>
      <trkpt lat="43.38768" lon="6.61478">
        <ele>350.06</ele>
        <time>2025-04-05T10:55:03Z</time>
      </trkpt>
      <trkpt lat="43.38795" lon="6.61481">
        <ele>350.06</ele>
        <time>2025-04-05T10:55:15Z</time>
      </trkpt>
      <trkpt lat="43.38798" lon="6.61483">
        <ele>350.54</ele>
        <time>2025-04-05T10:55:26Z</time>
      </trkpt>
      <trkpt lat="43.38809" lon="6.61489">
        <ele>350.54</ele>
        <time>2025-04-05T10:55:37Z</time>
      </trkpt>
      <trkpt lat="43.38817" lon="6.61494">
        <ele>350.54</ele>
        <time>2025-04-05T10:55:47Z</time>
      </trkpt>
      <trkpt lat="43.3882" lon="6.61495">
        <ele>350.54</ele>
        <time>2025-04-05T10:55:52Z</time>
      </trkpt>
      <trkpt lat="43.38828" lon="6.61501">
        <ele>350.54</ele>
        <time>2025-04-05T10:56:03Z</time>
      </trkpt>
      <trkpt lat="43.38828" lon="6.615">
        <ele>350.54</ele>
        <time>2025-04-05T10:56:15Z</time>
      </trkpt>
      <trkpt lat="43.38836" lon="6.61503">
        <ele>350.54</ele>
        <time>2025-04-05T10:56:27Z</time>
      </trkpt>
      <trkpt lat="43.38851" lon="6.61508">
        <ele>350.54</ele>
        <time>2025-04-05T10:56:43Z</time>
      </trkpt>
      <trkpt lat="43.38868" lon="6.61511">
        <ele>351.02</ele>
        <time>2025-04-05T10:57:01Z</time>
      </trkpt>
      <trkpt lat="43.38884" lon="6.61505">
        <ele>351.02</ele>
        <time>2025-04-05T10:57:19Z</time>
      </trkpt>
      <trkpt lat="43.38885" lon="6.61498">
        <ele>351.5</ele>
        <time>2025-04-05T10:57:33Z</time>
      </trkpt>
      <trkpt lat="43.38885" lon="6.61501">
        <ele>352.46</ele>
        <time>2025-04-05T10:57:46Z</time>
      </trkpt>
      <trkpt lat="43.38887" lon="6.61496">
        <ele>352.46</ele>
        <time>2025-04-05T10:58:04Z</time>
      </trkpt>
      <trkpt lat="43.38887" lon="6.61492">
        <ele>351.98</ele>
        <time>2025-04-05T10:58:41Z</time>
      </trkpt>
      <trkpt lat="43.38889" lon="6.61498">
        <ele>351.98</ele>
        <time>2025-04-05T10:59:11Z</time>
      </trkpt>
      <trkpt lat="43.38889" lon="6.61499">
        <ele>351.5</ele>
        <time>2025-04-05T10:59:51Z</time>
      </trkpt>
      <trkpt lat="43.38888" lon="6.61498">
        <ele>351.02</ele>
        <time>2025-04-05T11:00:10Z</time>
      </trkpt>
      <trkpt lat="43.38888" lon="6.61499">
        <ele>352.46</ele>
        <time>2025-04-05T11:00:27Z</time>
      </trkpt>
      <trkpt lat="43.38887" lon="6.61498">
        <ele>351.02</ele>
        <time>2025-04-05T11:00:36Z</time>
      </trkpt>
      <trkpt lat="43.38887" lon="6.61499">
        <ele>351.02</ele>
        <time>2025-04-05T11:01:29Z</time>
      </trkpt>
      <trkpt lat="43.38889" lon="6.615">
        <ele>351.02</ele>
        <time>2025-04-05T11:01:52Z</time>
      </trkpt>
      <trkpt lat="43.38888" lon="6.61494">
        <ele>351.02</ele>
        <time>2025-04-05T11:02:33Z</time>
      </trkpt>
      <trkpt lat="43.38891" lon="6.61498">
        <ele>351.02</ele>
        <time>2025-04-05T11:03:13Z</time>
      </trkpt>
      <trkpt lat="43.38887" lon="6.61496">
        <ele>351.98</ele>
        <time>2025-04-05T11:03:57Z</time>
      </trkpt>
      <trkpt lat="43.38889" lon="6.615">
        <ele>351.98</ele>
        <time>2025-04-05T11:04:42Z</time>
      </trkpt>
      <trkpt lat="43.3889" lon="6.61493">
        <ele>351.98</ele>
        <time>2025-04-05T11:05:21Z</time>
      </trkpt>
      <trkpt lat="43.38892" lon="6.61496">
        <ele>351.98</ele>
        <time>2025-04-05T11:05:54Z</time>
      </trkpt>
      <trkpt lat="43.38889" lon="6.61498">
        <ele>351.98</ele>
        <time>2025-04-05T11:06:37Z</time>
      </trkpt>
      <trkpt lat="43.38886" lon="6.61498">
        <ele>351.98</ele>
        <time>2025-04-05T11:07:17Z</time>
      </trkpt>
      <trkpt lat="43.3889" lon="6.61493">
        <ele>352.46</ele>
        <time>2025-04-05T11:07:55Z</time>
      </trkpt>
      <trkpt lat="43.38885" lon="6.61494">
        <ele>351.98</ele>
        <time>2025-04-05T11:08:35Z</time>
      </trkpt>
      <trkpt lat="43.38889" lon="6.61495">
        <ele>351.98</ele>
        <time>2025-04-05T11:09:17Z</time>
      </trkpt>
      <trkpt lat="43.38889" lon="6.61493">
        <ele>352.46</ele>
        <time>2025-04-05T11:09:51Z</time>
      </trkpt>
      <trkpt lat="43.38887" lon="6.61492">
        <ele>352.46</ele>
        <time>2025-04-05T11:10:22Z</time>
      </trkpt>
      <trkpt lat="43.38889" lon="6.61491">
        <ele>352.46</ele>
        <time>2025-04-05T11:11:05Z</time>
      </trkpt>
      <trkpt lat="43.38892" lon="6.61496">
        <ele>352.46</ele>
        <time>2025-04-05T11:11:48Z</time>
      </trkpt>
      <trkpt lat="43.38889" lon="6.61498">
        <ele>352.94</ele>
        <time>2025-04-05T11:12:28Z</time>
      </trkpt>
      <trkpt lat="43.38889" lon="6.61497">
        <ele>352.46</ele>
        <time>2025-04-05T11:13:03Z</time>
      </trkpt>
      <trkpt lat="43.38891" lon="6.61494">
        <ele>352.46</ele>
        <time>2025-04-05T11:13:27Z</time>
      </trkpt>
      <trkpt lat="43.38888" lon="6.61495">
        <ele>352.94</ele>
        <time>2025-04-05T11:13:54Z</time>
      </trkpt>
      <trkpt lat="43.38886" lon="6.61495">
        <ele>352.94</ele>
        <time>2025-04-05T11:14:09Z</time>
      </trkpt>
      <trkpt lat="43.38885" lon="6.61496">
        <ele>352.94</ele>
        <time>2025-04-05T11:14:48Z</time>
      </trkpt>
      <trkpt lat="43.38888" lon="6.615">
        <ele>352.94</ele>
        <time>2025-04-05T11:15:30Z</time>
      </trkpt>
      <trkpt lat="43.38888" lon="6.615">
        <ele>353.9</ele>
        <time>2025-04-05T11:16:10Z</time>
      </trkpt>
      <trkpt lat="43.38889" lon="6.61503">
        <ele>352.46</ele>
        <time>2025-04-05T11:16:14Z</time>
      </trkpt>
      <trkpt lat="43.38892" lon="6.61504">
        <ele>351.5</ele>
        <time>2025-04-05T11:16:17Z</time>
      </trkpt>
      <trkpt lat="43.38893" lon="6.61503">
        <ele>351.5</ele>
        <time>2025-04-05T11:16:18Z</time>
      </trkpt>
      <trkpt lat="43.38912" lon="6.615">
        <ele>350.54</ele>
        <time>2025-04-05T11:16:37Z</time>
      </trkpt>
      <trkpt lat="43.38923" lon="6.61503">
        <ele>350.54</ele>
        <time>2025-04-05T11:16:48Z</time>
      </trkpt>
      <trkpt lat="43.38923" lon="6.61504">
        <ele>350.54</ele>
        <time>2025-04-05T11:16:49Z</time>
      </trkpt>
      <trkpt lat="43.38924" lon="6.61506">
        <ele>350.54</ele>
        <time>2025-04-05T11:16:50Z</time>
      </trkpt>
      <trkpt lat="43.38924" lon="6.61508">
        <ele>350.54</ele>
        <time>2025-04-05T11:16:51Z</time>
      </trkpt>
      <trkpt lat="43.38924" lon="6.61509">
        <ele>350.54</ele>
        <time>2025-04-05T11:16:52Z</time>
      </trkpt>
      <trkpt lat="43.38925" lon="6.61511">
        <ele>350.54</ele>
        <time>2025-04-05T11:16:53Z</time>
      </trkpt>
      <trkpt lat="43.38925" lon="6.61513">
        <ele>350.54</ele>
        <time>2025-04-05T11:16:54Z</time>
      </trkpt>
      <trkpt lat="43.38929" lon="6.61523">
        <ele>350.54</ele>
        <time>2025-04-05T11:17:03Z</time>
      </trkpt>
      <trkpt lat="43.38932" lon="6.6154">
        <ele>351.5</ele>
        <time>2025-04-05T11:17:17Z</time>
      </trkpt>
      <trkpt lat="43.38931" lon="6.61545">
        <ele>351.5</ele>
        <time>2025-04-05T11:17:21Z</time>
      </trkpt>
      <trkpt lat="43.38933" lon="6.61554">
        <ele>351.5</ele>
        <time>2025-04-05T11:17:30Z</time>
      </trkpt>
      <trkpt lat="43.38943" lon="6.61553">
        <ele>351.5</ele>
        <time>2025-04-05T11:17:43Z</time>
      </trkpt>
      <trkpt lat="43.38946" lon="6.61549">
        <ele>350.06</ele>
        <time>2025-04-05T11:17:50Z</time>
      </trkpt>
      <trkpt lat="43.38951" lon="6.61553">
        <ele>349.58</ele>
        <time>2025-04-05T11:18:04Z</time>
      </trkpt>
      <trkpt lat="43.38956" lon="6.61556">
        <ele>348.62</ele>
        <time>2025-04-05T11:18:16Z</time>
      </trkpt>
      <trkpt lat="43.38957" lon="6.61558">
        <ele>348.62</ele>
        <time>2025-04-05T11:18:35Z</time>
      </trkpt>
      <trkpt lat="43.38955" lon="6.61564">
        <ele>349.58</ele>
        <time>2025-04-05T11:18:46Z</time>
      </trkpt>
      <trkpt lat="43.38954" lon="6.6157">
        <ele>349.58</ele>
        <time>2025-04-05T11:19:02Z</time>
      </trkpt>
      <trkpt lat="43.38955" lon="6.61579">
        <ele>349.58</ele>
        <time>2025-04-05T11:19:13Z</time>
      </trkpt>
      <trkpt lat="43.38954" lon="6.61582">
        <ele>348.13</ele>
        <time>2025-04-05T11:19:15Z</time>
      </trkpt>
      <trkpt lat="43.38954" lon="6.61584">
        <ele>348.13</ele>
        <time>2025-04-05T11:19:17Z</time>
      </trkpt>
      <trkpt lat="43.38954" lon="6.61586">
        <ele>348.13</ele>
        <time>2025-04-05T11:19:18Z</time>
      </trkpt>
      <trkpt lat="43.38955" lon="6.61594">
        <ele>347.65</ele>
        <time>2025-04-05T11:19:25Z</time>
      </trkpt>
      <trkpt lat="43.38963" lon="6.61598">
        <ele>347.65</ele>
        <time>2025-04-05T11:19:34Z</time>
      </trkpt>
      <trkpt lat="43.38975" lon="6.61607">
        <ele>346.69</ele>
        <time>2025-04-05T11:19:47Z</time>
      </trkpt>
      <trkpt lat="43.38981" lon="6.6162">
        <ele>345.73</ele>
        <time>2025-04-05T11:19:59Z</time>
      </trkpt>
      <trkpt lat="43.38984" lon="6.61632">
        <ele>343.81</ele>
        <time>2025-04-05T11:20:15Z</time>
      </trkpt>
      <trkpt lat="43.38985" lon="6.61635">
        <ele>343.33</ele>
        <time>2025-04-05T11:20:17Z</time>
      </trkpt>
      <trkpt lat="43.38989" lon="6.6165">
        <ele>341.41</ele>
        <time>2025-04-05T11:20:29Z</time>
      </trkpt>
      <trkpt lat="43.38992" lon="6.61668">
        <ele>338.04</ele>
        <time>2025-04-05T11:20:42Z</time>
      </trkpt>
      <trkpt lat="43.38992" lon="6.61669">
        <ele>338.04</ele>
        <time>2025-04-05T11:20:43Z</time>
      </trkpt>
      <trkpt lat="43.38992" lon="6.61671">
        <ele>338.04</ele>
        <time>2025-04-05T11:20:44Z</time>
      </trkpt>
      <trkpt lat="43.38991" lon="6.61672">
        <ele>337.56</ele>
        <time>2025-04-05T11:20:45Z</time>
      </trkpt>
      <trkpt lat="43.3899" lon="6.61673">
        <ele>337.56</ele>
        <time>2025-04-05T11:20:46Z</time>
      </trkpt>
      <trkpt lat="43.38988" lon="6.61677">
        <ele>337.56</ele>
        <time>2025-04-05T11:20:49Z</time>
      </trkpt>
      <trkpt lat="43.38985" lon="6.61697">
        <ele>334.68</ele>
        <time>2025-04-05T11:21:03Z</time>
      </trkpt>
      <trkpt lat="43.38984" lon="6.61707">
        <ele>332.27</ele>
        <time>2025-04-05T11:21:16Z</time>
      </trkpt>
      <trkpt lat="43.38986" lon="6.61716">
        <ele>328.43</ele>
        <time>2025-04-05T11:21:26Z</time>
      </trkpt>
      <trkpt lat="43.38986" lon="6.61731">
        <ele>325.54</ele>
        <time>2025-04-05T11:21:40Z</time>
      </trkpt>
      <trkpt lat="43.38987" lon="6.6174">
        <ele>324.1</ele>
        <time>2025-04-05T11:21:46Z</time>
      </trkpt>
      <trkpt lat="43.38988" lon="6.61743">
        <ele>324.1</ele>
        <time>2025-04-05T11:21:48Z</time>
      </trkpt>
      <trkpt lat="43.38988" lon="6.61745">
        <ele>323.62</ele>
        <time>2025-04-05T11:21:49Z</time>
      </trkpt>
      <trkpt lat="43.38987" lon="6.61747">
        <ele>323.62</ele>
        <time>2025-04-05T11:21:50Z</time>
      </trkpt>
      <trkpt lat="43.38987" lon="6.61749">
        <ele>323.62</ele>
        <time>2025-04-05T11:21:51Z</time>
      </trkpt>
      <trkpt lat="43.38988" lon="6.61752">
        <ele>323.14</ele>
        <time>2025-04-05T11:21:53Z</time>
      </trkpt>
      <trkpt lat="43.38994" lon="6.6177">
        <ele>320.26</ele>
        <time>2025-04-05T11:22:08Z</time>
      </trkpt>
      <trkpt lat="43.38994" lon="6.61771">
        <ele>320.26</ele>
        <time>2025-04-05T11:22:09Z</time>
      </trkpt>
      <trkpt lat="43.38994" lon="6.6178">
        <ele>317.85</ele>
        <time>2025-04-05T11:22:17Z</time>
      </trkpt>
      <trkpt lat="43.38995" lon="6.61783">
        <ele>317.37</ele>
        <time>2025-04-05T11:22:19Z</time>
      </trkpt>
      <trkpt lat="43.38995" lon="6.61785">
        <ele>317.37</ele>
        <time>2025-04-05T11:22:20Z</time>
      </trkpt>
      <trkpt lat="43.38997" lon="6.61794">
        <ele>315.93</ele>
        <time>2025-04-05T11:22:28Z</time>
      </trkpt>
      <trkpt lat="43.39" lon="6.618">
        <ele>314.01</ele>
        <time>2025-04-05T11:22:35Z</time>
      </trkpt>
      <trkpt lat="43.39004" lon="6.61807">
        <ele>313.53</ele>
        <time>2025-04-05T11:22:50Z</time>
      </trkpt>
      <trkpt lat="43.39005" lon="6.61818">
        <ele>309.68</ele>
        <time>2025-04-05T11:23:02Z</time>
      </trkpt>
      <trkpt lat="43.39005" lon="6.61819">
        <ele>309.2</ele>
        <time>2025-04-05T11:23:03Z</time>
      </trkpt>
      <trkpt lat="43.39006" lon="6.61828">
        <ele>305.84</ele>
        <time>2025-04-05T11:23:15Z</time>
      </trkpt>
      <trkpt lat="43.39007" lon="6.61838">
        <ele>303.43</ele>
        <time>2025-04-05T11:23:23Z</time>
      </trkpt>
      <trkpt lat="43.39004" lon="6.61852">
        <ele>300.55</ele>
        <time>2025-04-05T11:23:34Z</time>
      </trkpt>
      <trkpt lat="43.39002" lon="6.61868">
        <ele>297.67</ele>
        <time>2025-04-05T11:23:48Z</time>
      </trkpt>
      <trkpt lat="43.39002" lon="6.61871">
        <ele>297.18</ele>
        <time>2025-04-05T11:23:55Z</time>
      </trkpt>
      <trkpt lat="43.3901" lon="6.61884">
        <ele>295.26</ele>
        <time>2025-04-05T11:24:06Z</time>
      </trkpt>
      <trkpt lat="43.3901" lon="6.61886">
        <ele>295.26</ele>
        <time>2025-04-05T11:24:07Z</time>
      </trkpt>
      <trkpt lat="43.39008" lon="6.619">
        <ele>292.86</ele>
        <time>2025-04-05T11:24:17Z</time>
      </trkpt>
      <trkpt lat="43.39007" lon="6.61913">
        <ele>291.42</ele>
        <time>2025-04-05T11:24:27Z</time>
      </trkpt>
      <trkpt lat="43.3901" lon="6.61924">
        <ele>289.01</ele>
        <time>2025-04-05T11:24:38Z</time>
      </trkpt>
      <trkpt lat="43.39012" lon="6.61926">
        <ele>288.05</ele>
        <time>2025-04-05T11:24:42Z</time>
      </trkpt>
      <trkpt lat="43.39016" lon="6.61941">
        <ele>285.17</ele>
        <time>2025-04-05T11:24:54Z</time>
      </trkpt>
      <trkpt lat="43.39019" lon="6.61947">
        <ele>284.69</ele>
        <time>2025-04-05T11:24:58Z</time>
      </trkpt>
      <trkpt lat="43.39021" lon="6.6196">
        <ele>283.25</ele>
        <time>2025-04-05T11:25:09Z</time>
      </trkpt>
      <trkpt lat="43.39021" lon="6.61962">
        <ele>283.25</ele>
        <time>2025-04-05T11:25:10Z</time>
      </trkpt>
      <trkpt lat="43.39022" lon="6.61963">
        <ele>282.77</ele>
        <time>2025-04-05T11:25:11Z</time>
      </trkpt>
      <trkpt lat="43.39023" lon="6.61965">
        <ele>282.77</ele>
        <time>2025-04-05T11:25:12Z</time>
      </trkpt>
      <trkpt lat="43.39024" lon="6.61966">
        <ele>282.28</ele>
        <time>2025-04-05T11:25:13Z</time>
      </trkpt>
      <trkpt lat="43.39028" lon="6.61978">
        <ele>280.36</ele>
        <time>2025-04-05T11:25:23Z</time>
      </trkpt>
      <trkpt lat="43.39028" lon="6.61991">
        <ele>278.92</ele>
        <time>2025-04-05T11:25:32Z</time>
      </trkpt>
      <trkpt lat="43.39029" lon="6.61997">
        <ele>279.4</ele>
        <time>2025-04-05T11:25:36Z</time>
      </trkpt>
      <trkpt lat="43.3903" lon="6.62002">
        <ele>277.96</ele>
        <time>2025-04-05T11:25:39Z</time>
      </trkpt>
      <trkpt lat="43.3903" lon="6.62012">
        <ele>277</ele>
        <time>2025-04-05T11:25:46Z</time>
      </trkpt>
      <trkpt lat="43.39032" lon="6.62017">
        <ele>276.52</ele>
        <time>2025-04-05T11:25:51Z</time>
      </trkpt>
      <trkpt lat="43.3904" lon="6.62025">
        <ele>275.07</ele>
        <time>2025-04-05T11:26:06Z</time>
      </trkpt>
      <trkpt lat="43.39042" lon="6.62022">
        <ele>275.07</ele>
        <time>2025-04-05T11:26:08Z</time>
      </trkpt>
      <trkpt lat="43.39042" lon="6.62021">
        <ele>275.07</ele>
        <time>2025-04-05T11:26:09Z</time>
      </trkpt>
      <trkpt lat="43.39047" lon="6.62007">
        <ele>275.07</ele>
        <time>2025-04-05T11:26:23Z</time>
      </trkpt>
      <trkpt lat="43.39048" lon="6.62003">
        <ele>275.07</ele>
        <time>2025-04-05T11:26:54Z</time>
      </trkpt>
      <trkpt lat="43.39051" lon="6.61997">
        <ele>274.59</ele>
        <time>2025-04-05T11:27:02Z</time>
      </trkpt>
      <trkpt lat="43.39051" lon="6.61995">
        <ele>274.59</ele>
        <time>2025-04-05T11:27:03Z</time>
      </trkpt>
      <trkpt lat="43.39053" lon="6.61991">
        <ele>276.04</ele>
        <time>2025-04-05T11:27:06Z</time>
      </trkpt>
      <trkpt lat="43.39057" lon="6.61979">
        <ele>276.04</ele>
        <time>2025-04-05T11:27:21Z</time>
      </trkpt>
      <trkpt lat="43.39057" lon="6.61976">
        <ele>276.04</ele>
        <time>2025-04-05T11:27:27Z</time>
      </trkpt>
      <trkpt lat="43.39057" lon="6.61975">
        <ele>276.04</ele>
        <time>2025-04-05T11:27:29Z</time>
      </trkpt>
      <trkpt lat="43.39062" lon="6.61962">
        <ele>276.04</ele>
        <time>2025-04-05T11:27:42Z</time>
      </trkpt>
      <trkpt lat="43.39068" lon="6.61942">
        <ele>275.56</ele>
        <time>2025-04-05T11:27:56Z</time>
      </trkpt>
      <trkpt lat="43.39072" lon="6.6192">
        <ele>275.56</ele>
        <time>2025-04-05T11:28:10Z</time>
      </trkpt>
      <trkpt lat="43.39075" lon="6.61893">
        <ele>276.52</ele>
        <time>2025-04-05T11:28:26Z</time>
      </trkpt>
      <trkpt lat="43.39075" lon="6.6189">
        <ele>276.52</ele>
        <time>2025-04-05T11:28:28Z</time>
      </trkpt>
      <trkpt lat="43.39075" lon="6.61886">
        <ele>275.07</ele>
        <time>2025-04-05T11:28:31Z</time>
      </trkpt>
      <trkpt lat="43.39082" lon="6.61867">
        <ele>275.07</ele>
        <time>2025-04-05T11:28:46Z</time>
      </trkpt>
      <trkpt lat="43.39087" lon="6.6185">
        <ele>275.07</ele>
        <time>2025-04-05T11:29:01Z</time>
      </trkpt>
      <trkpt lat="43.39089" lon="6.61838">
        <ele>275.07</ele>
        <time>2025-04-05T11:29:09Z</time>
      </trkpt>
      <trkpt lat="43.3909" lon="6.61833">
        <ele>275.07</ele>
        <time>2025-04-05T11:29:12Z</time>
      </trkpt>
      <trkpt lat="43.39091" lon="6.61826">
        <ele>276.04</ele>
        <time>2025-04-05T11:29:17Z</time>
      </trkpt>
      <trkpt lat="43.39093" lon="6.61817">
        <ele>274.59</ele>
        <time>2025-04-05T11:29:23Z</time>
      </trkpt>
      <trkpt lat="43.39097" lon="6.61801">
        <ele>274.11</ele>
        <time>2025-04-05T11:29:37Z</time>
      </trkpt>
      <trkpt lat="43.39098" lon="6.61797">
        <ele>273.63</ele>
        <time>2025-04-05T11:29:41Z</time>
      </trkpt>
      <trkpt lat="43.39097" lon="6.6178">
        <ele>272.67</ele>
        <time>2025-04-05T11:29:54Z</time>
      </trkpt>
      <trkpt lat="43.39099" lon="6.61765">
        <ele>272.67</ele>
        <time>2025-04-05T11:30:03Z</time>
      </trkpt>
      <trkpt lat="43.3911" lon="6.61745">
        <ele>272.67</ele>
        <time>2025-04-05T11:30:18Z</time>
      </trkpt>
      <trkpt lat="43.39117" lon="6.61737">
        <ele>272.67</ele>
        <time>2025-04-05T11:30:27Z</time>
      </trkpt>
      <trkpt lat="43.39118" lon="6.61737">
        <ele>272.67</ele>
        <time>2025-04-05T11:30:28Z</time>
      </trkpt>
      <trkpt lat="43.3912" lon="6.61736">
        <ele>272.67</ele>
        <time>2025-04-05T11:30:29Z</time>
      </trkpt>
      <trkpt lat="43.39127" lon="6.61728">
        <ele>272.67</ele>
        <time>2025-04-05T11:30:42Z</time>
      </trkpt>
      <trkpt lat="43.39133" lon="6.61714">
        <ele>272.19</ele>
        <time>2025-04-05T11:30:56Z</time>
      </trkpt>
      <trkpt lat="43.39139" lon="6.61697">
        <ele>272.19</ele>
        <time>2025-04-05T11:31:11Z</time>
      </trkpt>
      <trkpt lat="43.39143" lon="6.61689">
        <ele>272.19</ele>
        <time>2025-04-05T11:31:16Z</time>
      </trkpt>
      <trkpt lat="43.39144" lon="6.61687">
        <ele>272.19</ele>
        <time>2025-04-05T11:31:17Z</time>
      </trkpt>
      <trkpt lat="43.39145" lon="6.61684">
        <ele>272.19</ele>
        <time>2025-04-05T11:31:18Z</time>
      </trkpt>
      <trkpt lat="43.3915" lon="6.61659">
        <ele>272.19</ele>
        <time>2025-04-05T11:31:32Z</time>
      </trkpt>
      <trkpt lat="43.39149" lon="6.6164">
        <ele>272.19</ele>
        <time>2025-04-05T11:31:45Z</time>
      </trkpt>
      <trkpt lat="43.39151" lon="6.61623">
        <ele>272.19</ele>
        <time>2025-04-05T11:31:58Z</time>
      </trkpt>
      <trkpt lat="43.39153" lon="6.61615">
        <ele>272.19</ele>
        <time>2025-04-05T11:32:04Z</time>
      </trkpt>
      <trkpt lat="43.39154" lon="6.61613">
        <ele>273.15</ele>
        <time>2025-04-05T11:32:06Z</time>
      </trkpt>
      <trkpt lat="43.39156" lon="6.61608">
        <ele>273.15</ele>
        <time>2025-04-05T11:32:09Z</time>
      </trkpt>
      <trkpt lat="43.39158" lon="6.61602">
        <ele>273.63</ele>
        <time>2025-04-05T11:32:23Z</time>
      </trkpt>
      <trkpt lat="43.39158" lon="6.61602">
        <ele>273.63</ele>
        <time>2025-04-05T11:32:40Z</time>
      </trkpt>
      <trkpt lat="43.39158" lon="6.61603">
        <ele>273.63</ele>
        <time>2025-04-05T11:32:52Z</time>
      </trkpt>
      <trkpt lat="43.39159" lon="6.61596">
        <ele>274.11</ele>
        <time>2025-04-05T11:33:20Z</time>
      </trkpt>
      <trkpt lat="43.39163" lon="6.61582">
        <ele>275.56</ele>
        <time>2025-04-05T11:33:33Z</time>
      </trkpt>
      <trkpt lat="43.39162" lon="6.61572">
        <ele>276.04</ele>
        <time>2025-04-05T11:33:41Z</time>
      </trkpt>
      <trkpt lat="43.39161" lon="6.61568">
        <ele>276.04</ele>
        <time>2025-04-05T11:33:44Z</time>
      </trkpt>
      <trkpt lat="43.39162" lon="6.61557">
        <ele>278.44</ele>
        <time>2025-04-05T11:33:55Z</time>
      </trkpt>
      <trkpt lat="43.39158" lon="6.61547">
        <ele>279.4</ele>
        <time>2025-04-05T11:34:10Z</time>
      </trkpt>
      <trkpt lat="43.39157" lon="6.61545">
        <ele>279.4</ele>
        <time>2025-04-05T11:34:27Z</time>
      </trkpt>
      <trkpt lat="43.39157" lon="6.61543">
        <ele>279.4</ele>
        <time>2025-04-05T11:34:47Z</time>
      </trkpt>
      <trkpt lat="43.39157" lon="6.61541">
        <ele>278.92</ele>
        <time>2025-04-05T11:35:07Z</time>
      </trkpt>
      <trkpt lat="43.39154" lon="6.61537">
        <ele>280.36</ele>
        <time>2025-04-05T11:35:13Z</time>
      </trkpt>
      <trkpt lat="43.3915" lon="6.61531">
        <ele>280.36</ele>
        <time>2025-04-05T11:35:18Z</time>
      </trkpt>
      <trkpt lat="43.39142" lon="6.61522">
        <ele>280.84</ele>
        <time>2025-04-05T11:35:28Z</time>
      </trkpt>
      <trkpt lat="43.39134" lon="6.6152">
        <ele>281.8</ele>
        <time>2025-04-05T11:35:38Z</time>
      </trkpt>
      <trkpt lat="43.39128" lon="6.61515">
        <ele>282.77</ele>
        <time>2025-04-05T11:35:46Z</time>
      </trkpt>
      <trkpt lat="43.39125" lon="6.61512">
        <ele>283.73</ele>
        <time>2025-04-05T11:36:01Z</time>
      </trkpt>
      <trkpt lat="43.3913" lon="6.61513">
        <ele>282.77</ele>
        <time>2025-04-05T11:36:31Z</time>
      </trkpt>
      <trkpt lat="43.39124" lon="6.61507">
        <ele>282.77</ele>
        <time>2025-04-05T11:37:02Z</time>
      </trkpt>
      <trkpt lat="43.39119" lon="6.61502">
        <ele>285.17</ele>
        <time>2025-04-05T11:37:09Z</time>
      </trkpt>
      <trkpt lat="43.3911" lon="6.61481">
        <ele>287.09</ele>
        <time>2025-04-05T11:37:28Z</time>
      </trkpt>
      <trkpt lat="43.39102" lon="6.6147">
        <ele>288.05</ele>
        <time>2025-04-05T11:37:40Z</time>
      </trkpt>
      <trkpt lat="43.3909" lon="6.61457">
        <ele>289.01</ele>
        <time>2025-04-05T11:37:54Z</time>
      </trkpt>
      <trkpt lat="43.39088" lon="6.61456">
        <ele>290.46</ele>
        <time>2025-04-05T11:37:56Z</time>
      </trkpt>
      <trkpt lat="43.39087" lon="6.61455">
        <ele>290.46</ele>
        <time>2025-04-05T11:37:57Z</time>
      </trkpt>
      <trkpt lat="43.39082" lon="6.61437">
        <ele>290.94</ele>
        <time>2025-04-05T11:38:12Z</time>
      </trkpt>
      <trkpt lat="43.39078" lon="6.61428">
        <ele>290.94</ele>
        <time>2025-04-05T11:38:36Z</time>
      </trkpt>
      <trkpt lat="43.3907" lon="6.61415">
        <ele>292.38</ele>
        <time>2025-04-05T11:38:52Z</time>
      </trkpt>
      <trkpt lat="43.39067" lon="6.61411">
        <ele>292.38</ele>
        <time>2025-04-05T11:38:57Z</time>
      </trkpt>
      <trkpt lat="43.39058" lon="6.61394">
        <ele>292.86</ele>
        <time>2025-04-05T11:39:12Z</time>
      </trkpt>
      <trkpt lat="43.39051" lon="6.61379">
        <ele>293.34</ele>
        <time>2025-04-05T11:39:26Z</time>
      </trkpt>
      <trkpt lat="43.39046" lon="6.61373">
        <ele>292.86</ele>
        <time>2025-04-05T11:39:39Z</time>
      </trkpt>
      <trkpt lat="43.3904" lon="6.61362">
        <ele>293.34</ele>
        <time>2025-04-05T11:39:54Z</time>
      </trkpt>
      <trkpt lat="43.39032" lon="6.61344">
        <ele>293.34</ele>
        <time>2025-04-05T11:40:09Z</time>
      </trkpt>
      <trkpt lat="43.39027" lon="6.61328">
        <ele>294.3</ele>
        <time>2025-04-05T11:40:22Z</time>
      </trkpt>
      <trkpt lat="43.39025" lon="6.61308">
        <ele>295.26</ele>
        <time>2025-04-05T11:40:35Z</time>
      </trkpt>
      <trkpt lat="43.39023" lon="6.61289">
        <ele>295.74</ele>
        <time>2025-04-05T11:40:50Z</time>
      </trkpt>
      <trkpt lat="43.39019" lon="6.61277">
        <ele>296.7</ele>
        <time>2025-04-05T11:41:04Z</time>
      </trkpt>
      <trkpt lat="43.39024" lon="6.61265">
        <ele>296.7</ele>
        <time>2025-04-05T11:41:18Z</time>
      </trkpt>
      <trkpt lat="43.39031" lon="6.61266">
        <ele>297.67</ele>
        <time>2025-04-05T11:41:28Z</time>
      </trkpt>
      <trkpt lat="43.39038" lon="6.61271">
        <ele>298.63</ele>
        <time>2025-04-05T11:41:36Z</time>
      </trkpt>
      <trkpt lat="43.39042" lon="6.61274">
        <ele>298.63</ele>
        <time>2025-04-05T11:41:48Z</time>
      </trkpt>
      <trkpt lat="43.39046" lon="6.61275">
        <ele>298.63</ele>
        <time>2025-04-05T11:41:53Z</time>
      </trkpt>
      <trkpt lat="43.39059" lon="6.6128">
        <ele>300.55</ele>
        <time>2025-04-05T11:42:08Z</time>
      </trkpt>
      <trkpt lat="43.39071" lon="6.61278">
        <ele>301.99</ele>
        <time>2025-04-05T11:42:22Z</time>
      </trkpt>
      <trkpt lat="43.39085" lon="6.61273">
        <ele>303.43</ele>
        <time>2025-04-05T11:42:39Z</time>
      </trkpt>
      <trkpt lat="43.39097" lon="6.61266">
        <ele>304.88</ele>
        <time>2025-04-05T11:42:54Z</time>
      </trkpt>
      <trkpt lat="43.39108" lon="6.61259">
        <ele>305.84</ele>
        <time>2025-04-05T11:43:07Z</time>
      </trkpt>
      <trkpt lat="43.39117" lon="6.61256">
        <ele>306.32</ele>
        <time>2025-04-05T11:43:16Z</time>
      </trkpt>
      <trkpt lat="43.39132" lon="6.61258">
        <ele>307.76</ele>
        <time>2025-04-05T11:43:32Z</time>
      </trkpt>
      <trkpt lat="43.39141" lon="6.6126">
        <ele>308.72</ele>
        <time>2025-04-05T11:43:47Z</time>
      </trkpt>
      <trkpt lat="43.39151" lon="6.61265">
        <ele>308.72</ele>
        <time>2025-04-05T11:44:00Z</time>
      </trkpt>
      <trkpt lat="43.39161" lon="6.61272">
        <ele>311.12</ele>
        <time>2025-04-05T11:44:14Z</time>
      </trkpt>
      <trkpt lat="43.39165" lon="6.61275">
        <ele>311.12</ele>
        <time>2025-04-05T11:44:18Z</time>
      </trkpt>
      <trkpt lat="43.39173" lon="6.61286">
        <ele>312.09</ele>
        <time>2025-04-05T11:44:32Z</time>
      </trkpt>
      <trkpt lat="43.39183" lon="6.61294">
        <ele>312.57</ele>
        <time>2025-04-05T11:44:46Z</time>
      </trkpt>
      <trkpt lat="43.39197" lon="6.61302">
        <ele>314.01</ele>
        <time>2025-04-05T11:45:01Z</time>
      </trkpt>
      <trkpt lat="43.39207" lon="6.61304">
        <ele>314.97</ele>
        <time>2025-04-05T11:45:13Z</time>
      </trkpt>
      <trkpt lat="43.39219" lon="6.61307">
        <ele>315.45</ele>
        <time>2025-04-05T11:45:26Z</time>
      </trkpt>
      <trkpt lat="43.39226" lon="6.61305">
        <ele>315.93</ele>
        <time>2025-04-05T11:45:33Z</time>
      </trkpt>
      <trkpt lat="43.39227" lon="6.61304">
        <ele>315.93</ele>
        <time>2025-04-05T11:45:34Z</time>
      </trkpt>
      <trkpt lat="43.39235" lon="6.61296">
        <ele>317.37</ele>
        <time>2025-04-05T11:45:44Z</time>
      </trkpt>
      <trkpt lat="43.39239" lon="6.61286">
        <ele>317.37</ele>
        <time>2025-04-05T11:45:55Z</time>
      </trkpt>
      <trkpt lat="43.39243" lon="6.61265">
        <ele>317.85</ele>
        <time>2025-04-05T11:46:08Z</time>
      </trkpt>
      <trkpt lat="43.39238" lon="6.61254">
        <ele>319.3</ele>
        <time>2025-04-05T11:46:21Z</time>
      </trkpt>
      <trkpt lat="43.39227" lon="6.61259">
        <ele>320.26</ele>
        <time>2025-04-05T11:46:36Z</time>
      </trkpt>
      <trkpt lat="43.39217" lon="6.61252">
        <ele>321.22</ele>
        <time>2025-04-05T11:46:48Z</time>
      </trkpt>
      <trkpt lat="43.39214" lon="6.61234">
        <ele>322.66</ele>
        <time>2025-04-05T11:47:03Z</time>
      </trkpt>
      <trkpt lat="43.3922" lon="6.61219">
        <ele>324.58</ele>
        <time>2025-04-05T11:47:17Z</time>
      </trkpt>
      <trkpt lat="43.39227" lon="6.61207">
        <ele>326.02</ele>
        <time>2025-04-05T11:47:31Z</time>
      </trkpt>
      <trkpt lat="43.39232" lon="6.61195">
        <ele>326.02</ele>
        <time>2025-04-05T11:47:43Z</time>
      </trkpt>
      <trkpt lat="43.39237" lon="6.61183">
        <ele>327.95</ele>
        <time>2025-04-05T11:47:56Z</time>
      </trkpt>
      <trkpt lat="43.39239" lon="6.6118">
        <ele>327.95</ele>
        <time>2025-04-05T11:47:59Z</time>
      </trkpt>
      <trkpt lat="43.39239" lon="6.61178">
        <ele>327.95</ele>
        <time>2025-04-05T11:48:00Z</time>
      </trkpt>
      <trkpt lat="43.3924" lon="6.61177">
        <ele>327.95</ele>
        <time>2025-04-05T11:48:01Z</time>
      </trkpt>
      <trkpt lat="43.39244" lon="6.61169">
        <ele>328.91</ele>
        <time>2025-04-05T11:48:13Z</time>
      </trkpt>
      <trkpt lat="43.39248" lon="6.61158">
        <ele>329.39</ele>
        <time>2025-04-05T11:48:22Z</time>
      </trkpt>
      <trkpt lat="43.39253" lon="6.61149">
        <ele>330.83</ele>
        <time>2025-04-05T11:48:31Z</time>
      </trkpt>
      <trkpt lat="43.39258" lon="6.61135">
        <ele>332.27</ele>
        <time>2025-04-05T11:48:45Z</time>
      </trkpt>
      <trkpt lat="43.39252" lon="6.61135">
        <ele>333.71</ele>
        <time>2025-04-05T11:48:58Z</time>
      </trkpt>
      <trkpt lat="43.39248" lon="6.61142">
        <ele>334.2</ele>
        <time>2025-04-05T11:49:05Z</time>
      </trkpt>
      <trkpt lat="43.39247" lon="6.61144">
        <ele>334.2</ele>
        <time>2025-04-05T11:49:06Z</time>
      </trkpt>
      <trkpt lat="43.39234" lon="6.61159">
        <ele>335.16</ele>
        <time>2025-04-05T11:49:22Z</time>
      </trkpt>
      <trkpt lat="43.39218" lon="6.61169">
        <ele>335.64</ele>
        <time>2025-04-05T11:49:38Z</time>
      </trkpt>
      <trkpt lat="43.39215" lon="6.61169">
        <ele>336.12</ele>
        <time>2025-04-05T11:49:42Z</time>
      </trkpt>
      <trkpt lat="43.39201" lon="6.61166">
        <ele>336.6</ele>
        <time>2025-04-05T11:49:56Z</time>
      </trkpt>
      <trkpt lat="43.39195" lon="6.61164">
        <ele>337.56</ele>
        <time>2025-04-05T11:50:02Z</time>
      </trkpt>
      <trkpt lat="43.39186" lon="6.61162">
        <ele>338.04</ele>
        <time>2025-04-05T11:50:12Z</time>
      </trkpt>
      <trkpt lat="43.3918" lon="6.61161">
        <ele>337.56</ele>
        <time>2025-04-05T11:50:17Z</time>
      </trkpt>
      <trkpt lat="43.39163" lon="6.61163">
        <ele>338.04</ele>
        <time>2025-04-05T11:50:32Z</time>
      </trkpt>
      <trkpt lat="43.3916" lon="6.61164">
        <ele>338.52</ele>
        <time>2025-04-05T11:50:34Z</time>
      </trkpt>
      <trkpt lat="43.39159" lon="6.61165">
        <ele>338.52</ele>
        <time>2025-04-05T11:50:35Z</time>
      </trkpt>
      <trkpt lat="43.39148" lon="6.61169">
        <ele>339.48</ele>
        <time>2025-04-05T11:50:46Z</time>
      </trkpt>
      <trkpt lat="43.3914" lon="6.61168">
        <ele>339.96</ele>
        <time>2025-04-05T11:50:53Z</time>
      </trkpt>
      <trkpt lat="43.39127" lon="6.61165">
        <ele>340.44</ele>
        <time>2025-04-05T11:51:07Z</time>
      </trkpt>
      <trkpt lat="43.39136" lon="6.61159">
        <ele>342.37</ele>
        <time>2025-04-05T11:51:22Z</time>
      </trkpt>
      <trkpt lat="43.39137" lon="6.61159">
        <ele>342.37</ele>
        <time>2025-04-05T11:51:23Z</time>
      </trkpt>
      <trkpt lat="43.39151" lon="6.61148">
        <ele>344.77</ele>
        <time>2025-04-05T11:51:41Z</time>
      </trkpt>
      <trkpt lat="43.39162" lon="6.61136">
        <ele>345.73</ele>
        <time>2025-04-05T11:51:57Z</time>
      </trkpt>
      <trkpt lat="43.39173" lon="6.61128">
        <ele>346.69</ele>
        <time>2025-04-05T11:52:12Z</time>
      </trkpt>
      <trkpt lat="43.39188" lon="6.61123">
        <ele>347.65</ele>
        <time>2025-04-05T11:52:27Z</time>
      </trkpt>
      <trkpt lat="43.392" lon="6.61118">
        <ele>348.62</ele>
        <time>2025-04-05T11:52:41Z</time>
      </trkpt>
      <trkpt lat="43.39216" lon="6.61115">
        <ele>349.58</ele>
        <time>2025-04-05T11:52:58Z</time>
      </trkpt>
      <trkpt lat="43.39228" lon="6.61102">
        <ele>350.54</ele>
        <time>2025-04-05T11:53:13Z</time>
      </trkpt>
      <trkpt lat="43.39232" lon="6.61085">
        <ele>352.46</ele>
        <time>2025-04-05T11:53:29Z</time>
      </trkpt>
      <trkpt lat="43.39235" lon="6.61071">
        <ele>353.9</ele>
        <time>2025-04-05T11:53:42Z</time>
      </trkpt>
      <trkpt lat="43.39237" lon="6.61051">
        <ele>355.83</ele>
        <time>2025-04-05T11:53:58Z</time>
      </trkpt>
      <trkpt lat="43.39237" lon="6.61038">
        <ele>357.75</ele>
        <time>2025-04-05T11:54:12Z</time>
      </trkpt>
      <trkpt lat="43.39237" lon="6.61027">
        <ele>357.75</ele>
        <time>2025-04-05T11:54:19Z</time>
      </trkpt>
      <trkpt lat="43.39238" lon="6.61026">
        <ele>357.75</ele>
        <time>2025-04-05T11:54:20Z</time>
      </trkpt>
      <trkpt lat="43.39238" lon="6.61024">
        <ele>357.75</ele>
        <time>2025-04-05T11:54:21Z</time>
      </trkpt>
      <trkpt lat="43.39238" lon="6.61006">
        <ele>358.23</ele>
        <time>2025-04-05T11:54:34Z</time>
      </trkpt>
      <trkpt lat="43.39238" lon="6.61004">
        <ele>358.23</ele>
        <time>2025-04-05T11:54:35Z</time>
      </trkpt>
      <trkpt lat="43.39238" lon="6.61002">
        <ele>358.23</ele>
        <time>2025-04-05T11:54:36Z</time>
      </trkpt>
      <trkpt lat="43.39238" lon="6.61">
        <ele>358.23</ele>
        <time>2025-04-05T11:54:37Z</time>
      </trkpt>
      <trkpt lat="43.39238" lon="6.60999">
        <ele>358.23</ele>
        <time>2025-04-05T11:54:38Z</time>
      </trkpt>
      <trkpt lat="43.39245" lon="6.60969">
        <ele>358.71</ele>
        <time>2025-04-05T11:54:54Z</time>
      </trkpt>
      <trkpt lat="43.39263" lon="6.6095">
        <ele>358.71</ele>
        <time>2025-04-05T11:55:12Z</time>
      </trkpt>
      <trkpt lat="43.39263" lon="6.60949">
        <ele>358.71</ele>
        <time>2025-04-05T11:55:13Z</time>
      </trkpt>
      <trkpt lat="43.39264" lon="6.60947">
        <ele>358.71</ele>
        <time>2025-04-05T11:55:14Z</time>
      </trkpt>
      <trkpt lat="43.39265" lon="6.60946">
        <ele>358.71</ele>
        <time>2025-04-05T11:55:15Z</time>
      </trkpt>
      <trkpt lat="43.39276" lon="6.60926">
        <ele>359.67</ele>
        <time>2025-04-05T11:55:31Z</time>
      </trkpt>
      <trkpt lat="43.3929" lon="6.60902">
        <ele>359.67</ele>
        <time>2025-04-05T11:55:50Z</time>
      </trkpt>
      <trkpt lat="43.39291" lon="6.60901">
        <ele>359.67</ele>
        <time>2025-04-05T11:55:51Z</time>
      </trkpt>
      <trkpt lat="43.39306" lon="6.60896">
        <ele>359.67</ele>
        <time>2025-04-05T11:56:05Z</time>
      </trkpt>
      <trkpt lat="43.39307" lon="6.60895">
        <ele>359.67</ele>
        <time>2025-04-05T11:56:06Z</time>
      </trkpt>
      <trkpt lat="43.3933" lon="6.60898">
        <ele>360.63</ele>
        <time>2025-04-05T11:56:25Z</time>
      </trkpt>
      <trkpt lat="43.39344" lon="6.60886">
        <ele>360.63</ele>
        <time>2025-04-05T11:56:39Z</time>
      </trkpt>
      <trkpt lat="43.39344" lon="6.60884">
        <ele>360.63</ele>
        <time>2025-04-05T11:56:40Z</time>
      </trkpt>
      <trkpt lat="43.39359" lon="6.60862">
        <ele>361.11</ele>
        <time>2025-04-05T11:56:57Z</time>
      </trkpt>
      <trkpt lat="43.3938" lon="6.6087">
        <ele>361.59</ele>
        <time>2025-04-05T11:57:13Z</time>
      </trkpt>
      <trkpt lat="43.39402" lon="6.60864">
        <ele>362.07</ele>
        <time>2025-04-05T11:57:32Z</time>
      </trkpt>
      <trkpt lat="43.3942" lon="6.60854">
        <ele>362.07</ele>
        <time>2025-04-05T11:57:46Z</time>
      </trkpt>
      <trkpt lat="43.39436" lon="6.60876">
        <ele>363.04</ele>
        <time>2025-04-05T11:58:00Z</time>
      </trkpt>
      <trkpt lat="43.39456" lon="6.60877">
        <ele>363.04</ele>
        <time>2025-04-05T11:58:16Z</time>
      </trkpt>
      <trkpt lat="43.39479" lon="6.60869">
        <ele>363.04</ele>
        <time>2025-04-05T11:58:33Z</time>
      </trkpt>
      <trkpt lat="43.39484" lon="6.60871">
        <ele>363.04</ele>
        <time>2025-04-05T11:58:37Z</time>
      </trkpt>
      <trkpt lat="43.39506" lon="6.60891">
        <ele>363.04</ele>
        <time>2025-04-05T11:58:55Z</time>
      </trkpt>
      <trkpt lat="43.39508" lon="6.60893">
        <ele>363.04</ele>
        <time>2025-04-05T11:58:57Z</time>
      </trkpt>
      <trkpt lat="43.3951" lon="6.60894">
        <ele>363.04</ele>
        <time>2025-04-05T11:58:58Z</time>
      </trkpt>
      <trkpt lat="43.39511" lon="6.60895">
        <ele>363.04</ele>
        <time>2025-04-05T11:58:59Z</time>
      </trkpt>
      <trkpt lat="43.39512" lon="6.60897">
        <ele>363.04</ele>
        <time>2025-04-05T11:59:00Z</time>
      </trkpt>
      <trkpt lat="43.39527" lon="6.60906">
        <ele>363.52</ele>
        <time>2025-04-05T11:59:13Z</time>
      </trkpt>
      <trkpt lat="43.3955" lon="6.60912">
        <ele>364</ele>
        <time>2025-04-05T11:59:30Z</time>
      </trkpt>
      <trkpt lat="43.39573" lon="6.60914">
        <ele>364</ele>
        <time>2025-04-05T11:59:47Z</time>
      </trkpt>
      <trkpt lat="43.39597" lon="6.60912">
        <ele>364.96</ele>
        <time>2025-04-05T12:00:04Z</time>
      </trkpt>
      <trkpt lat="43.3962" lon="6.60903">
        <ele>365.92</ele>
        <time>2025-04-05T12:00:22Z</time>
      </trkpt>
      <trkpt lat="43.39641" lon="6.60901">
        <ele>366.88</ele>
        <time>2025-04-05T12:00:39Z</time>
      </trkpt>
      <trkpt lat="43.39652" lon="6.60897">
        <ele>367.84</ele>
        <time>2025-04-05T12:00:58Z</time>
      </trkpt>
      <trkpt lat="43.39658" lon="6.60899">
        <ele>367.84</ele>
        <time>2025-04-05T12:01:18Z</time>
      </trkpt>
      <trkpt lat="43.3966" lon="6.60896">
        <ele>367.84</ele>
        <time>2025-04-05T12:01:34Z</time>
      </trkpt>
      <trkpt lat="43.39661" lon="6.60895">
        <ele>367.84</ele>
        <time>2025-04-05T12:01:37Z</time>
      </trkpt>
      <trkpt lat="43.39662" lon="6.60894">
        <ele>367.84</ele>
        <time>2025-04-05T12:01:38Z</time>
      </trkpt>
      <trkpt lat="43.39663" lon="6.60894">
        <ele>367.84</ele>
        <time>2025-04-05T12:01:39Z</time>
      </trkpt>
      <trkpt lat="43.39675" lon="6.60884">
        <ele>367.84</ele>
        <time>2025-04-05T12:01:55Z</time>
      </trkpt>
      <trkpt lat="43.39677" lon="6.60881">
        <ele>367.84</ele>
        <time>2025-04-05T12:02:00Z</time>
      </trkpt>
      <trkpt lat="43.39685" lon="6.60889">
        <ele>367.84</ele>
        <time>2025-04-05T12:02:10Z</time>
      </trkpt>
      <trkpt lat="43.39685" lon="6.60891">
        <ele>367.84</ele>
        <time>2025-04-05T12:02:11Z</time>
      </trkpt>
      <trkpt lat="43.39685" lon="6.60893">
        <ele>367.84</ele>
        <time>2025-04-05T12:02:12Z</time>
      </trkpt>
      <trkpt lat="43.39685" lon="6.60895">
        <ele>367.84</ele>
        <time>2025-04-05T12:02:13Z</time>
      </trkpt>
      <trkpt lat="43.39685" lon="6.60897">
        <ele>367.84</ele>
        <time>2025-04-05T12:02:14Z</time>
      </trkpt>
      <trkpt lat="43.39685" lon="6.60898">
        <ele>367.84</ele>
        <time>2025-04-05T12:02:15Z</time>
      </trkpt>
      <trkpt lat="43.39678" lon="6.60926">
        <ele>368.8</ele>
        <time>2025-04-05T12:02:32Z</time>
      </trkpt>
      <trkpt lat="43.39672" lon="6.60945">
        <ele>368.8</ele>
        <time>2025-04-05T12:02:43Z</time>
      </trkpt>
      <trkpt lat="43.39672" lon="6.60949">
        <ele>369.28</ele>
        <time>2025-04-05T12:02:45Z</time>
      </trkpt>
      <trkpt lat="43.39672" lon="6.6095">
        <ele>369.28</ele>
        <time>2025-04-05T12:02:46Z</time>
      </trkpt>
      <trkpt lat="43.39665" lon="6.60975">
        <ele>369.76</ele>
        <time>2025-04-05T12:02:59Z</time>
      </trkpt>
      <trkpt lat="43.39664" lon="6.60977">
        <ele>369.76</ele>
        <time>2025-04-05T12:03:00Z</time>
      </trkpt>
      <trkpt lat="43.39656" lon="6.61004">
        <ele>370.24</ele>
        <time>2025-04-05T12:03:17Z</time>
      </trkpt>
      <trkpt lat="43.39656" lon="6.61005">
        <ele>370.24</ele>
        <time>2025-04-05T12:03:18Z</time>
      </trkpt>
      <trkpt lat="43.39656" lon="6.61007">
        <ele>370.24</ele>
        <time>2025-04-05T12:03:19Z</time>
      </trkpt>
      <trkpt lat="43.39652" lon="6.61011">
        <ele>370.24</ele>
        <time>2025-04-05T12:03:33Z</time>
      </trkpt>
      <trkpt lat="43.39654" lon="6.61007">
        <ele>371.21</ele>
        <time>2025-04-05T12:03:47Z</time>
      </trkpt>
      <trkpt lat="43.39656" lon="6.61006">
        <ele>371.21</ele>
        <time>2025-04-05T12:04:04Z</time>
      </trkpt>
      <trkpt lat="43.39657" lon="6.61005">
        <ele>371.21</ele>
        <time>2025-04-05T12:04:05Z</time>
      </trkpt>
      <trkpt lat="43.39662" lon="6.60994">
        <ele>372.65</ele>
        <time>2025-04-05T12:04:18Z</time>
      </trkpt>
      <trkpt lat="43.39661" lon="6.61">
        <ele>373.13</ele>
        <time>2025-04-05T12:04:28Z</time>
      </trkpt>
      <trkpt lat="43.3966" lon="6.61002">
        <ele>373.13</ele>
        <time>2025-04-05T12:04:29Z</time>
      </trkpt>
      <trkpt lat="43.3966" lon="6.61004">
        <ele>371.69</ele>
        <time>2025-04-05T12:04:30Z</time>
      </trkpt>
      <trkpt lat="43.39659" lon="6.61006">
        <ele>371.69</ele>
        <time>2025-04-05T12:04:31Z</time>
      </trkpt>
      <trkpt lat="43.39659" lon="6.61008">
        <ele>371.69</ele>
        <time>2025-04-05T12:04:32Z</time>
      </trkpt>
      <trkpt lat="43.39658" lon="6.6101">
        <ele>371.21</ele>
        <time>2025-04-05T12:04:33Z</time>
      </trkpt>
      <trkpt lat="43.39658" lon="6.61011">
        <ele>371.21</ele>
        <time>2025-04-05T12:04:34Z</time>
      </trkpt>
      <trkpt lat="43.39658" lon="6.61013">
        <ele>371.21</ele>
        <time>2025-04-05T12:04:35Z</time>
      </trkpt>
      <trkpt lat="43.39657" lon="6.61015">
        <ele>371.21</ele>
        <time>2025-04-05T12:04:36Z</time>
      </trkpt>
      <trkpt lat="43.39657" lon="6.61017">
        <ele>370.73</ele>
        <time>2025-04-05T12:04:37Z</time>
      </trkpt>
      <trkpt lat="43.39653" lon="6.6103">
        <ele>370.24</ele>
        <time>2025-04-05T12:04:50Z</time>
      </trkpt>
      <trkpt lat="43.39653" lon="6.61035">
        <ele>370.24</ele>
        <time>2025-04-05T12:04:53Z</time>
      </trkpt>
      <trkpt lat="43.39654" lon="6.61038">
        <ele>370.24</ele>
        <time>2025-04-05T12:04:54Z</time>
      </trkpt>
      <trkpt lat="43.39655" lon="6.61041">
        <ele>370.24</ele>
        <time>2025-04-05T12:04:56Z</time>
      </trkpt>
      <trkpt lat="43.39657" lon="6.61043">
        <ele>370.24</ele>
        <time>2025-04-05T12:04:57Z</time>
      </trkpt>
      <trkpt lat="43.39665" lon="6.61059">
        <ele>370.24</ele>
        <time>2025-04-05T12:05:09Z</time>
      </trkpt>
      <trkpt lat="43.39682" lon="6.61079">
        <ele>370.24</ele>
        <time>2025-04-05T12:05:26Z</time>
      </trkpt>
      <trkpt lat="43.39686" lon="6.61086">
        <ele>371.21</ele>
        <time>2025-04-05T12:05:37Z</time>
      </trkpt>
      <trkpt lat="43.39687" lon="6.6109">
        <ele>371.21</ele>
        <time>2025-04-05T12:05:55Z</time>
      </trkpt>
      <trkpt lat="43.3969" lon="6.61098">
        <ele>371.21</ele>
        <time>2025-04-05T12:06:14Z</time>
      </trkpt>
      <trkpt lat="43.3969" lon="6.61101">
        <ele>371.21</ele>
        <time>2025-04-05T12:06:16Z</time>
      </trkpt>
      <trkpt lat="43.39691" lon="6.61103">
        <ele>371.21</ele>
        <time>2025-04-05T12:06:17Z</time>
      </trkpt>
      <trkpt lat="43.39691" lon="6.61105">
        <ele>371.21</ele>
        <time>2025-04-05T12:06:18Z</time>
      </trkpt>
      <trkpt lat="43.39691" lon="6.61106">
        <ele>371.21</ele>
        <time>2025-04-05T12:06:19Z</time>
      </trkpt>
      <trkpt lat="43.39691" lon="6.61108">
        <ele>371.21</ele>
        <time>2025-04-05T12:06:20Z</time>
      </trkpt>
      <trkpt lat="43.39692" lon="6.6111">
        <ele>371.21</ele>
        <time>2025-04-05T12:06:21Z</time>
      </trkpt>
      <trkpt lat="43.3969" lon="6.61137">
        <ele>371.21</ele>
        <time>2025-04-05T12:06:36Z</time>
      </trkpt>
      <trkpt lat="43.39679" lon="6.6117">
        <ele>372.17</ele>
        <time>2025-04-05T12:06:53Z</time>
      </trkpt>
      <trkpt lat="43.3967" lon="6.61189">
        <ele>372.65</ele>
        <time>2025-04-05T12:07:05Z</time>
      </trkpt>
      <trkpt lat="43.39671" lon="6.61191">
        <ele>372.65</ele>
        <time>2025-04-05T12:07:06Z</time>
      </trkpt>
      <trkpt lat="43.39672" lon="6.61192">
        <ele>372.65</ele>
        <time>2025-04-05T12:07:07Z</time>
      </trkpt>
      <trkpt lat="43.39672" lon="6.61194">
        <ele>372.65</ele>
        <time>2025-04-05T12:07:08Z</time>
      </trkpt>
      <trkpt lat="43.39672" lon="6.61195">
        <ele>372.65</ele>
        <time>2025-04-05T12:07:09Z</time>
      </trkpt>
      <trkpt lat="43.39672" lon="6.61209">
        <ele>372.65</ele>
        <time>2025-04-05T12:07:17Z</time>
      </trkpt>
      <trkpt lat="43.39672" lon="6.6121">
        <ele>372.65</ele>
        <time>2025-04-05T12:07:18Z</time>
      </trkpt>
      <trkpt lat="43.39679" lon="6.61238">
        <ele>372.17</ele>
        <time>2025-04-05T12:07:34Z</time>
      </trkpt>
      <trkpt lat="43.39687" lon="6.61267">
        <ele>372.65</ele>
        <time>2025-04-05T12:07:50Z</time>
      </trkpt>
      <trkpt lat="43.397" lon="6.61291">
        <ele>372.65</ele>
        <time>2025-04-05T12:08:07Z</time>
      </trkpt>
      <trkpt lat="43.3972" lon="6.61308">
        <ele>373.61</ele>
        <time>2025-04-05T12:08:25Z</time>
      </trkpt>
      <trkpt lat="43.39742" lon="6.61316">
        <ele>374.09</ele>
        <time>2025-04-05T12:08:42Z</time>
      </trkpt>
      <trkpt lat="43.39749" lon="6.61317">
        <ele>374.57</ele>
        <time>2025-04-05T12:08:48Z</time>
      </trkpt>
      <trkpt lat="43.39767" lon="6.61333">
        <ele>374.57</ele>
        <time>2025-04-05T12:09:03Z</time>
      </trkpt>
      <trkpt lat="43.39772" lon="6.61363">
        <ele>375.05</ele>
        <time>2025-04-05T12:09:20Z</time>
      </trkpt>
      <trkpt lat="43.39769" lon="6.61385">
        <ele>375.53</ele>
        <time>2025-04-05T12:09:31Z</time>
      </trkpt>
      <trkpt lat="43.39769" lon="6.61387">
        <ele>375.53</ele>
        <time>2025-04-05T12:09:32Z</time>
      </trkpt>
      <trkpt lat="43.39772" lon="6.6142">
        <ele>376.01</ele>
        <time>2025-04-05T12:09:49Z</time>
      </trkpt>
      <trkpt lat="43.39775" lon="6.61451">
        <ele>376.49</ele>
        <time>2025-04-05T12:10:05Z</time>
      </trkpt>
      <trkpt lat="43.39785" lon="6.61482">
        <ele>376.49</ele>
        <time>2025-04-05T12:10:24Z</time>
      </trkpt>
      <trkpt lat="43.39798" lon="6.61496">
        <ele>376.97</ele>
        <time>2025-04-05T12:10:41Z</time>
      </trkpt>
      <trkpt lat="43.39817" lon="6.615">
        <ele>376.97</ele>
        <time>2025-04-05T12:10:57Z</time>
      </trkpt>
      <trkpt lat="43.3984" lon="6.61499">
        <ele>377.45</ele>
        <time>2025-04-05T12:11:14Z</time>
      </trkpt>
      <trkpt lat="43.39849" lon="6.61503">
        <ele>377.94</ele>
        <time>2025-04-05T12:11:22Z</time>
      </trkpt>
      <trkpt lat="43.3985" lon="6.61504">
        <ele>377.94</ele>
        <time>2025-04-05T12:11:23Z</time>
      </trkpt>
      <trkpt lat="43.39868" lon="6.61536">
        <ele>378.9</ele>
        <time>2025-04-05T12:11:39Z</time>
      </trkpt>
      <trkpt lat="43.39876" lon="6.6157">
        <ele>378.42</ele>
        <time>2025-04-05T12:11:57Z</time>
      </trkpt>
      <trkpt lat="43.39878" lon="6.61585">
        <ele>378.9</ele>
        <time>2025-04-05T12:12:07Z</time>
      </trkpt>
      <trkpt lat="43.39879" lon="6.61587">
        <ele>378.9</ele>
        <time>2025-04-05T12:12:08Z</time>
      </trkpt>
      <trkpt lat="43.39879" lon="6.61588">
        <ele>378.9</ele>
        <time>2025-04-05T12:12:09Z</time>
      </trkpt>
      <trkpt lat="43.3988" lon="6.6159">
        <ele>378.9</ele>
        <time>2025-04-05T12:12:10Z</time>
      </trkpt>
      <trkpt lat="43.3988" lon="6.61591">
        <ele>378.9</ele>
        <time>2025-04-05T12:12:11Z</time>
      </trkpt>
      <trkpt lat="43.39881" lon="6.61592">
        <ele>378.9</ele>
        <time>2025-04-05T12:12:12Z</time>
      </trkpt>
      <trkpt lat="43.39882" lon="6.61594">
        <ele>378.9</ele>
        <time>2025-04-05T12:12:13Z</time>
      </trkpt>
      <trkpt lat="43.39891" lon="6.61614">
        <ele>379.38</ele>
        <time>2025-04-05T12:12:26Z</time>
      </trkpt>
      <trkpt lat="43.39883" lon="6.61643">
        <ele>379.86</ele>
        <time>2025-04-05T12:12:41Z</time>
      </trkpt>
      <trkpt lat="43.3986" lon="6.61668">
        <ele>380.34</ele>
        <time>2025-04-05T12:13:00Z</time>
      </trkpt>
      <trkpt lat="43.39841" lon="6.6169">
        <ele>380.82</ele>
        <time>2025-04-05T12:13:17Z</time>
      </trkpt>
      <trkpt lat="43.39829" lon="6.61706">
        <ele>380.82</ele>
        <time>2025-04-05T12:13:31Z</time>
      </trkpt>
      <trkpt lat="43.39825" lon="6.61725">
        <ele>381.3</ele>
        <time>2025-04-05T12:13:44Z</time>
      </trkpt>
      <trkpt lat="43.39824" lon="6.61727">
        <ele>381.3</ele>
        <time>2025-04-05T12:13:45Z</time>
      </trkpt>
      <trkpt lat="43.39824" lon="6.61728">
        <ele>381.3</ele>
        <time>2025-04-05T12:13:46Z</time>
      </trkpt>
      <trkpt lat="43.39824" lon="6.6173">
        <ele>381.3</ele>
        <time>2025-04-05T12:13:47Z</time>
      </trkpt>
      <trkpt lat="43.39824" lon="6.61732">
        <ele>381.3</ele>
        <time>2025-04-05T12:13:48Z</time>
      </trkpt>
      <trkpt lat="43.39819" lon="6.61762">
        <ele>381.3</ele>
        <time>2025-04-05T12:14:06Z</time>
      </trkpt>
      <trkpt lat="43.39814" lon="6.61788">
        <ele>381.3</ele>
        <time>2025-04-05T12:14:21Z</time>
      </trkpt>
      <trkpt lat="43.39813" lon="6.6179">
        <ele>381.3</ele>
        <time>2025-04-05T12:14:22Z</time>
      </trkpt>
      <trkpt lat="43.39804" lon="6.61821">
        <ele>381.3</ele>
        <time>2025-04-05T12:14:41Z</time>
      </trkpt>
      <trkpt lat="43.39796" lon="6.61846">
        <ele>381.3</ele>
        <time>2025-04-05T12:14:56Z</time>
      </trkpt>
      <trkpt lat="43.39796" lon="6.61872">
        <ele>381.3</ele>
        <time>2025-04-05T12:15:11Z</time>
      </trkpt>
      <trkpt lat="43.39805" lon="6.61898">
        <ele>381.3</ele>
        <time>2025-04-05T12:15:28Z</time>
      </trkpt>
      <trkpt lat="43.39814" lon="6.61923">
        <ele>381.3</ele>
        <time>2025-04-05T12:15:44Z</time>
      </trkpt>
      <trkpt lat="43.39822" lon="6.61952">
        <ele>381.3</ele>
        <time>2025-04-05T12:16:00Z</time>
      </trkpt>
      <trkpt lat="43.39834" lon="6.61981">
        <ele>381.3</ele>
        <time>2025-04-05T12:16:18Z</time>
      </trkpt>
      <trkpt lat="43.39854" lon="6.61996">
        <ele>381.3</ele>
        <time>2025-04-05T12:16:36Z</time>
      </trkpt>
      <trkpt lat="43.39872" lon="6.62006">
        <ele>381.78</ele>
        <time>2025-04-05T12:16:52Z</time>
      </trkpt>
      <trkpt lat="43.39892" lon="6.62011">
        <ele>381.78</ele>
        <time>2025-04-05T12:17:08Z</time>
      </trkpt>
      <trkpt lat="43.39914" lon="6.62016">
        <ele>382.26</ele>
        <time>2025-04-05T12:17:26Z</time>
      </trkpt>
      <trkpt lat="43.39933" lon="6.62018">
        <ele>382.74</ele>
        <time>2025-04-05T12:17:41Z</time>
      </trkpt>
      <trkpt lat="43.39953" lon="6.62014">
        <ele>382.74</ele>
        <time>2025-04-05T12:17:56Z</time>
      </trkpt>
      <trkpt lat="43.39968" lon="6.62004">
        <ele>383.22</ele>
        <time>2025-04-05T12:18:11Z</time>
      </trkpt>
      <trkpt lat="43.39987" lon="6.61996">
        <ele>383.22</ele>
        <time>2025-04-05T12:18:26Z</time>
      </trkpt>
      <trkpt lat="43.40012" lon="6.61991">
        <ele>383.7</ele>
        <time>2025-04-05T12:18:44Z</time>
      </trkpt>
      <trkpt lat="43.40036" lon="6.6198">
        <ele>383.7</ele>
        <time>2025-04-05T12:19:03Z</time>
      </trkpt>
      <trkpt lat="43.40063" lon="6.61971">
        <ele>384.18</ele>
        <time>2025-04-05T12:19:24Z</time>
      </trkpt>
      <trkpt lat="43.4008" lon="6.61964">
        <ele>385.15</ele>
        <time>2025-04-05T12:19:41Z</time>
      </trkpt>
      <trkpt lat="43.40079" lon="6.61968">
        <ele>385.15</ele>
        <time>2025-04-05T12:19:51Z</time>
      </trkpt>
      <trkpt lat="43.40079" lon="6.61967">
        <ele>385.15</ele>
        <time>2025-04-05T12:20:02Z</time>
      </trkpt>
      <trkpt lat="43.40082" lon="6.61968">
        <ele>385.15</ele>
        <time>2025-04-05T12:20:19Z</time>
      </trkpt>
      <trkpt lat="43.40079" lon="6.61972">
        <ele>385.15</ele>
        <time>2025-04-05T12:20:29Z</time>
      </trkpt>
      <trkpt lat="43.4008" lon="6.61973">
        <ele>385.15</ele>
        <time>2025-04-05T12:20:30Z</time>
      </trkpt>
      <trkpt lat="43.401" lon="6.61997">
        <ele>385.15</ele>
        <time>2025-04-05T12:20:49Z</time>
      </trkpt>
      <trkpt lat="43.40113" lon="6.62024">
        <ele>385.63</ele>
        <time>2025-04-05T12:21:06Z</time>
      </trkpt>
      <trkpt lat="43.4013" lon="6.62044">
        <ele>386.11</ele>
        <time>2025-04-05T12:21:24Z</time>
      </trkpt>
      <trkpt lat="43.40147" lon="6.62058">
        <ele>386.59</ele>
        <time>2025-04-05T12:21:40Z</time>
      </trkpt>
      <trkpt lat="43.40153" lon="6.6206">
        <ele>387.07</ele>
        <time>2025-04-05T12:21:45Z</time>
      </trkpt>
      <trkpt lat="43.40154" lon="6.6206">
        <ele>387.07</ele>
        <time>2025-04-05T12:21:46Z</time>
      </trkpt>
      <trkpt lat="43.40156" lon="6.62061">
        <ele>387.07</ele>
        <time>2025-04-05T12:21:47Z</time>
      </trkpt>
      <trkpt lat="43.40157" lon="6.62061">
        <ele>387.07</ele>
        <time>2025-04-05T12:21:48Z</time>
      </trkpt>
      <trkpt lat="43.40159" lon="6.62062">
        <ele>387.07</ele>
        <time>2025-04-05T12:21:49Z</time>
      </trkpt>
      <trkpt lat="43.40177" lon="6.62068">
        <ele>387.55</ele>
        <time>2025-04-05T12:22:04Z</time>
      </trkpt>
      <trkpt lat="43.40198" lon="6.62074">
        <ele>388.03</ele>
        <time>2025-04-05T12:22:22Z</time>
      </trkpt>
      <trkpt lat="43.4022" lon="6.62083">
        <ele>388.51</ele>
        <time>2025-04-05T12:22:38Z</time>
      </trkpt>
      <trkpt lat="43.40243" lon="6.62093">
        <ele>388.99</ele>
        <time>2025-04-05T12:22:56Z</time>
      </trkpt>
      <trkpt lat="43.40256" lon="6.62099">
        <ele>389.47</ele>
        <time>2025-04-05T12:23:07Z</time>
      </trkpt>
      <trkpt lat="43.40259" lon="6.62102">
        <ele>389.47</ele>
        <time>2025-04-05T12:23:09Z</time>
      </trkpt>
      <trkpt lat="43.4026" lon="6.62102">
        <ele>389.47</ele>
        <time>2025-04-05T12:23:10Z</time>
      </trkpt>
      <trkpt lat="43.40273" lon="6.62109">
        <ele>389.95</ele>
        <time>2025-04-05T12:23:21Z</time>
      </trkpt>
      <trkpt lat="43.40288" lon="6.62115">
        <ele>390.43</ele>
        <time>2025-04-05T12:23:33Z</time>
      </trkpt>
      <trkpt lat="43.40298" lon="6.62121">
        <ele>391.39</ele>
        <time>2025-04-05T12:23:45Z</time>
      </trkpt>
      <trkpt lat="43.4032" lon="6.62134">
        <ele>390.91</ele>
        <time>2025-04-05T12:24:03Z</time>
      </trkpt>
      <trkpt lat="43.40345" lon="6.62147">
        <ele>391.39</ele>
        <time>2025-04-05T12:24:24Z</time>
      </trkpt>
      <trkpt lat="43.40365" lon="6.6216">
        <ele>391.87</ele>
        <time>2025-04-05T12:24:42Z</time>
      </trkpt>
      <trkpt lat="43.40366" lon="6.62162">
        <ele>391.87</ele>
        <time>2025-04-05T12:24:43Z</time>
      </trkpt>
      <trkpt lat="43.40363" lon="6.6217">
        <ele>391.39</ele>
        <time>2025-04-05T12:24:59Z</time>
      </trkpt>
      <trkpt lat="43.40367" lon="6.62169">
        <ele>391.39</ele>
        <time>2025-04-05T12:25:14Z</time>
      </trkpt>
      <trkpt lat="43.4037" lon="6.62169">
        <ele>391.39</ele>
        <time>2025-04-05T12:25:17Z</time>
      </trkpt>
      <trkpt lat="43.40372" lon="6.62171">
        <ele>392.36</ele>
        <time>2025-04-05T12:25:19Z</time>
      </trkpt>
      <trkpt lat="43.40376" lon="6.62176">
        <ele>392.36</ele>
        <time>2025-04-05T12:25:22Z</time>
      </trkpt>
      <trkpt lat="43.40379" lon="6.62184">
        <ele>392.36</ele>
        <time>2025-04-05T12:25:36Z</time>
      </trkpt>
      <trkpt lat="43.40379" lon="6.62185">
        <ele>392.36</ele>
        <time>2025-04-05T12:25:37Z</time>
      </trkpt>
      <trkpt lat="43.40379" lon="6.62189">
        <ele>392.36</ele>
        <time>2025-04-05T12:25:39Z</time>
      </trkpt>
      <trkpt lat="43.4038" lon="6.62194">
        <ele>392.36</ele>
        <time>2025-04-05T12:25:42Z</time>
      </trkpt>
      <trkpt lat="43.4038" lon="6.62196">
        <ele>392.36</ele>
        <time>2025-04-05T12:25:43Z</time>
      </trkpt>
      <trkpt lat="43.40379" lon="6.62198">
        <ele>392.36</ele>
        <time>2025-04-05T12:25:44Z</time>
      </trkpt>
      <trkpt lat="43.40379" lon="6.622">
        <ele>392.36</ele>
        <time>2025-04-05T12:25:45Z</time>
      </trkpt>
      <trkpt lat="43.4038" lon="6.62208">
        <ele>393.8</ele>
        <time>2025-04-05T12:25:54Z</time>
      </trkpt>
      <trkpt lat="43.40383" lon="6.62214">
        <ele>394.76</ele>
        <time>2025-04-05T12:26:11Z</time>
      </trkpt>
      <trkpt lat="43.40386" lon="6.62224">
        <ele>397.16</ele>
        <time>2025-04-05T12:26:26Z</time>
      </trkpt>
      <trkpt lat="43.40387" lon="6.62233">
        <ele>399.57</ele>
        <time>2025-04-05T12:26:40Z</time>
      </trkpt>
      <trkpt lat="43.40389" lon="6.62246">
        <ele>401.97</ele>
        <time>2025-04-05T12:26:59Z</time>
      </trkpt>
      <trkpt lat="43.4039" lon="6.62259">
        <ele>404.37</ele>
        <time>2025-04-05T12:27:18Z</time>
      </trkpt>
      <trkpt lat="43.40389" lon="6.62267">
        <ele>405.33</ele>
        <time>2025-04-05T12:27:37Z</time>
      </trkpt>
      <trkpt lat="43.40388" lon="6.6228">
        <ele>405.81</ele>
        <time>2025-04-05T12:27:50Z</time>
      </trkpt>
      <trkpt lat="43.40387" lon="6.62296">
        <ele>405.81</ele>
        <time>2025-04-05T12:28:04Z</time>
      </trkpt>
      <trkpt lat="43.40389" lon="6.62307">
        <ele>406.77</ele>
        <time>2025-04-05T12:28:20Z</time>
      </trkpt>
      <trkpt lat="43.40386" lon="6.62313">
        <ele>406.77</ele>
        <time>2025-04-05T12:28:27Z</time>
      </trkpt>
      <trkpt lat="43.40384" lon="6.62316">
        <ele>405.33</ele>
        <time>2025-04-05T12:28:29Z</time>
      </trkpt>
      <trkpt lat="43.40382" lon="6.62324">
        <ele>404.85</ele>
        <time>2025-04-05T12:28:43Z</time>
      </trkpt>
      <trkpt lat="43.40386" lon="6.6233">
        <ele>406.29</ele>
        <time>2025-04-05T12:28:55Z</time>
      </trkpt>
      <trkpt lat="43.40391" lon="6.62335">
        <ele>408.7</ele>
        <time>2025-04-05T12:29:11Z</time>
      </trkpt>
      <trkpt lat="43.40395" lon="6.62341">
        <ele>410.62</ele>
        <time>2025-04-05T12:29:25Z</time>
      </trkpt>
      <trkpt lat="43.40398" lon="6.6235">
        <ele>413.5</ele>
        <time>2025-04-05T12:29:42Z</time>
      </trkpt>
      <trkpt lat="43.40401" lon="6.62355">
        <ele>415.43</ele>
        <time>2025-04-05T12:29:57Z</time>
      </trkpt>
      <trkpt lat="43.40403" lon="6.62352">
        <ele>417.83</ele>
        <time>2025-04-05T12:30:12Z</time>
      </trkpt>
      <trkpt lat="43.40409" lon="6.62354">
        <ele>419.27</ele>
        <time>2025-04-05T12:30:28Z</time>
      </trkpt>
      <trkpt lat="43.40412" lon="6.62357">
        <ele>421.19</ele>
        <time>2025-04-05T12:30:44Z</time>
      </trkpt>
      <trkpt lat="43.40414" lon="6.62356">
        <ele>422.16</ele>
        <time>2025-04-05T12:31:00Z</time>
      </trkpt>
      <trkpt lat="43.40417" lon="6.62358">
        <ele>424.08</ele>
        <time>2025-04-05T12:31:15Z</time>
      </trkpt>
      <trkpt lat="43.40421" lon="6.62358">
        <ele>426.48</ele>
        <time>2025-04-05T12:31:29Z</time>
      </trkpt>
      <trkpt lat="43.40424" lon="6.62357">
        <ele>427.44</ele>
        <time>2025-04-05T12:31:42Z</time>
      </trkpt>
      <trkpt lat="43.40428" lon="6.6236">
        <ele>429.85</ele>
        <time>2025-04-05T12:31:57Z</time>
      </trkpt>
      <trkpt lat="43.40433" lon="6.62359">
        <ele>431.29</ele>
        <time>2025-04-05T12:32:11Z</time>
      </trkpt>
      <trkpt lat="43.40439" lon="6.62363">
        <ele>434.17</ele>
        <time>2025-04-05T12:32:28Z</time>
      </trkpt>
      <trkpt lat="43.40441" lon="6.62373">
        <ele>435.61</ele>
        <time>2025-04-05T12:32:44Z</time>
      </trkpt>
      <trkpt lat="43.40444" lon="6.62381">
        <ele>437.54</ele>
        <time>2025-04-05T12:32:58Z</time>
      </trkpt>
      <trkpt lat="43.40448" lon="6.62387">
        <ele>438.98</ele>
        <time>2025-04-05T12:33:14Z</time>
      </trkpt>
      <trkpt lat="43.4045" lon="6.62395">
        <ele>441.38</ele>
        <time>2025-04-05T12:33:31Z</time>
      </trkpt>
      <trkpt lat="43.40451" lon="6.62402">
        <ele>442.82</ele>
        <time>2025-04-05T12:33:47Z</time>
      </trkpt>
      <trkpt lat="43.40452" lon="6.62408">
        <ele>444.75</ele>
        <time>2025-04-05T12:34:02Z</time>
      </trkpt>
      <trkpt lat="43.40453" lon="6.62418">
        <ele>447.15</ele>
        <time>2025-04-05T12:34:22Z</time>
      </trkpt>
      <trkpt lat="43.40454" lon="6.62426">
        <ele>449.07</ele>
        <time>2025-04-05T12:34:39Z</time>
      </trkpt>
      <trkpt lat="43.40456" lon="6.62432">
        <ele>451</ele>
        <time>2025-04-05T12:34:55Z</time>
      </trkpt>
      <trkpt lat="43.40459" lon="6.62439">
        <ele>452.92</ele>
        <time>2025-04-05T12:35:12Z</time>
      </trkpt>
      <trkpt lat="43.4046" lon="6.62445">
        <ele>454.84</ele>
        <time>2025-04-05T12:35:27Z</time>
      </trkpt>
      <trkpt lat="43.40462" lon="6.62452">
        <ele>457.24</ele>
        <time>2025-04-05T12:35:44Z</time>
      </trkpt>
      <trkpt lat="43.40465" lon="6.62461">
        <ele>459.65</ele>
        <time>2025-04-05T12:36:01Z</time>
      </trkpt>
      <trkpt lat="43.40467" lon="6.6247">
        <ele>461.09</ele>
        <time>2025-04-05T12:36:19Z</time>
      </trkpt>
      <trkpt lat="43.40468" lon="6.62482">
        <ele>463.49</ele>
        <time>2025-04-05T12:36:36Z</time>
      </trkpt>
      <trkpt lat="43.4047" lon="6.62493">
        <ele>465.42</ele>
        <time>2025-04-05T12:36:51Z</time>
      </trkpt>
      <trkpt lat="43.40478" lon="6.62497">
        <ele>466.38</ele>
        <time>2025-04-05T12:37:03Z</time>
      </trkpt>
      <trkpt lat="43.40479" lon="6.62498">
        <ele>466.86</ele>
        <time>2025-04-05T12:37:06Z</time>
      </trkpt>
      <trkpt lat="43.40482" lon="6.625">
        <ele>466.86</ele>
        <time>2025-04-05T12:37:18Z</time>
      </trkpt>
      <trkpt lat="43.4049" lon="6.62498">
        <ele>468.78</ele>
        <time>2025-04-05T12:37:35Z</time>
      </trkpt>
      <trkpt lat="43.40501" lon="6.62498">
        <ele>470.22</ele>
        <time>2025-04-05T12:37:50Z</time>
      </trkpt>
      <trkpt lat="43.40508" lon="6.625">
        <ele>472.14</ele>
        <time>2025-04-05T12:38:04Z</time>
      </trkpt>
      <trkpt lat="43.40515" lon="6.62501">
        <ele>474.07</ele>
        <time>2025-04-05T12:38:19Z</time>
      </trkpt>
      <trkpt lat="43.40525" lon="6.62503">
        <ele>475.99</ele>
        <time>2025-04-05T12:38:35Z</time>
      </trkpt>
      <trkpt lat="43.40537" lon="6.62507">
        <ele>477.43</ele>
        <time>2025-04-05T12:38:50Z</time>
      </trkpt>
      <trkpt lat="43.40538" lon="6.62508">
        <ele>477.43</ele>
        <time>2025-04-05T12:38:52Z</time>
      </trkpt>
      <trkpt lat="43.40543" lon="6.62515">
        <ele>477.43</ele>
        <time>2025-04-05T12:39:07Z</time>
      </trkpt>
      <trkpt lat="43.40543" lon="6.62514">
        <ele>477.43</ele>
        <time>2025-04-05T12:39:40Z</time>
      </trkpt>
      <trkpt lat="43.40544" lon="6.62513">
        <ele>477.43</ele>
        <time>2025-04-05T12:40:15Z</time>
      </trkpt>
      <trkpt lat="43.40547" lon="6.62515">
        <ele>477.43</ele>
        <time>2025-04-05T12:40:37Z</time>
      </trkpt>
      <trkpt lat="43.40563" lon="6.62513">
        <ele>477.43</ele>
        <time>2025-04-05T12:40:53Z</time>
      </trkpt>
      <trkpt lat="43.40578" lon="6.6251">
        <ele>476.95</ele>
        <time>2025-04-05T12:41:08Z</time>
      </trkpt>
      <trkpt lat="43.40597" lon="6.62514">
        <ele>475.51</ele>
        <time>2025-04-05T12:41:24Z</time>
      </trkpt>
      <trkpt lat="43.40603" lon="6.62512">
        <ele>474.55</ele>
        <time>2025-04-05T12:41:29Z</time>
      </trkpt>
      <trkpt lat="43.40607" lon="6.62511">
        <ele>474.55</ele>
        <time>2025-04-05T12:41:33Z</time>
      </trkpt>
      <trkpt lat="43.40625" lon="6.62507">
        <ele>475.51</ele>
        <time>2025-04-05T12:41:47Z</time>
      </trkpt>
      <trkpt lat="43.40632" lon="6.62501">
        <ele>476.95</ele>
        <time>2025-04-05T12:42:02Z</time>
      </trkpt>
      <trkpt lat="43.40639" lon="6.62509">
        <ele>476.95</ele>
        <time>2025-04-05T12:42:11Z</time>
      </trkpt>
      <trkpt lat="43.4066" lon="6.62517">
        <ele>475.03</ele>
        <time>2025-04-05T12:42:29Z</time>
      </trkpt>
      <trkpt lat="43.40663" lon="6.62519">
        <ele>475.99</ele>
        <time>2025-04-05T12:42:36Z</time>
      </trkpt>
      <trkpt lat="43.40669" lon="6.62521">
        <ele>475.99</ele>
        <time>2025-04-05T12:42:55Z</time>
      </trkpt>
      <trkpt lat="43.40679" lon="6.62522">
        <ele>475.03</ele>
        <time>2025-04-05T12:43:12Z</time>
      </trkpt>
      <trkpt lat="43.40681" lon="6.6252">
        <ele>476.47</ele>
        <time>2025-04-05T12:43:32Z</time>
      </trkpt>
      <trkpt lat="43.40683" lon="6.62519">
        <ele>475.99</ele>
        <time>2025-04-05T12:44:11Z</time>
      </trkpt>
      <trkpt lat="43.40691" lon="6.6252">
        <ele>475.99</ele>
        <time>2025-04-05T12:44:32Z</time>
      </trkpt>
      <trkpt lat="43.407" lon="6.62517">
        <ele>475.99</ele>
        <time>2025-04-05T12:44:42Z</time>
      </trkpt>
      <trkpt lat="43.40703" lon="6.62517">
        <ele>475.99</ele>
        <time>2025-04-05T12:44:46Z</time>
      </trkpt>
      <trkpt lat="43.40714" lon="6.62519">
        <ele>475.99</ele>
        <time>2025-04-05T12:44:59Z</time>
      </trkpt>
      <trkpt lat="43.40716" lon="6.62515">
        <ele>475.99</ele>
        <time>2025-04-05T12:45:31Z</time>
      </trkpt>
      <trkpt lat="43.40715" lon="6.62517">
        <ele>475.99</ele>
        <time>2025-04-05T12:46:09Z</time>
      </trkpt>
      <trkpt lat="43.40723" lon="6.62524">
        <ele>475.03</ele>
        <time>2025-04-05T12:46:22Z</time>
      </trkpt>
      <trkpt lat="43.40726" lon="6.62526">
        <ele>474.55</ele>
        <time>2025-04-05T12:46:26Z</time>
      </trkpt>
      <trkpt lat="43.40734" lon="6.62529">
        <ele>473.11</ele>
        <time>2025-04-05T12:46:38Z</time>
      </trkpt>
      <trkpt lat="43.40738" lon="6.62531">
        <ele>471.66</ele>
        <time>2025-04-05T12:46:49Z</time>
      </trkpt>
      <trkpt lat="43.40744" lon="6.62535">
        <ele>468.3</ele>
        <time>2025-04-05T12:46:59Z</time>
      </trkpt>
      <trkpt lat="43.40747" lon="6.62538">
        <ele>467.34</ele>
        <time>2025-04-05T12:47:04Z</time>
      </trkpt>
      <trkpt lat="43.40759" lon="6.62539">
        <ele>465.42</ele>
        <time>2025-04-05T12:47:19Z</time>
      </trkpt>
      <trkpt lat="43.40768" lon="6.62543">
        <ele>464.45</ele>
        <time>2025-04-05T12:47:33Z</time>
      </trkpt>
      <trkpt lat="43.40773" lon="6.62547">
        <ele>463.97</ele>
        <time>2025-04-05T12:47:40Z</time>
      </trkpt>
      <trkpt lat="43.4078" lon="6.62555">
        <ele>463.49</ele>
        <time>2025-04-05T12:47:55Z</time>
      </trkpt>
      <trkpt lat="43.40786" lon="6.62557">
        <ele>462.05</ele>
        <time>2025-04-05T12:48:09Z</time>
      </trkpt>
      <trkpt lat="43.40796" lon="6.62563">
        <ele>463.49</ele>
        <time>2025-04-05T12:48:25Z</time>
      </trkpt>
      <trkpt lat="43.40805" lon="6.62562">
        <ele>462.05</ele>
        <time>2025-04-05T12:48:33Z</time>
      </trkpt>
      <trkpt lat="43.40816" lon="6.62558">
        <ele>462.05</ele>
        <time>2025-04-05T12:48:44Z</time>
      </trkpt>
      <trkpt lat="43.40821" lon="6.62566">
        <ele>462.05</ele>
        <time>2025-04-05T12:48:56Z</time>
      </trkpt>
      <trkpt lat="43.40823" lon="6.62572">
        <ele>461.57</ele>
        <time>2025-04-05T12:49:01Z</time>
      </trkpt>
      <trkpt lat="43.40825" lon="6.62577">
        <ele>460.61</ele>
        <time>2025-04-05T12:49:05Z</time>
      </trkpt>
      <trkpt lat="43.40833" lon="6.62587">
        <ele>459.17</ele>
        <time>2025-04-05T12:49:17Z</time>
      </trkpt>
      <trkpt lat="43.40837" lon="6.62594">
        <ele>459.17</ele>
        <time>2025-04-05T12:49:23Z</time>
      </trkpt>
      <trkpt lat="43.40849" lon="6.62611">
        <ele>457.72</ele>
        <time>2025-04-05T12:49:39Z</time>
      </trkpt>
      <trkpt lat="43.4085" lon="6.62611">
        <ele>457.72</ele>
        <time>2025-04-05T12:49:40Z</time>
      </trkpt>
      <trkpt lat="43.40856" lon="6.62626">
        <ele>454.36</ele>
        <time>2025-04-05T12:49:52Z</time>
      </trkpt>
      <trkpt lat="43.40864" lon="6.62633">
        <ele>451.96</ele>
        <time>2025-04-05T12:50:02Z</time>
      </trkpt>
      <trkpt lat="43.40873" lon="6.62638">
        <ele>450.52</ele>
        <time>2025-04-05T12:50:12Z</time>
      </trkpt>
      <trkpt lat="43.40874" lon="6.62644">
        <ele>450.03</ele>
        <time>2025-04-05T12:50:17Z</time>
      </trkpt>
      <trkpt lat="43.40879" lon="6.62647">
        <ele>448.11</ele>
        <time>2025-04-05T12:50:22Z</time>
      </trkpt>
      <trkpt lat="43.4088" lon="6.62647">
        <ele>448.11</ele>
        <time>2025-04-05T12:50:24Z</time>
      </trkpt>
      <trkpt lat="43.40883" lon="6.62646">
        <ele>448.11</ele>
        <time>2025-04-05T12:50:27Z</time>
      </trkpt>
      <trkpt lat="43.40888" lon="6.62646">
        <ele>447.15</ele>
        <time>2025-04-05T12:50:31Z</time>
      </trkpt>
      <trkpt lat="43.40903" lon="6.62655">
        <ele>444.75</ele>
        <time>2025-04-05T12:50:46Z</time>
      </trkpt>
      <trkpt lat="43.40909" lon="6.62655">
        <ele>444.75</ele>
        <time>2025-04-05T12:51:00Z</time>
      </trkpt>
      <trkpt lat="43.40911" lon="6.62658">
        <ele>445.23</ele>
        <time>2025-04-05T12:51:17Z</time>
      </trkpt>
      <trkpt lat="43.40915" lon="6.6266">
        <ele>445.23</ele>
        <time>2025-04-05T12:52:01Z</time>
      </trkpt>
      <trkpt lat="43.40914" lon="6.62674">
        <ele>442.34</ele>
        <time>2025-04-05T12:52:17Z</time>
      </trkpt>
      <trkpt lat="43.40919" lon="6.62684">
        <ele>440.42</ele>
        <time>2025-04-05T12:52:26Z</time>
      </trkpt>
      <trkpt lat="43.40924" lon="6.62691">
        <ele>439.46</ele>
        <time>2025-04-05T12:52:33Z</time>
      </trkpt>
      <trkpt lat="43.40932" lon="6.62697">
        <ele>438.5</ele>
        <time>2025-04-05T12:52:47Z</time>
      </trkpt>
      <trkpt lat="43.40932" lon="6.62697">
        <ele>438.5</ele>
        <time>2025-04-05T12:53:10Z</time>
      </trkpt>
      <trkpt lat="43.40938" lon="6.62701">
        <ele>437.54</ele>
        <time>2025-04-05T12:53:24Z</time>
      </trkpt>
      <trkpt lat="43.40941" lon="6.62703">
        <ele>437.54</ele>
        <time>2025-04-05T12:53:41Z</time>
      </trkpt>
      <trkpt lat="43.40942" lon="6.62705">
        <ele>437.54</ele>
        <time>2025-04-05T12:53:45Z</time>
      </trkpt>
      <trkpt lat="43.40952" lon="6.62703">
        <ele>437.06</ele>
        <time>2025-04-05T12:53:59Z</time>
      </trkpt>
      <trkpt lat="43.40956" lon="6.62701">
        <ele>437.06</ele>
        <time>2025-04-05T12:54:04Z</time>
      </trkpt>
      <trkpt lat="43.4097" lon="6.62688">
        <ele>434.65</ele>
        <time>2025-04-05T12:54:19Z</time>
      </trkpt>
      <trkpt lat="43.40972" lon="6.62688">
        <ele>433.69</ele>
        <time>2025-04-05T12:54:22Z</time>
      </trkpt>
      <trkpt lat="43.40981" lon="6.62682">
        <ele>429.85</ele>
        <time>2025-04-05T12:54:34Z</time>
      </trkpt>
      <trkpt lat="43.40991" lon="6.62678">
        <ele>426.48</ele>
        <time>2025-04-05T12:54:47Z</time>
      </trkpt>
      <trkpt lat="43.41003" lon="6.62682">
        <ele>423.6</ele>
        <time>2025-04-05T12:54:59Z</time>
      </trkpt>
      <trkpt lat="43.41007" lon="6.62673">
        <ele>421.68</ele>
        <time>2025-04-05T12:55:09Z</time>
      </trkpt>
      <trkpt lat="43.41008" lon="6.62668">
        <ele>421.19</ele>
        <time>2025-04-05T12:55:12Z</time>
      </trkpt>
      <trkpt lat="43.41003" lon="6.62653">
        <ele>419.27</ele>
        <time>2025-04-05T12:55:27Z</time>
      </trkpt>
      <trkpt lat="43.41005" lon="6.62643">
        <ele>416.39</ele>
        <time>2025-04-05T12:55:38Z</time>
      </trkpt>
      <trkpt lat="43.41007" lon="6.62639">
        <ele>415.91</ele>
        <time>2025-04-05T12:55:43Z</time>
      </trkpt>
      <trkpt lat="43.41021" lon="6.62642">
        <ele>413.02</ele>
        <time>2025-04-05T12:55:56Z</time>
      </trkpt>
      <trkpt lat="43.41037" lon="6.62635">
        <ele>410.14</ele>
        <time>2025-04-05T12:56:11Z</time>
      </trkpt>
      <trkpt lat="43.41045" lon="6.62636">
        <ele>409.66</ele>
        <time>2025-04-05T12:56:18Z</time>
      </trkpt>
      <trkpt lat="43.41052" lon="6.62622">
        <ele>407.74</ele>
        <time>2025-04-05T12:56:32Z</time>
      </trkpt>
      <trkpt lat="43.41064" lon="6.62615">
        <ele>405.33</ele>
        <time>2025-04-05T12:56:46Z</time>
      </trkpt>
      <trkpt lat="43.41073" lon="6.62614">
        <ele>402.93</ele>
        <time>2025-04-05T12:56:58Z</time>
      </trkpt>
      <trkpt lat="43.41074" lon="6.62604">
        <ele>400.53</ele>
        <time>2025-04-05T12:57:11Z</time>
      </trkpt>
      <trkpt lat="43.41075" lon="6.62599">
        <ele>398.6</ele>
        <time>2025-04-05T12:57:17Z</time>
      </trkpt>
      <trkpt lat="43.41073" lon="6.62593">
        <ele>396.2</ele>
        <time>2025-04-05T12:57:31Z</time>
      </trkpt>
      <trkpt lat="43.41074" lon="6.62583">
        <ele>393.32</ele>
        <time>2025-04-05T12:57:43Z</time>
      </trkpt>
      <trkpt lat="43.41071" lon="6.62576">
        <ele>390.43</ele>
        <time>2025-04-05T12:57:56Z</time>
      </trkpt>
      <trkpt lat="43.41069" lon="6.6257">
        <ele>388.51</ele>
        <time>2025-04-05T12:58:08Z</time>
      </trkpt>
      <trkpt lat="43.41073" lon="6.6256">
        <ele>386.11</ele>
        <time>2025-04-05T12:58:20Z</time>
      </trkpt>
      <trkpt lat="43.41076" lon="6.62555">
        <ele>384.18</ele>
        <time>2025-04-05T12:58:35Z</time>
      </trkpt>
      <trkpt lat="43.4107" lon="6.62549">
        <ele>381.3</ele>
        <time>2025-04-05T12:58:49Z</time>
      </trkpt>
      <trkpt lat="43.41069" lon="6.62543">
        <ele>378.9</ele>
        <time>2025-04-05T12:59:00Z</time>
      </trkpt>
      <trkpt lat="43.41085" lon="6.6254">
        <ele>377.94</ele>
        <time>2025-04-05T12:59:15Z</time>
      </trkpt>
      <trkpt lat="43.41087" lon="6.62541">
        <ele>379.38</ele>
        <time>2025-04-05T12:59:20Z</time>
      </trkpt>
      <trkpt lat="43.41088" lon="6.6254">
        <ele>377.94</ele>
        <time>2025-04-05T12:59:40Z</time>
      </trkpt>
      <trkpt lat="43.41096" lon="6.62534">
        <ele>376.49</ele>
        <time>2025-04-05T12:59:53Z</time>
      </trkpt>
      <trkpt lat="43.41104" lon="6.62541">
        <ele>374.57</ele>
        <time>2025-04-05T13:00:05Z</time>
      </trkpt>
      <trkpt lat="43.41111" lon="6.62539">
        <ele>371.21</ele>
        <time>2025-04-05T13:00:16Z</time>
      </trkpt>
      <trkpt lat="43.41113" lon="6.62533">
        <ele>370.24</ele>
        <time>2025-04-05T13:00:22Z</time>
      </trkpt>
      <trkpt lat="43.41122" lon="6.62546">
        <ele>369.28</ele>
        <time>2025-04-05T13:00:35Z</time>
      </trkpt>
      <trkpt lat="43.41125" lon="6.62558">
        <ele>368.8</ele>
        <time>2025-04-05T13:00:50Z</time>
      </trkpt>
      <trkpt lat="43.41127" lon="6.62562">
        <ele>368.8</ele>
        <time>2025-04-05T13:01:22Z</time>
      </trkpt>
      <trkpt lat="43.41128" lon="6.62565">
        <ele>368.8</ele>
        <time>2025-04-05T13:01:36Z</time>
      </trkpt>
      <trkpt lat="43.41131" lon="6.62555">
        <ele>365.44</ele>
        <time>2025-04-05T13:01:48Z</time>
      </trkpt>
      <trkpt lat="43.41129" lon="6.62532">
        <ele>363.04</ele>
        <time>2025-04-05T13:02:03Z</time>
      </trkpt>
      <trkpt lat="43.41119" lon="6.62512">
        <ele>361.59</ele>
        <time>2025-04-05T13:02:17Z</time>
      </trkpt>
      <trkpt lat="43.41115" lon="6.62495">
        <ele>359.19</ele>
        <time>2025-04-05T13:02:31Z</time>
      </trkpt>
      <trkpt lat="43.41104" lon="6.62483">
        <ele>356.31</ele>
        <time>2025-04-05T13:02:45Z</time>
      </trkpt>
      <trkpt lat="43.41099" lon="6.62471">
        <ele>352.94</ele>
        <time>2025-04-05T13:02:57Z</time>
      </trkpt>
      <trkpt lat="43.4109" lon="6.62469">
        <ele>351.02</ele>
        <time>2025-04-05T13:03:09Z</time>
      </trkpt>
      <trkpt lat="43.41084" lon="6.6247">
        <ele>350.54</ele>
        <time>2025-04-05T13:03:15Z</time>
      </trkpt>
      <trkpt lat="43.41074" lon="6.62469">
        <ele>348.13</ele>
        <time>2025-04-05T13:03:29Z</time>
      </trkpt>
      <trkpt lat="43.41071" lon="6.62467">
        <ele>345.73</ele>
        <time>2025-04-05T13:03:32Z</time>
      </trkpt>
      <trkpt lat="43.41064" lon="6.62465">
        <ele>342.85</ele>
        <time>2025-04-05T13:03:40Z</time>
      </trkpt>
      <trkpt lat="43.41057" lon="6.62464">
        <ele>341.89</ele>
        <time>2025-04-05T13:03:53Z</time>
      </trkpt>
      <trkpt lat="43.41061" lon="6.62456">
        <ele>338.52</ele>
        <time>2025-04-05T13:04:08Z</time>
      </trkpt>
      <trkpt lat="43.4106" lon="6.6245">
        <ele>336.6</ele>
        <time>2025-04-05T13:04:23Z</time>
      </trkpt>
      <trkpt lat="43.41056" lon="6.62443">
        <ele>333.71</ele>
        <time>2025-04-05T13:04:37Z</time>
      </trkpt>
      <trkpt lat="43.41065" lon="6.62439">
        <ele>333.23</ele>
        <time>2025-04-05T13:04:56Z</time>
      </trkpt>
      <trkpt lat="43.41068" lon="6.62438">
        <ele>333.23</ele>
        <time>2025-04-05T13:05:15Z</time>
      </trkpt>
      <trkpt lat="43.41067" lon="6.62437">
        <ele>333.23</ele>
        <time>2025-04-05T13:05:47Z</time>
      </trkpt>
      <trkpt lat="43.41071" lon="6.62435">
        <ele>333.23</ele>
        <time>2025-04-05T13:06:14Z</time>
      </trkpt>
      <trkpt lat="43.41074" lon="6.62434">
        <ele>333.23</ele>
        <time>2025-04-05T13:06:17Z</time>
      </trkpt>
      <trkpt lat="43.41078" lon="6.62434">
        <ele>334.68</ele>
        <time>2025-04-05T13:06:21Z</time>
      </trkpt>
      <trkpt lat="43.41089" lon="6.62433">
        <ele>337.56</ele>
        <time>2025-04-05T13:06:37Z</time>
      </trkpt>
      <trkpt lat="43.41099" lon="6.62434">
        <ele>339</ele>
        <time>2025-04-05T13:06:50Z</time>
      </trkpt>
      <trkpt lat="43.4111" lon="6.62442">
        <ele>341.89</ele>
        <time>2025-04-05T13:07:06Z</time>
      </trkpt>
      <trkpt lat="43.41117" lon="6.62448">
        <ele>342.85</ele>
        <time>2025-04-05T13:07:15Z</time>
      </trkpt>
      <trkpt lat="43.41136" lon="6.62462">
        <ele>341.41</ele>
        <time>2025-04-05T13:07:35Z</time>
      </trkpt>
      <trkpt lat="43.41137" lon="6.62462">
        <ele>341.41</ele>
        <time>2025-04-05T13:07:36Z</time>
      </trkpt>
      <trkpt lat="43.41152" lon="6.62481">
        <ele>340.44</ele>
        <time>2025-04-05T13:07:53Z</time>
      </trkpt>
      <trkpt lat="43.41166" lon="6.62505">
        <ele>339.48</ele>
        <time>2025-04-05T13:08:11Z</time>
      </trkpt>
      <trkpt lat="43.41171" lon="6.62523">
        <ele>338.04</ele>
        <time>2025-04-05T13:08:24Z</time>
      </trkpt>
      <trkpt lat="43.41178" lon="6.62537">
        <ele>337.08</ele>
        <time>2025-04-05T13:08:34Z</time>
      </trkpt>
      <trkpt lat="43.41178" lon="6.62541">
        <ele>336.6</ele>
        <time>2025-04-05T13:08:37Z</time>
      </trkpt>
      <trkpt lat="43.41182" lon="6.62546">
        <ele>336.6</ele>
        <time>2025-04-05T13:08:41Z</time>
      </trkpt>
      <trkpt lat="43.41186" lon="6.62565">
        <ele>339.48</ele>
        <time>2025-04-05T13:08:59Z</time>
      </trkpt>
      <trkpt lat="43.41194" lon="6.62575">
        <ele>341.41</ele>
        <time>2025-04-05T13:09:11Z</time>
      </trkpt>
      <trkpt lat="43.41204" lon="6.62588">
        <ele>342.85</ele>
        <time>2025-04-05T13:09:27Z</time>
      </trkpt>
      <trkpt lat="43.41215" lon="6.62604">
        <ele>345.25</ele>
        <time>2025-04-05T13:09:44Z</time>
      </trkpt>
      <trkpt lat="43.41228" lon="6.62622">
        <ele>346.21</ele>
        <time>2025-04-05T13:10:02Z</time>
      </trkpt>
      <trkpt lat="43.41239" lon="6.62634">
        <ele>347.65</ele>
        <time>2025-04-05T13:10:18Z</time>
      </trkpt>
      <trkpt lat="43.41252" lon="6.62647">
        <ele>350.54</ele>
        <time>2025-04-05T13:10:37Z</time>
      </trkpt>
      <trkpt lat="43.41264" lon="6.62659">
        <ele>351.98</ele>
        <time>2025-04-05T13:10:53Z</time>
      </trkpt>
      <trkpt lat="43.41274" lon="6.62666">
        <ele>352.46</ele>
        <time>2025-04-05T13:11:11Z</time>
      </trkpt>
      <trkpt lat="43.41296" lon="6.62654">
        <ele>350.54</ele>
        <time>2025-04-05T13:15:43Z</time>
      </trkpt>
      <trkpt lat="43.41297" lon="6.62649">
        <ele>350.06</ele>
        <time>2025-04-05T13:15:47Z</time>
      </trkpt>
      <trkpt lat="43.41304" lon="6.62649">
        <ele>349.1</ele>
        <time>2025-04-05T13:16:00Z</time>
      </trkpt>
      <trkpt lat="43.41307" lon="6.62649">
        <ele>350.54</ele>
        <time>2025-04-05T13:16:03Z</time>
      </trkpt>
      <trkpt lat="43.41312" lon="6.62649">
        <ele>352.46</ele>
        <time>2025-04-05T13:16:19Z</time>
      </trkpt>
      <trkpt lat="43.41323" lon="6.62642">
        <ele>354.38</ele>
        <time>2025-04-05T13:16:36Z</time>
      </trkpt>
      <trkpt lat="43.41335" lon="6.62636">
        <ele>356.79</ele>
        <time>2025-04-05T13:16:53Z</time>
      </trkpt>
      <trkpt lat="43.41346" lon="6.62637">
        <ele>360.15</ele>
        <time>2025-04-05T13:17:09Z</time>
      </trkpt>
      <trkpt lat="43.41354" lon="6.62648">
        <ele>362.55</ele>
        <time>2025-04-05T13:17:26Z</time>
      </trkpt>
      <trkpt lat="43.41361" lon="6.62651">
        <ele>364.96</ele>
        <time>2025-04-05T13:17:42Z</time>
      </trkpt>
      <trkpt lat="43.41367" lon="6.62654">
        <ele>366.4</ele>
        <time>2025-04-05T13:17:55Z</time>
      </trkpt>
      <trkpt lat="43.41373" lon="6.62654">
        <ele>368.8</ele>
        <time>2025-04-05T13:18:13Z</time>
      </trkpt>
      <trkpt lat="43.4138" lon="6.62654">
        <ele>370.24</ele>
        <time>2025-04-05T13:18:27Z</time>
      </trkpt>
      <trkpt lat="43.41387" lon="6.62652">
        <ele>372.65</ele>
        <time>2025-04-05T13:18:41Z</time>
      </trkpt>
      <trkpt lat="43.41393" lon="6.62648">
        <ele>374.57</ele>
        <time>2025-04-05T13:18:56Z</time>
      </trkpt>
      <trkpt lat="43.41401" lon="6.62643">
        <ele>377.45</ele>
        <time>2025-04-05T13:19:10Z</time>
      </trkpt>
      <trkpt lat="43.41411" lon="6.62639">
        <ele>379.86</ele>
        <time>2025-04-05T13:19:28Z</time>
      </trkpt>
      <trkpt lat="43.41418" lon="6.62639">
        <ele>382.26</ele>
        <time>2025-04-05T13:19:44Z</time>
      </trkpt>
      <trkpt lat="43.41427" lon="6.62643">
        <ele>383.7</ele>
        <time>2025-04-05T13:19:58Z</time>
      </trkpt>
      <trkpt lat="43.41434" lon="6.6265">
        <ele>386.11</ele>
        <time>2025-04-05T13:20:12Z</time>
      </trkpt>
      <trkpt lat="43.4144" lon="6.62654">
        <ele>388.03</ele>
        <time>2025-04-05T13:20:27Z</time>
      </trkpt>
      <trkpt lat="43.41448" lon="6.62656">
        <ele>389.47</ele>
        <time>2025-04-05T13:20:42Z</time>
      </trkpt>
      <trkpt lat="43.41455" lon="6.62659">
        <ele>392.36</ele>
        <time>2025-04-05T13:21:00Z</time>
      </trkpt>
      <trkpt lat="43.41461" lon="6.62661">
        <ele>394.76</ele>
        <time>2025-04-05T13:21:17Z</time>
      </trkpt>
      <trkpt lat="43.41465" lon="6.6266">
        <ele>397.64</ele>
        <time>2025-04-05T13:21:32Z</time>
      </trkpt>
      <trkpt lat="43.4147" lon="6.62662">
        <ele>399.57</ele>
        <time>2025-04-05T13:21:49Z</time>
      </trkpt>
      <trkpt lat="43.41476" lon="6.6266">
        <ele>401.49</ele>
        <time>2025-04-05T13:22:04Z</time>
      </trkpt>
      <trkpt lat="43.41483" lon="6.62654">
        <ele>403.41</ele>
        <time>2025-04-05T13:22:20Z</time>
      </trkpt>
      <trkpt lat="43.41488" lon="6.62657">
        <ele>405.33</ele>
        <time>2025-04-05T13:22:37Z</time>
      </trkpt>
      <trkpt lat="43.41494" lon="6.62655">
        <ele>408.22</ele>
        <time>2025-04-05T13:22:55Z</time>
      </trkpt>
      <trkpt lat="43.41502" lon="6.62658">
        <ele>410.62</ele>
        <time>2025-04-05T13:23:12Z</time>
      </trkpt>
      <trkpt lat="43.41513" lon="6.62665">
        <ele>413.02</ele>
        <time>2025-04-05T13:23:30Z</time>
      </trkpt>
      <trkpt lat="43.41524" lon="6.62671">
        <ele>414.47</ele>
        <time>2025-04-05T13:23:47Z</time>
      </trkpt>
      <trkpt lat="43.41531" lon="6.62674">
        <ele>416.39</ele>
        <time>2025-04-05T13:23:59Z</time>
      </trkpt>
      <trkpt lat="43.41542" lon="6.62672">
        <ele>418.31</ele>
        <time>2025-04-05T13:24:16Z</time>
      </trkpt>
      <trkpt lat="43.41552" lon="6.62672">
        <ele>420.23</ele>
        <time>2025-04-05T13:24:30Z</time>
      </trkpt>
      <trkpt lat="43.41566" lon="6.62684">
        <ele>422.16</ele>
        <time>2025-04-05T13:24:46Z</time>
      </trkpt>
      <trkpt lat="43.41571" lon="6.6269">
        <ele>421.68</ele>
        <time>2025-04-05T13:24:59Z</time>
      </trkpt>
      <trkpt lat="43.41571" lon="6.6269">
        <ele>423.12</ele>
        <time>2025-04-05T13:25:03Z</time>
      </trkpt>
      <trkpt lat="43.41574" lon="6.62695">
        <ele>424.08</ele>
        <time>2025-04-05T13:25:25Z</time>
      </trkpt>
      <trkpt lat="43.41587" lon="6.62702">
        <ele>426.96</ele>
        <time>2025-04-05T13:25:38Z</time>
      </trkpt>
      <trkpt lat="43.41588" lon="6.62703">
        <ele>426.96</ele>
        <time>2025-04-05T13:25:39Z</time>
      </trkpt>
      <trkpt lat="43.41602" lon="6.62716">
        <ele>425.52</ele>
        <time>2025-04-05T13:25:55Z</time>
      </trkpt>
      <trkpt lat="43.41604" lon="6.62719">
        <ele>425.52</ele>
        <time>2025-04-05T13:25:57Z</time>
      </trkpt>
      <trkpt lat="43.41615" lon="6.62745">
        <ele>424.56</ele>
        <time>2025-04-05T13:26:15Z</time>
      </trkpt>
      <trkpt lat="43.41627" lon="6.62761">
        <ele>422.64</ele>
        <time>2025-04-05T13:26:31Z</time>
      </trkpt>
      <trkpt lat="43.4163" lon="6.62763">
        <ele>422.64</ele>
        <time>2025-04-05T13:26:34Z</time>
      </trkpt>
      <trkpt lat="43.41645" lon="6.62772">
        <ele>421.68</ele>
        <time>2025-04-05T13:26:50Z</time>
      </trkpt>
      <trkpt lat="43.41653" lon="6.62778">
        <ele>419.75</ele>
        <time>2025-04-05T13:26:58Z</time>
      </trkpt>
      <trkpt lat="43.41661" lon="6.62781">
        <ele>418.31</ele>
        <time>2025-04-05T13:27:13Z</time>
      </trkpt>
      <trkpt lat="43.41671" lon="6.6278">
        <ele>414.95</ele>
        <time>2025-04-05T13:27:24Z</time>
      </trkpt>
      <trkpt lat="43.41687" lon="6.62783">
        <ele>412.06</ele>
        <time>2025-04-05T13:27:37Z</time>
      </trkpt>
      <trkpt lat="43.41702" lon="6.62798">
        <ele>408.7</ele>
        <time>2025-04-05T13:27:51Z</time>
      </trkpt>
      <trkpt lat="43.41717" lon="6.62809">
        <ele>407.26</ele>
        <time>2025-04-05T13:28:05Z</time>
      </trkpt>
      <trkpt lat="43.41737" lon="6.62813">
        <ele>408.7</ele>
        <time>2025-04-05T13:28:23Z</time>
      </trkpt>
      <trkpt lat="43.41757" lon="6.62823">
        <ele>410.62</ele>
        <time>2025-04-05T13:28:41Z</time>
      </trkpt>
      <trkpt lat="43.41761" lon="6.62826">
        <ele>411.1</ele>
        <time>2025-04-05T13:28:45Z</time>
      </trkpt>
      <trkpt lat="43.41768" lon="6.62835">
        <ele>410.14</ele>
        <time>2025-04-05T13:28:54Z</time>
      </trkpt>
      <trkpt lat="43.41782" lon="6.62848">
        <ele>406.77</ele>
        <time>2025-04-05T13:29:10Z</time>
      </trkpt>
      <trkpt lat="43.41795" lon="6.62857">
        <ele>404.85</ele>
        <time>2025-04-05T13:29:24Z</time>
      </trkpt>
      <trkpt lat="43.41809" lon="6.6287">
        <ele>403.41</ele>
        <time>2025-04-05T13:29:41Z</time>
      </trkpt>
      <trkpt lat="43.41809" lon="6.62871">
        <ele>403.41</ele>
        <time>2025-04-05T13:30:04Z</time>
      </trkpt>
      <trkpt lat="43.41813" lon="6.62871">
        <ele>403.41</ele>
        <time>2025-04-05T13:30:32Z</time>
      </trkpt>
      <trkpt lat="43.41815" lon="6.6287">
        <ele>403.41</ele>
        <time>2025-04-05T13:30:51Z</time>
      </trkpt>
      <trkpt lat="43.41818" lon="6.62874">
        <ele>403.41</ele>
        <time>2025-04-05T13:31:16Z</time>
      </trkpt>
      <trkpt lat="43.4182" lon="6.62877">
        <ele>403.41</ele>
        <time>2025-04-05T13:31:41Z</time>
      </trkpt>
      <trkpt lat="43.41822" lon="6.62877">
        <ele>403.41</ele>
        <time>2025-04-05T13:32:03Z</time>
      </trkpt>
      <trkpt lat="43.41822" lon="6.62873">
        <ele>403.41</ele>
        <time>2025-04-05T13:32:41Z</time>
      </trkpt>
      <trkpt lat="43.4183" lon="6.62878">
        <ele>404.85</ele>
        <time>2025-04-05T13:33:00Z</time>
      </trkpt>
      <trkpt lat="43.41843" lon="6.62892">
        <ele>407.74</ele>
        <time>2025-04-05T13:33:17Z</time>
      </trkpt>
      <trkpt lat="43.41847" lon="6.62897">
        <ele>408.7</ele>
        <time>2025-04-05T13:33:22Z</time>
      </trkpt>
      <trkpt lat="43.4186" lon="6.62913">
        <ele>410.62</ele>
        <time>2025-04-05T13:33:39Z</time>
      </trkpt>
      <trkpt lat="43.41874" lon="6.62928">
        <ele>412.06</ele>
        <time>2025-04-05T13:33:56Z</time>
      </trkpt>
      <trkpt lat="43.41879" lon="6.62929">
        <ele>412.06</ele>
        <time>2025-04-05T13:34:00Z</time>
      </trkpt>
      <trkpt lat="43.41897" lon="6.62931">
        <ele>411.1</ele>
        <time>2025-04-05T13:34:14Z</time>
      </trkpt>
      <trkpt lat="43.41913" lon="6.62937">
        <ele>408.7</ele>
        <time>2025-04-05T13:34:29Z</time>
      </trkpt>
      <trkpt lat="43.41928" lon="6.6294">
        <ele>405.33</ele>
        <time>2025-04-05T13:34:43Z</time>
      </trkpt>
      <trkpt lat="43.4194" lon="6.62939">
        <ele>401.97</ele>
        <time>2025-04-05T13:34:56Z</time>
      </trkpt>
      <trkpt lat="43.41953" lon="6.62938">
        <ele>399.08</ele>
        <time>2025-04-05T13:35:10Z</time>
      </trkpt>
      <trkpt lat="43.41961" lon="6.62937">
        <ele>397.16</ele>
        <time>2025-04-05T13:35:17Z</time>
      </trkpt>
      <trkpt lat="43.41986" lon="6.62933">
        <ele>395.72</ele>
        <time>2025-04-05T13:35:37Z</time>
      </trkpt>
      <trkpt lat="43.42003" lon="6.62931">
        <ele>392.84</ele>
        <time>2025-04-05T13:35:53Z</time>
      </trkpt>
      <trkpt lat="43.42021" lon="6.62928">
        <ele>390.43</ele>
        <time>2025-04-05T13:36:09Z</time>
      </trkpt>
      <trkpt lat="43.42035" lon="6.62919">
        <ele>386.59</ele>
        <time>2025-04-05T13:36:24Z</time>
      </trkpt>
      <trkpt lat="43.42048" lon="6.62909">
        <ele>383.7</ele>
        <time>2025-04-05T13:36:37Z</time>
      </trkpt>
      <trkpt lat="43.4207" lon="6.62903">
        <ele>380.82</ele>
        <time>2025-04-05T13:36:54Z</time>
      </trkpt>
      <trkpt lat="43.42074" lon="6.62899">
        <ele>380.34</ele>
        <time>2025-04-05T13:36:58Z</time>
      </trkpt>
      <trkpt lat="43.42093" lon="6.62883">
        <ele>377.45</ele>
        <time>2025-04-05T13:37:16Z</time>
      </trkpt>
      <trkpt lat="43.4211" lon="6.6287">
        <ele>377.45</ele>
        <time>2025-04-05T13:37:31Z</time>
      </trkpt>
      <trkpt lat="43.42112" lon="6.62866">
        <ele>378.9</ele>
        <time>2025-04-05T13:37:34Z</time>
      </trkpt>
      <trkpt lat="43.42135" lon="6.6287">
        <ele>379.86</ele>
        <time>2025-04-05T13:37:53Z</time>
      </trkpt>
      <trkpt lat="43.42138" lon="6.62872">
        <ele>379.86</ele>
        <time>2025-04-05T13:37:55Z</time>
      </trkpt>
      <trkpt lat="43.4214" lon="6.62873">
        <ele>379.38</ele>
        <time>2025-04-05T13:37:57Z</time>
      </trkpt>
      <trkpt lat="43.42144" lon="6.62875">
        <ele>378.42</ele>
        <time>2025-04-05T13:38:00Z</time>
      </trkpt>
      <trkpt lat="43.42165" lon="6.62885">
        <ele>376.97</ele>
        <time>2025-04-05T13:38:16Z</time>
      </trkpt>
      <trkpt lat="43.42182" lon="6.62896">
        <ele>376.01</ele>
        <time>2025-04-05T13:38:31Z</time>
      </trkpt>
      <trkpt lat="43.42191" lon="6.62898">
        <ele>375.05</ele>
        <time>2025-04-05T13:38:38Z</time>
      </trkpt>
      <trkpt lat="43.42207" lon="6.62909">
        <ele>373.13</ele>
        <time>2025-04-05T13:38:51Z</time>
      </trkpt>
      <trkpt lat="43.42222" lon="6.62925">
        <ele>372.65</ele>
        <time>2025-04-05T13:39:06Z</time>
      </trkpt>
      <trkpt lat="43.42241" lon="6.62938">
        <ele>370.24</ele>
        <time>2025-04-05T13:39:22Z</time>
      </trkpt>
      <trkpt lat="43.42255" lon="6.6295">
        <ele>367.36</ele>
        <time>2025-04-05T13:39:37Z</time>
      </trkpt>
      <trkpt lat="43.42269" lon="6.6296">
        <ele>363.52</ele>
        <time>2025-04-05T13:39:51Z</time>
      </trkpt>
      <trkpt lat="43.42274" lon="6.62966">
        <ele>361.59</ele>
        <time>2025-04-05T13:39:56Z</time>
      </trkpt>
      <trkpt lat="43.4228" lon="6.62973">
        <ele>360.15</ele>
        <time>2025-04-05T13:40:02Z</time>
      </trkpt>
      <trkpt lat="43.4229" lon="6.62991">
        <ele>357.75</ele>
        <time>2025-04-05T13:40:15Z</time>
      </trkpt>
      <trkpt lat="43.42305" lon="6.6301">
        <ele>356.31</ele>
        <time>2025-04-05T13:40:31Z</time>
      </trkpt>
      <trkpt lat="43.42313" lon="6.63018">
        <ele>355.34</ele>
        <time>2025-04-05T13:40:39Z</time>
      </trkpt>
      <trkpt lat="43.42328" lon="6.63027">
        <ele>351.98</ele>
        <time>2025-04-05T13:40:55Z</time>
      </trkpt>
      <trkpt lat="43.4233" lon="6.63029">
        <ele>351.5</ele>
        <time>2025-04-05T13:40:57Z</time>
      </trkpt>
      <trkpt lat="43.42334" lon="6.6303">
        <ele>350.06</ele>
        <time>2025-04-05T13:41:01Z</time>
      </trkpt>
      <trkpt lat="43.42349" lon="6.63042">
        <ele>347.65</ele>
        <time>2025-04-05T13:41:15Z</time>
      </trkpt>
      <trkpt lat="43.4236" lon="6.63061">
        <ele>344.29</ele>
        <time>2025-04-05T13:41:30Z</time>
      </trkpt>
      <trkpt lat="43.42362" lon="6.63065">
        <ele>344.29</ele>
        <time>2025-04-05T13:41:32Z</time>
      </trkpt>
      <trkpt lat="43.42375" lon="6.63081">
        <ele>341.89</ele>
        <time>2025-04-05T13:41:47Z</time>
      </trkpt>
      <trkpt lat="43.42383" lon="6.6309">
        <ele>340.92</ele>
        <time>2025-04-05T13:41:55Z</time>
      </trkpt>
      <trkpt lat="43.42392" lon="6.63101">
        <ele>339.48</ele>
        <time>2025-04-05T13:42:04Z</time>
      </trkpt>
      <trkpt lat="43.42397" lon="6.63105">
        <ele>338.52</ele>
        <time>2025-04-05T13:42:09Z</time>
      </trkpt>
      <trkpt lat="43.42392" lon="6.63128">
        <ele>337.56</ele>
        <time>2025-04-05T13:42:24Z</time>
      </trkpt>
      <trkpt lat="43.42395" lon="6.63132">
        <ele>337.56</ele>
        <time>2025-04-05T13:42:35Z</time>
      </trkpt>
      <trkpt lat="43.42405" lon="6.63144">
        <ele>336.12</ele>
        <time>2025-04-05T13:42:47Z</time>
      </trkpt>
      <trkpt lat="43.42412" lon="6.63153">
        <ele>335.16</ele>
        <time>2025-04-05T13:42:54Z</time>
      </trkpt>
      <trkpt lat="43.42413" lon="6.63157">
        <ele>335.16</ele>
        <time>2025-04-05T13:42:56Z</time>
      </trkpt>
      <trkpt lat="43.42419" lon="6.63173">
        <ele>332.75</ele>
        <time>2025-04-05T13:43:07Z</time>
      </trkpt>
      <trkpt lat="43.42425" lon="6.63183">
        <ele>331.79</ele>
        <time>2025-04-05T13:43:13Z</time>
      </trkpt>
      <trkpt lat="43.42442" lon="6.63197">
        <ele>330.83</ele>
        <time>2025-04-05T13:43:29Z</time>
      </trkpt>
      <trkpt lat="43.42461" lon="6.63205">
        <ele>329.87</ele>
        <time>2025-04-05T13:43:46Z</time>
      </trkpt>
      <trkpt lat="43.42468" lon="6.63215">
        <ele>327.95</ele>
        <time>2025-04-05T13:44:02Z</time>
      </trkpt>
      <trkpt lat="43.42466" lon="6.63222">
        <ele>325.54</ele>
        <time>2025-04-05T13:44:18Z</time>
      </trkpt>
      <trkpt lat="43.42462" lon="6.63227">
        <ele>324.1</ele>
        <time>2025-04-05T13:44:31Z</time>
      </trkpt>
      <trkpt lat="43.42461" lon="6.63229">
        <ele>322.66</ele>
        <time>2025-04-05T13:44:34Z</time>
      </trkpt>
      <trkpt lat="43.42466" lon="6.63238">
        <ele>319.3</ele>
        <time>2025-04-05T13:44:46Z</time>
      </trkpt>
      <trkpt lat="43.42466" lon="6.63238">
        <ele>319.3</ele>
        <time>2025-04-05T13:44:47Z</time>
      </trkpt>
      <trkpt lat="43.42471" lon="6.63243">
        <ele>316.89</ele>
        <time>2025-04-05T13:45:05Z</time>
      </trkpt>
      <trkpt lat="43.42475" lon="6.63257">
        <ele>313.53</ele>
        <time>2025-04-05T13:45:20Z</time>
      </trkpt>
      <trkpt lat="43.4248" lon="6.63274">
        <ele>310.16</ele>
        <time>2025-04-05T13:45:32Z</time>
      </trkpt>
      <trkpt lat="43.42491" lon="6.63289">
        <ele>306.32</ele>
        <time>2025-04-05T13:45:47Z</time>
      </trkpt>
      <trkpt lat="43.42505" lon="6.633">
        <ele>302.95</ele>
        <time>2025-04-05T13:46:02Z</time>
      </trkpt>
      <trkpt lat="43.42502" lon="6.63309">
        <ele>299.11</ele>
        <time>2025-04-05T13:46:16Z</time>
      </trkpt>
      <trkpt lat="43.42502" lon="6.63318">
        <ele>296.7</ele>
        <time>2025-04-05T13:46:30Z</time>
      </trkpt>
      <trkpt lat="43.425" lon="6.63328">
        <ele>293.34</ele>
        <time>2025-04-05T13:46:53Z</time>
      </trkpt>
      <trkpt lat="43.4249" lon="6.63337">
        <ele>290.46</ele>
        <time>2025-04-05T13:47:08Z</time>
      </trkpt>
      <trkpt lat="43.42488" lon="6.63344">
        <ele>287.57</ele>
        <time>2025-04-05T13:47:18Z</time>
      </trkpt>
      <trkpt lat="43.42485" lon="6.63356">
        <ele>284.21</ele>
        <time>2025-04-05T13:47:29Z</time>
      </trkpt>
      <trkpt lat="43.42485" lon="6.6337">
        <ele>281.32</ele>
        <time>2025-04-05T13:47:41Z</time>
      </trkpt>
      <trkpt lat="43.42483" lon="6.63374">
        <ele>279.88</ele>
        <time>2025-04-05T13:47:44Z</time>
      </trkpt>
      <trkpt lat="43.42475" lon="6.63389">
        <ele>277</ele>
        <time>2025-04-05T13:47:57Z</time>
      </trkpt>
      <trkpt lat="43.42465" lon="6.63398">
        <ele>273.63</ele>
        <time>2025-04-05T13:48:11Z</time>
      </trkpt>
      <trkpt lat="43.42455" lon="6.63409">
        <ele>270.27</ele>
        <time>2025-04-05T13:48:24Z</time>
      </trkpt>
      <trkpt lat="43.42453" lon="6.63412">
        <ele>268.35</ele>
        <time>2025-04-05T13:48:31Z</time>
      </trkpt>
      <trkpt lat="43.42445" lon="6.63419">
        <ele>264.5</ele>
        <time>2025-04-05T13:48:45Z</time>
      </trkpt>
      <trkpt lat="43.42449" lon="6.63425">
        <ele>263.54</ele>
        <time>2025-04-05T13:49:00Z</time>
      </trkpt>
      <trkpt lat="43.42452" lon="6.6343">
        <ele>262.1</ele>
        <time>2025-04-05T13:49:15Z</time>
      </trkpt>
      <trkpt lat="43.42456" lon="6.63432">
        <ele>261.62</ele>
        <time>2025-04-05T13:49:24Z</time>
      </trkpt>
      <trkpt lat="43.42465" lon="6.63434">
        <ele>261.62</ele>
        <time>2025-04-05T13:49:33Z</time>
      </trkpt>
      <trkpt lat="43.42468" lon="6.63436">
        <ele>261.14</ele>
        <time>2025-04-05T13:49:37Z</time>
      </trkpt>
      <trkpt lat="43.42469" lon="6.63438">
        <ele>260.17</ele>
        <time>2025-04-05T13:49:39Z</time>
      </trkpt>
      <trkpt lat="43.4247" lon="6.63439">
        <ele>259.69</ele>
        <time>2025-04-05T13:49:40Z</time>
      </trkpt>
      <trkpt lat="43.42473" lon="6.6344">
        <ele>259.69</ele>
        <time>2025-04-05T13:49:42Z</time>
      </trkpt>
      <trkpt lat="43.4249" lon="6.63432">
        <ele>258.73</ele>
        <time>2025-04-05T13:50:00Z</time>
      </trkpt>
      <trkpt lat="43.42504" lon="6.6342">
        <ele>257.29</ele>
        <time>2025-04-05T13:50:16Z</time>
      </trkpt>
      <trkpt lat="43.4252" lon="6.6342">
        <ele>255.85</ele>
        <time>2025-04-05T13:50:29Z</time>
      </trkpt>
      <trkpt lat="43.42536" lon="6.63434">
        <ele>255.85</ele>
        <time>2025-04-05T13:50:43Z</time>
      </trkpt>
      <trkpt lat="43.42545" lon="6.63446">
        <ele>255.85</ele>
        <time>2025-04-05T13:51:01Z</time>
      </trkpt>
      <trkpt lat="43.42556" lon="6.63464">
        <ele>252.96</ele>
        <time>2025-04-05T13:51:17Z</time>
      </trkpt>
      <trkpt lat="43.42569" lon="6.63472">
        <ele>250.56</ele>
        <time>2025-04-05T13:51:32Z</time>
      </trkpt>
      <trkpt lat="43.42584" lon="6.6348">
        <ele>248.64</ele>
        <time>2025-04-05T13:51:47Z</time>
      </trkpt>
      <trkpt lat="43.42595" lon="6.63475">
        <ele>247.68</ele>
        <time>2025-04-05T13:52:01Z</time>
      </trkpt>
      <trkpt lat="43.42602" lon="6.63468">
        <ele>247.2</ele>
        <time>2025-04-05T13:52:12Z</time>
      </trkpt>
      <trkpt lat="43.42617" lon="6.63465">
        <ele>246.23</ele>
        <time>2025-04-05T13:52:26Z</time>
      </trkpt>
      <trkpt lat="43.42626" lon="6.63472">
        <ele>244.79</ele>
        <time>2025-04-05T13:52:35Z</time>
      </trkpt>
      <trkpt lat="43.42642" lon="6.6348">
        <ele>243.83</ele>
        <time>2025-04-05T13:52:51Z</time>
      </trkpt>
      <trkpt lat="43.42659" lon="6.63481">
        <ele>241.43</ele>
        <time>2025-04-05T13:53:07Z</time>
      </trkpt>
      <trkpt lat="43.42662" lon="6.63483">
        <ele>240.47</ele>
        <time>2025-04-05T13:53:10Z</time>
      </trkpt>
      <trkpt lat="43.42683" lon="6.63494">
        <ele>239.51</ele>
        <time>2025-04-05T13:53:28Z</time>
      </trkpt>
      <trkpt lat="43.42696" lon="6.63502">
        <ele>238.54</ele>
        <time>2025-04-05T13:53:42Z</time>
      </trkpt>
      <trkpt lat="43.42707" lon="6.63508">
        <ele>238.54</ele>
        <time>2025-04-05T13:53:57Z</time>
      </trkpt>
      <trkpt lat="43.42721" lon="6.63515">
        <ele>237.1</ele>
        <time>2025-04-05T13:54:12Z</time>
      </trkpt>
      <trkpt lat="43.4273" lon="6.63521">
        <ele>236.62</ele>
        <time>2025-04-05T13:54:28Z</time>
      </trkpt>
      <trkpt lat="43.42743" lon="6.63526">
        <ele>235.18</ele>
        <time>2025-04-05T13:54:42Z</time>
      </trkpt>
      <trkpt lat="43.42757" lon="6.6353">
        <ele>232.78</ele>
        <time>2025-04-05T13:54:56Z</time>
      </trkpt>
      <trkpt lat="43.42769" lon="6.63529">
        <ele>230.85</ele>
        <time>2025-04-05T13:55:08Z</time>
      </trkpt>
      <trkpt lat="43.42789" lon="6.63531">
        <ele>228.45</ele>
        <time>2025-04-05T13:55:25Z</time>
      </trkpt>
      <trkpt lat="43.42805" lon="6.63536">
        <ele>227.49</ele>
        <time>2025-04-05T13:55:40Z</time>
      </trkpt>
      <trkpt lat="43.42824" lon="6.63536">
        <ele>227.01</ele>
        <time>2025-04-05T13:55:56Z</time>
      </trkpt>
      <trkpt lat="43.42842" lon="6.63537">
        <ele>225.57</ele>
        <time>2025-04-05T13:56:12Z</time>
      </trkpt>
      <trkpt lat="43.42848" lon="6.63539">
        <ele>225.09</ele>
        <time>2025-04-05T13:56:31Z</time>
      </trkpt>
      <trkpt lat="43.42851" lon="6.63541">
        <ele>225.09</ele>
        <time>2025-04-05T13:56:50Z</time>
      </trkpt>
      <trkpt lat="43.42861" lon="6.63546">
        <ele>224.12</ele>
        <time>2025-04-05T13:57:04Z</time>
      </trkpt>
      <trkpt lat="43.42866" lon="6.63547">
        <ele>220.28</ele>
        <time>2025-04-05T13:57:16Z</time>
      </trkpt>
      <trkpt lat="43.42866" lon="6.63547">
        <ele>223.64</ele>
        <time>2025-04-05T13:57:17Z</time>
      </trkpt>
      <trkpt lat="43.42866" lon="6.63547">
        <ele>223.64</ele>
        <time>2025-04-05T13:57:18Z</time>
      </trkpt>
      <trkpt lat="43.42866" lon="6.63547">
        <ele>222.2</ele>
        <time>2025-04-05T13:57:20Z</time>
      </trkpt>
      <trkpt lat="43.42876" lon="6.63553">
        <ele>221.24</ele>
        <time>2025-04-05T13:57:33Z</time>
      </trkpt>
      <trkpt lat="43.42879" lon="6.63555">
        <ele>220.76</ele>
        <time>2025-04-05T13:57:37Z</time>
      </trkpt>
      <trkpt lat="43.4289" lon="6.63557">
        <ele>218.36</ele>
        <time>2025-04-05T13:57:51Z</time>
      </trkpt>
      <trkpt lat="43.429" lon="6.63555">
        <ele>216.43</ele>
        <time>2025-04-05T13:58:05Z</time>
      </trkpt>
      <trkpt lat="43.42911" lon="6.63549">
        <ele>213.55</ele>
        <time>2025-04-05T13:58:20Z</time>
      </trkpt>
      <trkpt lat="43.42921" lon="6.63539">
        <ele>212.11</ele>
        <time>2025-04-05T13:58:34Z</time>
      </trkpt>
      <trkpt lat="43.42929" lon="6.63518">
        <ele>209.22</ele>
        <time>2025-04-05T13:58:49Z</time>
      </trkpt>
      <trkpt lat="43.42934" lon="6.63505">
        <ele>207.78</ele>
        <time>2025-04-05T13:59:02Z</time>
      </trkpt>
      <trkpt lat="43.42938" lon="6.63491">
        <ele>205.38</ele>
        <time>2025-04-05T13:59:18Z</time>
      </trkpt>
      <trkpt lat="43.42944" lon="6.63477">
        <ele>203.46</ele>
        <time>2025-04-05T13:59:35Z</time>
      </trkpt>
      <trkpt lat="43.42951" lon="6.63456">
        <ele>200.09</ele>
        <time>2025-04-05T13:59:50Z</time>
      </trkpt>
      <trkpt lat="43.42951" lon="6.63451">
        <ele>199.61</ele>
        <time>2025-04-05T13:59:53Z</time>
      </trkpt>
      <trkpt lat="43.42955" lon="6.63437">
        <ele>196.73</ele>
        <time>2025-04-05T14:00:04Z</time>
      </trkpt>
      <trkpt lat="43.42957" lon="6.63423">
        <ele>195.28</ele>
        <time>2025-04-05T14:00:23Z</time>
      </trkpt>
      <trkpt lat="43.42959" lon="6.63411">
        <ele>192.4</ele>
        <time>2025-04-05T14:00:34Z</time>
      </trkpt>
      <trkpt lat="43.4296" lon="6.63404">
        <ele>190.48</ele>
        <time>2025-04-05T14:00:49Z</time>
      </trkpt>
      <trkpt lat="43.42963" lon="6.63396">
        <ele>189.52</ele>
        <time>2025-04-05T14:00:56Z</time>
      </trkpt>
      <trkpt lat="43.42965" lon="6.63389">
        <ele>188.08</ele>
        <time>2025-04-05T14:01:01Z</time>
      </trkpt>
      <trkpt lat="43.42968" lon="6.63365">
        <ele>185.67</ele>
        <time>2025-04-05T14:01:15Z</time>
      </trkpt>
      <trkpt lat="43.42983" lon="6.63346">
        <ele>183.27</ele>
        <time>2025-04-05T14:01:30Z</time>
      </trkpt>
      <trkpt lat="43.43003" lon="6.63337">
        <ele>182.79</ele>
        <time>2025-04-05T14:01:46Z</time>
      </trkpt>
      <trkpt lat="43.43011" lon="6.63331">
        <ele>181.35</ele>
        <time>2025-04-05T14:01:51Z</time>
      </trkpt>
      <trkpt lat="43.43037" lon="6.63327">
        <ele>179.9</ele>
        <time>2025-04-05T14:02:11Z</time>
      </trkpt>
      <trkpt lat="43.43062" lon="6.63325">
        <ele>178.94</ele>
        <time>2025-04-05T14:02:30Z</time>
      </trkpt>
      <trkpt lat="43.43072" lon="6.63325">
        <ele>178.46</ele>
        <time>2025-04-05T14:02:41Z</time>
      </trkpt>
      <trkpt lat="43.43075" lon="6.63326">
        <ele>177.98</ele>
        <time>2025-04-05T14:02:43Z</time>
      </trkpt>
      <trkpt lat="43.43091" lon="6.63335">
        <ele>174.62</ele>
        <time>2025-04-05T14:02:54Z</time>
      </trkpt>
      <trkpt lat="43.43093" lon="6.63337">
        <ele>174.14</ele>
        <time>2025-04-05T14:02:56Z</time>
      </trkpt>
      <trkpt lat="43.43106" lon="6.63348">
        <ele>172.21</ele>
        <time>2025-04-05T14:03:13Z</time>
      </trkpt>
      <trkpt lat="43.43111" lon="6.63356">
        <ele>171.73</ele>
        <time>2025-04-05T14:03:38Z</time>
      </trkpt>
      <trkpt lat="43.43112" lon="6.63358">
        <ele>171.25</ele>
        <time>2025-04-05T14:03:40Z</time>
      </trkpt>
      <trkpt lat="43.4312" lon="6.63379">
        <ele>166.93</ele>
        <time>2025-04-05T14:03:57Z</time>
      </trkpt>
      <trkpt lat="43.43124" lon="6.63387">
        <ele>166.45</ele>
        <time>2025-04-05T14:04:02Z</time>
      </trkpt>
      <trkpt lat="43.43132" lon="6.63396">
        <ele>164.04</ele>
        <time>2025-04-05T14:04:13Z</time>
      </trkpt>
      <trkpt lat="43.43136" lon="6.63405">
        <ele>163.08</ele>
        <time>2025-04-05T14:04:28Z</time>
      </trkpt>
      <trkpt lat="43.43142" lon="6.63414">
        <ele>161.64</ele>
        <time>2025-04-05T14:04:34Z</time>
      </trkpt>
      <trkpt lat="43.43156" lon="6.63426">
        <ele>157.79</ele>
        <time>2025-04-05T14:04:45Z</time>
      </trkpt>
      <trkpt lat="43.4316" lon="6.63429">
        <ele>156.83</ele>
        <time>2025-04-05T14:04:48Z</time>
      </trkpt>
      <trkpt lat="43.43176" lon="6.6345">
        <ele>154.43</ele>
        <time>2025-04-05T14:05:02Z</time>
      </trkpt>
      <trkpt lat="43.43182" lon="6.63477">
        <ele>151.06</ele>
        <time>2025-04-05T14:05:16Z</time>
      </trkpt>
      <trkpt lat="43.43175" lon="6.63503">
        <ele>147.7</ele>
        <time>2025-04-05T14:05:29Z</time>
      </trkpt>
      <trkpt lat="43.43175" lon="6.63507">
        <ele>147.22</ele>
        <time>2025-04-05T14:05:31Z</time>
      </trkpt>
      <trkpt lat="43.43191" lon="6.63509">
        <ele>144.34</ele>
        <time>2025-04-05T14:05:43Z</time>
      </trkpt>
      <trkpt lat="43.43213" lon="6.63502">
        <ele>140.49</ele>
        <time>2025-04-05T14:05:58Z</time>
      </trkpt>
      <trkpt lat="43.4323" lon="6.63493">
        <ele>137.13</ele>
        <time>2025-04-05T14:06:13Z</time>
      </trkpt>
      <trkpt lat="43.43245" lon="6.63473">
        <ele>134.72</ele>
        <time>2025-04-05T14:06:28Z</time>
      </trkpt>
      <trkpt lat="43.43249" lon="6.63446">
        <ele>131.84</ele>
        <time>2025-04-05T14:06:43Z</time>
      </trkpt>
      <trkpt lat="43.43251" lon="6.63418">
        <ele>129.43</ele>
        <time>2025-04-05T14:06:58Z</time>
      </trkpt>
      <trkpt lat="43.43249" lon="6.63382">
        <ele>127.03</ele>
        <time>2025-04-05T14:07:17Z</time>
      </trkpt>
      <trkpt lat="43.43252" lon="6.6335">
        <ele>123.67</ele>
        <time>2025-04-05T14:07:33Z</time>
      </trkpt>
      <trkpt lat="43.43257" lon="6.63342">
        <ele>122.71</ele>
        <time>2025-04-05T14:07:38Z</time>
      </trkpt>
      <trkpt lat="43.43267" lon="6.63348">
        <ele>120.3</ele>
        <time>2025-04-05T14:07:46Z</time>
      </trkpt>
      <trkpt lat="43.4328" lon="6.6337">
        <ele>116.94</ele>
        <time>2025-04-05T14:08:02Z</time>
      </trkpt>
      <trkpt lat="43.43293" lon="6.6339">
        <ele>114.53</ele>
        <time>2025-04-05T14:08:18Z</time>
      </trkpt>
      <trkpt lat="43.43305" lon="6.63401">
        <ele>110.69</ele>
        <time>2025-04-05T14:08:29Z</time>
      </trkpt>
      <trkpt lat="43.43318" lon="6.63413">
        <ele>107.81</ele>
        <time>2025-04-05T14:08:42Z</time>
      </trkpt>
      <trkpt lat="43.43335" lon="6.63423">
        <ele>104.44</ele>
        <time>2025-04-05T14:08:57Z</time>
      </trkpt>
      <trkpt lat="43.43347" lon="6.6344">
        <ele>101.56</ele>
        <time>2025-04-05T14:09:10Z</time>
      </trkpt>
      <trkpt lat="43.4335" lon="6.63445">
        <ele>101.08</ele>
        <time>2025-04-05T14:09:14Z</time>
      </trkpt>
      <trkpt lat="43.43363" lon="6.63462">
        <ele>97.71</ele>
        <time>2025-04-05T14:09:29Z</time>
      </trkpt>
      <trkpt lat="43.43378" lon="6.63465">
        <ele>93.87</ele>
        <time>2025-04-05T14:09:43Z</time>
      </trkpt>
      <trkpt lat="43.43393" lon="6.63457">
        <ele>91.94</ele>
        <time>2025-04-05T14:09:58Z</time>
      </trkpt>
      <trkpt lat="43.43409" lon="6.63443">
        <ele>91.46</ele>
        <time>2025-04-05T14:10:14Z</time>
      </trkpt>
      <trkpt lat="43.43409" lon="6.63447">
        <ele>90.98</ele>
        <time>2025-04-05T14:10:28Z</time>
      </trkpt>
      <trkpt lat="43.4341" lon="6.63448">
        <ele>90.98</ele>
        <time>2025-04-05T14:10:31Z</time>
      </trkpt>
      <trkpt lat="43.43427" lon="6.63451">
        <ele>90.5</ele>
        <time>2025-04-05T14:10:45Z</time>
      </trkpt>
      <trkpt lat="43.43446" lon="6.6347">
        <ele>90.5</ele>
        <time>2025-04-05T14:11:02Z</time>
      </trkpt>
      <trkpt lat="43.43445" lon="6.63471">
        <ele>90.02</ele>
        <time>2025-04-05T14:11:16Z</time>
      </trkpt>
      <trkpt lat="43.43448" lon="6.63473">
        <ele>90.02</ele>
        <time>2025-04-05T14:11:39Z</time>
      </trkpt>
      <trkpt lat="43.43458" lon="6.63492">
        <ele>89.54</ele>
        <time>2025-04-05T14:11:55Z</time>
      </trkpt>
      <trkpt lat="43.43475" lon="6.63518">
        <ele>88.58</ele>
        <time>2025-04-05T14:12:14Z</time>
      </trkpt>
      <trkpt lat="43.43492" lon="6.63547">
        <ele>87.62</ele>
        <time>2025-04-05T14:12:34Z</time>
      </trkpt>
      <trkpt lat="43.43499" lon="6.63557">
        <ele>87.14</ele>
        <time>2025-04-05T14:12:43Z</time>
      </trkpt>
      <trkpt lat="43.43505" lon="6.63566">
        <ele>86.66</ele>
        <time>2025-04-05T14:12:51Z</time>
      </trkpt>
      <trkpt lat="43.43511" lon="6.63565">
        <ele>88.1</ele>
        <time>2025-04-05T14:13:03Z</time>
      </trkpt>
      <trkpt lat="43.43518" lon="6.63565">
        <ele>90.5</ele>
        <time>2025-04-05T14:13:19Z</time>
      </trkpt>
      <trkpt lat="43.43524" lon="6.63571">
        <ele>91.46</ele>
        <time>2025-04-05T14:13:33Z</time>
      </trkpt>
      <trkpt lat="43.43529" lon="6.63576">
        <ele>91.94</ele>
        <time>2025-04-05T14:13:46Z</time>
      </trkpt>
      <trkpt lat="43.43534" lon="6.6358">
        <ele>92.42</ele>
        <time>2025-04-05T14:13:55Z</time>
      </trkpt>
      <trkpt lat="43.43542" lon="6.63593">
        <ele>92.42</ele>
        <time>2025-04-05T14:14:07Z</time>
      </trkpt>
      <trkpt lat="43.43545" lon="6.63598">
        <ele>92.42</ele>
        <time>2025-04-05T14:14:20Z</time>
      </trkpt>
      <trkpt lat="43.43547" lon="6.63602">
        <ele>92.42</ele>
        <time>2025-04-05T14:14:37Z</time>
      </trkpt>
      <trkpt lat="43.43552" lon="6.63611">
        <ele>92.42</ele>
        <time>2025-04-05T14:14:54Z</time>
      </trkpt>
      <trkpt lat="43.43551" lon="6.6361">
        <ele>91.94</ele>
        <time>2025-04-05T14:15:15Z</time>
      </trkpt>
      <trkpt lat="43.43553" lon="6.63612">
        <ele>91.94</ele>
        <time>2025-04-05T14:15:31Z</time>
      </trkpt>
      <trkpt lat="43.43565" lon="6.63619">
        <ele>90.98</ele>
        <time>2025-04-05T14:15:46Z</time>
      </trkpt>
      <trkpt lat="43.43566" lon="6.63619">
        <ele>90.98</ele>
        <time>2025-04-05T14:15:57Z</time>
      </trkpt>
      <trkpt lat="43.43574" lon="6.63619">
        <ele>90.5</ele>
        <time>2025-04-05T14:16:05Z</time>
      </trkpt>
      <trkpt lat="43.4358" lon="6.63633">
        <ele>90.5</ele>
        <time>2025-04-05T14:16:15Z</time>
      </trkpt>
      <trkpt lat="43.43582" lon="6.63637">
        <ele>90.5</ele>
        <time>2025-04-05T14:16:19Z</time>
      </trkpt>
      <trkpt lat="43.43593" lon="6.6364">
        <ele>90.5</ele>
        <time>2025-04-05T14:16:33Z</time>
      </trkpt>
      <trkpt lat="43.43596" lon="6.63637">
        <ele>90.5</ele>
        <time>2025-04-05T14:16:37Z</time>
      </trkpt>
      <trkpt lat="43.43611" lon="6.63623">
        <ele>89.54</ele>
        <time>2025-04-05T14:16:54Z</time>
      </trkpt>
      <trkpt lat="43.43611" lon="6.63622">
        <ele>89.54</ele>
        <time>2025-04-05T14:16:55Z</time>
      </trkpt>
      <trkpt lat="43.43625" lon="6.63624">
        <ele>89.06</ele>
        <time>2025-04-05T14:17:09Z</time>
      </trkpt>
      <trkpt lat="43.43628" lon="6.63626">
        <ele>89.06</ele>
        <time>2025-04-05T14:17:12Z</time>
      </trkpt>
      <trkpt lat="43.43632" lon="6.63629">
        <ele>89.06</ele>
        <time>2025-04-05T14:17:16Z</time>
      </trkpt>
      <trkpt lat="43.43646" lon="6.63638">
        <ele>89.06</ele>
        <time>2025-04-05T14:17:31Z</time>
      </trkpt>
      <trkpt lat="43.43651" lon="6.63639">
        <ele>89.06</ele>
        <time>2025-04-05T14:17:36Z</time>
      </trkpt>
      <trkpt lat="43.43664" lon="6.63644">
        <ele>88.58</ele>
        <time>2025-04-05T14:17:49Z</time>
      </trkpt>
      <trkpt lat="43.43677" lon="6.63639">
        <ele>88.58</ele>
        <time>2025-04-05T14:18:04Z</time>
      </trkpt>
      <trkpt lat="43.43683" lon="6.63637">
        <ele>88.58</ele>
        <time>2025-04-05T14:18:11Z</time>
      </trkpt>
      <trkpt lat="43.43686" lon="6.63635">
        <ele>88.1</ele>
        <time>2025-04-05T14:18:14Z</time>
      </trkpt>
      <trkpt lat="43.43691" lon="6.63631">
        <ele>87.62</ele>
        <time>2025-04-05T14:18:19Z</time>
      </trkpt>
      <trkpt lat="43.43698" lon="6.63623">
        <ele>87.62</ele>
        <time>2025-04-05T14:18:28Z</time>
      </trkpt>
      <trkpt lat="43.437" lon="6.63622">
        <ele>87.62</ele>
        <time>2025-04-05T14:18:30Z</time>
      </trkpt>
      <trkpt lat="43.4371" lon="6.63611">
        <ele>87.14</ele>
        <time>2025-04-05T14:18:42Z</time>
      </trkpt>
      <trkpt lat="43.43713" lon="6.63605">
        <ele>87.14</ele>
        <time>2025-04-05T14:18:46Z</time>
      </trkpt>
      <trkpt lat="43.43724" lon="6.6359">
        <ele>87.14</ele>
        <time>2025-04-05T14:19:01Z</time>
      </trkpt>
      <trkpt lat="43.43729" lon="6.63575">
        <ele>87.14</ele>
        <time>2025-04-05T14:19:12Z</time>
      </trkpt>
      <trkpt lat="43.43731" lon="6.6357">
        <ele>87.14</ele>
        <time>2025-04-05T14:19:16Z</time>
      </trkpt>
      <trkpt lat="43.43734" lon="6.63554">
        <ele>87.14</ele>
        <time>2025-04-05T14:19:29Z</time>
      </trkpt>
      <trkpt lat="43.4374" lon="6.63541">
        <ele>86.18</ele>
        <time>2025-04-05T14:19:41Z</time>
      </trkpt>
      <trkpt lat="43.43746" lon="6.63538">
        <ele>86.18</ele>
        <time>2025-04-05T14:19:47Z</time>
      </trkpt>
      <trkpt lat="43.43762" lon="6.63534">
        <ele>86.18</ele>
        <time>2025-04-05T14:20:03Z</time>
      </trkpt>
      <trkpt lat="43.43766" lon="6.63531">
        <ele>86.18</ele>
        <time>2025-04-05T14:20:09Z</time>
      </trkpt>
      <trkpt lat="43.43778" lon="6.63514">
        <ele>84.73</ele>
        <time>2025-04-05T14:20:25Z</time>
      </trkpt>
      <trkpt lat="43.43786" lon="6.63505">
        <ele>84.25</ele>
        <time>2025-04-05T14:20:34Z</time>
      </trkpt>
      <trkpt lat="43.43795" lon="6.63486">
        <ele>83.29</ele>
        <time>2025-04-05T14:20:51Z</time>
      </trkpt>
      <trkpt lat="43.43798" lon="6.63472">
        <ele>82.33</ele>
        <time>2025-04-05T14:21:02Z</time>
      </trkpt>
      <trkpt lat="43.438" lon="6.63452">
        <ele>80.41</ele>
        <time>2025-04-05T14:21:16Z</time>
      </trkpt>
      <trkpt lat="43.43801" lon="6.63431">
        <ele>79.45</ele>
        <time>2025-04-05T14:21:29Z</time>
      </trkpt>
      <trkpt lat="43.43802" lon="6.63406">
        <ele>79.45</ele>
        <time>2025-04-05T14:21:45Z</time>
      </trkpt>
      <trkpt lat="43.43797" lon="6.6339">
        <ele>78</ele>
        <time>2025-04-05T14:21:59Z</time>
      </trkpt>
      <trkpt lat="43.43795" lon="6.63385">
        <ele>77.04</ele>
        <time>2025-04-05T14:22:05Z</time>
      </trkpt>
      <trkpt lat="43.438" lon="6.63371">
        <ele>76.08</ele>
        <time>2025-04-05T14:22:13Z</time>
      </trkpt>
      <trkpt lat="43.43803" lon="6.6337">
        <ele>76.08</ele>
        <time>2025-04-05T14:22:16Z</time>
      </trkpt>
      <trkpt lat="43.43809" lon="6.63377">
        <ele>76.08</ele>
        <time>2025-04-05T14:22:29Z</time>
      </trkpt>
      <trkpt lat="43.43811" lon="6.63381">
        <ele>74.64</ele>
        <time>2025-04-05T14:22:42Z</time>
      </trkpt>
      <trkpt lat="43.43817" lon="6.63376">
        <ele>74.16</ele>
        <time>2025-04-05T14:22:57Z</time>
      </trkpt>
      <trkpt lat="43.43817" lon="6.63378">
        <ele>74.16</ele>
        <time>2025-04-05T14:23:00Z</time>
      </trkpt>
      <trkpt lat="43.43811" lon="6.63388">
        <ele>73.68</ele>
        <time>2025-04-05T14:23:14Z</time>
      </trkpt>
      <trkpt lat="43.43811" lon="6.63388">
        <ele>72.72</ele>
        <time>2025-04-05T14:23:28Z</time>
      </trkpt>
      <trkpt lat="43.4381" lon="6.63387">
        <ele>72.24</ele>
        <time>2025-04-05T14:23:48Z</time>
      </trkpt>
      <trkpt lat="43.43809" lon="6.63385">
        <ele>72.24</ele>
        <time>2025-04-05T14:24:11Z</time>
      </trkpt>
      <trkpt lat="43.4381" lon="6.63379">
        <ele>74.16</ele>
        <time>2025-04-05T14:24:25Z</time>
      </trkpt>
      <trkpt lat="43.43812" lon="6.63377">
        <ele>74.64</ele>
        <time>2025-04-05T14:24:27Z</time>
      </trkpt>
      <trkpt lat="43.43823" lon="6.63374">
        <ele>74.64</ele>
        <time>2025-04-05T14:24:41Z</time>
      </trkpt>
      <trkpt lat="43.4383" lon="6.63372">
        <ele>73.2</ele>
        <time>2025-04-05T14:24:48Z</time>
      </trkpt>
      <trkpt lat="43.43838" lon="6.63364">
        <ele>72.24</ele>
        <time>2025-04-05T14:24:58Z</time>
      </trkpt>
      <trkpt lat="43.4384" lon="6.63363">
        <ele>71.76</ele>
        <time>2025-04-05T14:25:01Z</time>
      </trkpt>
      <trkpt lat="43.43852" lon="6.63351">
        <ele>69.83</ele>
        <time>2025-04-05T14:25:16Z</time>
      </trkpt>
      <trkpt lat="43.43857" lon="6.6335">
        <ele>69.83</ele>
        <time>2025-04-05T14:25:20Z</time>
      </trkpt>
      <trkpt lat="43.43872" lon="6.6335">
        <ele>68.87</ele>
        <time>2025-04-05T14:25:35Z</time>
      </trkpt>
      <trkpt lat="43.43873" lon="6.63349">
        <ele>67.91</ele>
        <time>2025-04-05T14:25:37Z</time>
      </trkpt>
      <trkpt lat="43.43883" lon="6.63342">
        <ele>66.47</ele>
        <time>2025-04-05T14:25:48Z</time>
      </trkpt>
      <trkpt lat="43.43889" lon="6.63342">
        <ele>65.51</ele>
        <time>2025-04-05T14:25:55Z</time>
      </trkpt>
      <trkpt lat="43.43891" lon="6.63337">
        <ele>65.03</ele>
        <time>2025-04-05T14:26:01Z</time>
      </trkpt>
      <trkpt lat="43.43898" lon="6.6333">
        <ele>63.58</ele>
        <time>2025-04-05T14:26:14Z</time>
      </trkpt>
      <trkpt lat="43.43909" lon="6.63324">
        <ele>61.66</ele>
        <time>2025-04-05T14:26:30Z</time>
      </trkpt>
      <trkpt lat="43.43913" lon="6.63324">
        <ele>61.66</ele>
        <time>2025-04-05T14:26:41Z</time>
      </trkpt>
      <trkpt lat="43.43924" lon="6.63331">
        <ele>59.74</ele>
        <time>2025-04-05T14:26:55Z</time>
      </trkpt>
      <trkpt lat="43.43925" lon="6.63332">
        <ele>59.74</ele>
        <time>2025-04-05T14:26:56Z</time>
      </trkpt>
      <trkpt lat="43.43933" lon="6.6334">
        <ele>59.74</ele>
        <time>2025-04-05T14:27:07Z</time>
      </trkpt>
      <trkpt lat="43.4394" lon="6.63354">
        <ele>58.78</ele>
        <time>2025-04-05T14:27:20Z</time>
      </trkpt>
      <trkpt lat="43.43949" lon="6.63361">
        <ele>57.34</ele>
        <time>2025-04-05T14:27:33Z</time>
      </trkpt>
      <trkpt lat="43.43951" lon="6.63364">
        <ele>56.86</ele>
        <time>2025-04-05T14:27:37Z</time>
      </trkpt>
      <trkpt lat="43.43962" lon="6.63371">
        <ele>54.93</ele>
        <time>2025-04-05T14:27:52Z</time>
      </trkpt>
      <trkpt lat="43.43971" lon="6.63372">
        <ele>53.97</ele>
        <time>2025-04-05T14:28:03Z</time>
      </trkpt>
      <trkpt lat="43.43973" lon="6.63383">
        <ele>52.53</ele>
        <time>2025-04-05T14:28:17Z</time>
      </trkpt>
      <trkpt lat="43.4397" lon="6.63385">
        <ele>52.53</ele>
        <time>2025-04-05T14:28:38Z</time>
      </trkpt>
      <trkpt lat="43.43977" lon="6.63389">
        <ele>53.01</ele>
        <time>2025-04-05T14:28:47Z</time>
      </trkpt>
      <trkpt lat="43.4398" lon="6.63393">
        <ele>52.53</ele>
        <time>2025-04-05T14:29:05Z</time>
      </trkpt>
    </trkseg>
  </trk>
</gpx>